Darstellungsparameter: Aktuell verwendete Einstellungen:
Skalierung der Graphiken ... ?
xyx+y,   Skalierungsfaktor:      Skalierung: Modus: x, Faktor: 1
Darstellungszeitraum ... ?
Vom - - bis: - -   Zeitraum: 14.05.2020 - 20.05.2020
Min/Max/Avg-Anzeige ... ?
Zeige MMA aktuell
Zeige MMA Monat
Zeige MMA alles
Zeige --A aktuell
Zeige --A Monat
Zeige --A alles
Keine MMA-Anzeige
MMA:
Average (ber die Originaldaten)
MMA-Basis: 14.05.2020 - 20.05.2020
Quicknavigation für Darstellung... ?
Tage:      1T, 2T, 3T, 5T -1T -2T -3T -5T +1T +2T +3T +5T
Wochen: 1W, 2W, 3W -1W -2W -3W +1W +2W +3W
Monate: 1M, 3M, 6M -1M -3M -6M +1M +3M +6M
Jahre:    1J, 3J, 5J, 10J -1J -3J -5J -10J +1J +3J +5J +10J
Nutze für die Darstellung ... ?
Originaldaten oder Mittelwerte auf ...
Stundenbasis Tagesbasis Wochenbasis
Monatsbasis Jahresbasis      Datenbasis: Original-Daten
Darstellen als:
Statistik (Auto) Statistik J:M      Darstellung:
Zur Graphik,    zurück zur Übersicht aller Sensoren.
 
Tabellarische Datenbersicht: ?
 
Sensor: Nr:Datum:Temp:Abs-Feuchte:Windchill:Wind:
Aussen-T/F 1 14-05-2020 00:00:00 8.4 C 6.45 g/m*3 8.4 C 4.8 km/h
2 14-05-2020 00:05:00 8.4 C 6.45 g/m*3 6.24 C 12.9 km/h
3 14-05-2020 00:10:00 8.3 C 6.49 g/m*3 7.41 C 6.4 km/h
4 14-05-2020 00:15:00 8.3 C 6.41 g/m*3 6.99 C 8.1 km/h
5 14-05-2020 00:20:00 8.2 C 6.36 g/m*3 6.87 C 8.1 km/h
6 14-05-2020 00:25:00 8.2 C 6.36 g/m*3 6.25 C 11.3 km/h
7 14-05-2020 00:30:00 8.1 C 6.32 g/m*3 6.42 C 9.7 km/h
8 14-05-2020 00:35:00 8.1 C 6.32 g/m*3 6.75 C 8.1 km/h
9 14-05-2020 00:40:00 8 C 6.28 g/m*3 7.06 C 6.4 km/h
10 14-05-2020 00:45:00 7.9 C 6.24 g/m*3 6.18 C 9.7 km/h
11 14-05-2020 00:50:00 7.9 C 6.24 g/m*3 6.18 C 9.7 km/h
12 14-05-2020 00:55:00 7.9 C 6.24 g/m*3 6.18 C 9.7 km/h
13 14-05-2020 01:00:00 7.8 C 6.2 g/m*3 6.83 C 6.4 km/h
14 14-05-2020 01:05:00 7.8 C 6.2 g/m*3 6.83 C 6.4 km/h
15 14-05-2020 01:10:00 7.7 C 6.16 g/m*3 6.71 C 6.4 km/h
16 14-05-2020 01:15:00 7.7 C 6.16 g/m*3 5.94 C 9.7 km/h
17 14-05-2020 01:20:00 7.6 C 6.2 g/m*3 6.6 C 6.4 km/h
18 14-05-2020 01:25:00 7.6 C 6.2 g/m*3 6.16 C 8.1 km/h
19 14-05-2020 01:30:00 7.5 C 6.16 g/m*3 6.05 C 8.1 km/h
20 14-05-2020 01:35:00 7.4 C 6.12 g/m*3 7.4 C 0 km/h
21 14-05-2020 01:40:00 7.2 C 6.12 g/m*3 7.2 C 1.6 km/h
22 14-05-2020 01:45:00 7.1 C 6.08 g/m*3 7.1 C 3.2 km/h
23 14-05-2020 01:50:00 6.9 C 6.08 g/m*3 6.9 C 1.6 km/h
24 14-05-2020 01:55:00 6.7 C 6 g/m*3 6.7 C 0 km/h
25 14-05-2020 02:00:00 6.4 C 5.89 g/m*3 6.4 C 0 km/h
Sensor: Nr:Datum:Temp:Abs-Feuchte:Windchill:Wind:
Aussen-T/F 26 14-05-2020 02:05:00 6.2 C 5.88 g/m*3 6.2 C 1.6 km/h
27 14-05-2020 02:10:00 6.1 C 5.99 g/m*3 6.1 C 3.2 km/h
28 14-05-2020 02:15:00 6.1 C 5.99 g/m*3 4.86 C 6.4 km/h
29 14-05-2020 02:20:00 6.2 C 6.03 g/m*3 4.98 C 6.4 km/h
30 14-05-2020 02:25:00 6.3 C 6.07 g/m*3 6.3 C 3.2 km/h
31 14-05-2020 02:30:00 6.4 C 6.04 g/m*3 6.4 C 3.2 km/h
32 14-05-2020 02:35:00 6.5 C 6.07 g/m*3 6.5 C 3.2 km/h
33 14-05-2020 02:40:00 6.5 C 6.07 g/m*3 6.5 C 1.6 km/h
34 14-05-2020 02:45:00 6.4 C 6.04 g/m*3 6.4 C 4.8 km/h
35 14-05-2020 02:50:00 6.4 C 6.04 g/m*3 4.75 C 8.1 km/h
36 14-05-2020 02:55:00 6.4 C 6.04 g/m*3 6.4 C 0 km/h
37 14-05-2020 03:00:00 6.3 C 6 g/m*3 6.3 C 1.6 km/h
38 14-05-2020 03:05:00 6.3 C 6.07 g/m*3 5.1 C 6.4 km/h
39 14-05-2020 03:10:00 6.3 C 6.07 g/m*3 6.3 C 1.6 km/h
40 14-05-2020 03:15:00 6.3 C 6.07 g/m*3 6.3 C 4.8 km/h
41 14-05-2020 03:20:00 6.3 C 6.07 g/m*3 6.3 C 0 km/h
42 14-05-2020 03:25:00 6.3 C 6.07 g/m*3 6.3 C 0 km/h
43 14-05-2020 03:30:00 6.2 C 6.03 g/m*3 6.2 C 3.2 km/h
44 14-05-2020 03:35:00 6.1 C 6.06 g/m*3 6.1 C 1.6 km/h
45 14-05-2020 03:40:00 6.1 C 6.06 g/m*3 6.1 C 1.6 km/h
46 14-05-2020 03:45:00 6.1 C 6.06 g/m*3 6.1 C 0 km/h
47 14-05-2020 03:50:00 6.2 C 6.1 g/m*3 6.2 C 1.6 km/h
48 14-05-2020 03:55:00 6.2 C 6.1 g/m*3 6.2 C 1.6 km/h
49 14-05-2020 04:00:00 6.3 C 6.14 g/m*3 6.3 C 0 km/h
50 14-05-2020 04:05:00 6.3 C 6.07 g/m*3 6.3 C 4.8 km/h
Sensor: Nr:Datum:Temp:Abs-Feuchte:Windchill:Wind:
Aussen-T/F 51 14-05-2020 04:10:00 6.3 C 6.07 g/m*3 6.3 C 1.6 km/h
52 14-05-2020 04:15:00 6.3 C 6.07 g/m*3 6.3 C 1.6 km/h
53 14-05-2020 04:20:00 6.3 C 6.07 g/m*3 6.3 C 1.6 km/h
54 14-05-2020 04:25:00 6.2 C 6.03 g/m*3 6.2 C 4.8 km/h
55 14-05-2020 04:30:00 6.1 C 5.99 g/m*3 6.1 C 0 km/h
56 14-05-2020 04:35:00 5.9 C 5.98 g/m*3 5.9 C 3.2 km/h
57 14-05-2020 04:40:00 5.8 C 5.95 g/m*3 5.8 C 4.8 km/h
58 14-05-2020 04:45:00 5.8 C 5.95 g/m*3 5.8 C 3.2 km/h
59 14-05-2020 04:50:00 5.8 C 5.95 g/m*3 5.8 C 1.6 km/h
60 14-05-2020 04:55:00 5.8 C 5.95 g/m*3 5.8 C 1.6 km/h
61 14-05-2020 05:00:00 5.8 C 5.95 g/m*3 5.8 C 1.6 km/h
62 14-05-2020 05:05:00 5.8 C 5.95 g/m*3 5.8 C 1.6 km/h
63 14-05-2020 05:10:00 5.8 C 5.95 g/m*3 5.8 C 3.2 km/h
64 14-05-2020 05:15:00 5.8 C 5.95 g/m*3 5.8 C 4.8 km/h
65 14-05-2020 05:20:00 5.8 C 5.95 g/m*3 4.52 C 6.4 km/h
66 14-05-2020 05:25:00 5.8 C 5.95 g/m*3 4.52 C 6.4 km/h
67 14-05-2020 05:30:00 5.9 C 5.98 g/m*3 3.8 C 9.7 km/h
68 14-05-2020 05:35:00 5.9 C 5.98 g/m*3 4.63 C 6.4 km/h
69 14-05-2020 05:40:00 5.9 C 5.98 g/m*3 4.63 C 6.4 km/h
70 14-05-2020 05:45:00 6 C 6.02 g/m*3 6 C 4.8 km/h
71 14-05-2020 05:50:00 5.9 C 5.98 g/m*3 4.17 C 8.1 km/h
72 14-05-2020 05:55:00 5.9 C 5.98 g/m*3 5.9 C 4.8 km/h
73 14-05-2020 06:00:00 5.9 C 5.98 g/m*3 4.63 C 6.4 km/h
74 14-05-2020 06:05:00 5.8 C 5.95 g/m*3 5.8 C 1.6 km/h
75 14-05-2020 06:10:00 5.7 C 5.91 g/m*3 5.7 C 0 km/h
Sensor: Nr:Datum:Temp:Abs-Feuchte:Windchill:Wind:
Aussen-T/F 76 14-05-2020 06:15:00 5.4 C 5.79 g/m*3 5.4 C 3.2 km/h
77 14-05-2020 06:20:00 5.2 C 5.78 g/m*3 5.2 C 1.6 km/h
78 14-05-2020 06:25:00 5.1 C 5.81 g/m*3 5.1 C 1.6 km/h
79 14-05-2020 06:30:00 4.8 C 5.7 g/m*3 4.8 C 3.2 km/h
80 14-05-2020 06:35:00 4.7 C 5.73 g/m*3 4.7 C 3.2 km/h
81 14-05-2020 06:40:00 4.6 C 5.76 g/m*3 4.6 C 0 km/h
82 14-05-2020 06:45:00 4.6 C 5.76 g/m*3 4.6 C 0 km/h
83 14-05-2020 06:50:00 4.5 C 5.78 g/m*3 4.5 C 0 km/h
84 14-05-2020 06:55:00 4.4 C 5.75 g/m*3 4.4 C 3.2 km/h
85 14-05-2020 07:00:00 4.4 C 5.75 g/m*3 4.4 C 3.2 km/h
86 14-05-2020 07:05:00 4.4 C 5.81 g/m*3 4.4 C 0 km/h
87 14-05-2020 07:10:00 4.4 C 5.81 g/m*3 4.4 C 0 km/h
88 14-05-2020 07:15:00 4.3 C 5.77 g/m*3 4.3 C 0 km/h
89 14-05-2020 07:20:00 4.3 C 5.77 g/m*3 4.3 C 0 km/h
90 14-05-2020 07:25:00 4.4 C 5.88 g/m*3 4.4 C 0 km/h
91 14-05-2020 07:30:00 4.4 C 5.88 g/m*3 4.4 C 0 km/h
92 14-05-2020 07:35:00 4.5 C 5.92 g/m*3 4.5 C 1.6 km/h
93 14-05-2020 07:40:00 4.7 C 6 g/m*3 4.7 C 4.8 km/h
94 14-05-2020 07:45:00 4.9 C 6.01 g/m*3 3.48 C 6.4 km/h
95 14-05-2020 07:50:00 5.3 C 6.03 g/m*3 3.08 C 9.7 km/h
96 14-05-2020 07:55:00 5.7 C 6.12 g/m*3 2.95 C 12.9 km/h
97 14-05-2020 08:00:00 5.9 C 6.06 g/m*3 3.8 C 9.7 km/h
98 14-05-2020 08:05:00 6.1 C 6.06 g/m*3 4.86 C 6.4 km/h
99 14-05-2020 08:10:00 6.2 C 6.03 g/m*3 4.15 C 9.7 km/h
100 14-05-2020 08:15:00 6.3 C 6.07 g/m*3 3.96 C 11.3 km/h
Sensor: Nr:Datum:Temp:Abs-Feuchte:Windchill:Wind:
Aussen-T/F 101 14-05-2020 08:20:00 6.4 C 6.04 g/m*3 5.21 C 6.4 km/h
102 14-05-2020 08:25:00 6.6 C 6.11 g/m*3 6.6 C 4.8 km/h
103 14-05-2020 08:30:00 6.7 C 6.15 g/m*3 5.56 C 6.4 km/h
104 14-05-2020 08:35:00 6.7 C 6.08 g/m*3 5.56 C 6.4 km/h
105 14-05-2020 08:40:00 6.8 C 6.12 g/m*3 5.67 C 6.4 km/h
106 14-05-2020 08:45:00 7 C 6.12 g/m*3 5.11 C 9.7 km/h
107 14-05-2020 08:50:00 7.1 C 6.16 g/m*3 6.02 C 6.4 km/h
108 14-05-2020 08:55:00 7.2 C 6.2 g/m*3 5.69 C 8.1 km/h
109 14-05-2020 09:00:00 7.3 C 6.08 g/m*3 5.81 C 8.1 km/h
110 14-05-2020 09:05:00 7.4 C 6.12 g/m*3 7.4 C 4.8 km/h
111 14-05-2020 09:10:00 7.5 C 6.16 g/m*3 7.5 C 4.8 km/h
112 14-05-2020 09:15:00 7.6 C 6.12 g/m*3 5.82 C 9.7 km/h
113 14-05-2020 09:20:00 7.7 C 6.08 g/m*3 5.38 C 12.9 km/h
114 14-05-2020 09:25:00 7.8 C 6.12 g/m*3 7.8 C 4.8 km/h
115 14-05-2020 09:30:00 7.8 C 6.12 g/m*3 6.83 C 6.4 km/h
116 14-05-2020 09:35:00 7.8 C 6.04 g/m*3 6.83 C 6.4 km/h
117 14-05-2020 09:40:00 7.9 C 6.08 g/m*3 6.94 C 6.4 km/h
118 14-05-2020 09:45:00 8.1 C 6.07 g/m*3 7.17 C 6.4 km/h
119 14-05-2020 09:50:00 8.1 C 6.07 g/m*3 7.17 C 6.4 km/h
120 14-05-2020 09:55:00 8.3 C 6.15 g/m*3 6.37 C 11.3 km/h
121 14-05-2020 10:00:00 8.3 C 6.07 g/m*3 7.41 C 6.4 km/h
122 14-05-2020 10:05:00 8.4 C 6.02 g/m*3 7.52 C 6.4 km/h
123 14-05-2020 10:10:00 8.4 C 6.11 g/m*3 6.78 C 9.7 km/h
124 14-05-2020 10:15:00 8.7 C 6.05 g/m*3 6.38 C 14.5 km/h
125 14-05-2020 10:20:00 8.8 C 6.09 g/m*3 8.8 C 0 km/h
Sensor: Nr:Datum:Temp:Abs-Feuchte:Windchill:Wind:
Aussen-T/F 126 14-05-2020 10:25:00 8.9 C 6.22 g/m*3 7.09 C 11.3 km/h
127 14-05-2020 10:30:00 9.1 C 6.21 g/m*3 8.33 C 6.4 km/h
128 14-05-2020 10:35:00 9.3 C 6.29 g/m*3 8.56 C 6.4 km/h
129 14-05-2020 10:40:00 9.4 C 6.24 g/m*3 8.28 C 8.1 km/h
130 14-05-2020 10:45:00 9.7 C 6.27 g/m*3 8.63 C 8.1 km/h
131 14-05-2020 10:50:00 9.8 C 6.22 g/m*3 9.14 C 6.4 km/h
132 14-05-2020 10:55:00 10.1 C 6.24 g/m*3 9.48 C 6.4 km/h
133 14-05-2020 11:00:00 10.3 C 6.22 g/m*3 9.34 C 8.1 km/h
134 14-05-2020 11:05:00 10.4 C 6.17 g/m*3 9.83 C 6.4 km/h
135 14-05-2020 11:10:00 10.5 C 6.11 g/m*3 8.8 C 12.9 km/h
136 14-05-2020 11:15:00 10.6 C 6.25 g/m*3 9.14 C 11.3 km/h
137 14-05-2020 11:20:00 10.8 C 6.33 g/m*3 9.16 C 12.9 km/h
138 14-05-2020 11:25:00 10.9 C 6.27 g/m*3 10.04 C 8.1 km/h
139 14-05-2020 11:30:00 10.9 C 6.07 g/m*3 9.76 C 9.7 km/h
140 14-05-2020 11:35:00 11 C 6.21 g/m*3 11 C 4.8 km/h
141 14-05-2020 11:40:00 11 C 6.31 g/m*3 11 C 4.8 km/h
142 14-05-2020 11:45:00 11.3 C 6.32 g/m*3 11.3 C 11.3 km/h
143 14-05-2020 11:50:00 11.4 C 6.26 g/m*3 11.4 C 6.4 km/h
144 14-05-2020 11:55:00 11.6 C 6.34 g/m*3 11.6 C 16.1 km/h
145 14-05-2020 12:00:00 11.7 C 6.28 g/m*3 11.7 C 9.7 km/h
146 14-05-2020 12:05:00 11.8 C 6.31 g/m*3 11.8 C 9.7 km/h
147 14-05-2020 12:10:00 11.8 C 6.21 g/m*3 11.8 C 8.1 km/h
148 14-05-2020 12:15:00 11.9 C 6.35 g/m*3 11.9 C 6.4 km/h
149 14-05-2020 12:20:00 12 C 6.18 g/m*3 12 C 8.1 km/h
150 14-05-2020 12:25:00 12.1 C 6.11 g/m*3 12.1 C 14.5 km/h
Sensor: Nr:Datum:Temp:Abs-Feuchte:Windchill:Wind:
Aussen-T/F 151 14-05-2020 12:30:00 12.2 C 6.15 g/m*3 12.2 C 12.9 km/h
152 14-05-2020 12:35:00 12.3 C 6.08 g/m*3 12.3 C 11.3 km/h
153 14-05-2020 12:40:00 12.3 C 6.08 g/m*3 12.3 C 11.3 km/h
154 14-05-2020 12:45:00 12.5 C 6.27 g/m*3 12.5 C 14.5 km/h
155 14-05-2020 12:50:00 12.8 C 6.05 g/m*3 12.8 C 17.7 km/h
156 14-05-2020 12:55:00 12.9 C 5.97 g/m*3 12.9 C 12.9 km/h
157 14-05-2020 13:00:00 13 C 6.12 g/m*3 13 C 14.5 km/h
158 14-05-2020 13:05:00 13 C 6.12 g/m*3 13 C 8.1 km/h
159 14-05-2020 13:10:00 13.1 C 6.28 g/m*3 13.1 C 9.7 km/h
160 14-05-2020 13:15:00 13.3 C 6.12 g/m*3 13.3 C 14.5 km/h
161 14-05-2020 13:20:00 13.2 C 6.09 g/m*3 13.2 C 14.5 km/h
162 14-05-2020 13:25:00 13.1 C 6.16 g/m*3 13.1 C 8.1 km/h
163 14-05-2020 13:30:00 13.2 C 5.97 g/m*3 13.2 C 11.3 km/h
164 14-05-2020 13:35:00 13.2 C 6.09 g/m*3 13.2 C 12.9 km/h
165 14-05-2020 13:40:00 13.4 C 6.04 g/m*3 13.4 C 11.3 km/h
166 14-05-2020 13:45:00 13.8 C 6.31 g/m*3 13.8 C 14.5 km/h
167 14-05-2020 13:50:00 13.9 C 6.11 g/m*3 13.9 C 9.7 km/h
168 14-05-2020 13:55:00 14 C 6.03 g/m*3 14 C 6.4 km/h
169 14-05-2020 14:00:00 13.9 C 5.99 g/m*3 13.9 C 6.4 km/h
170 14-05-2020 14:05:00 13.8 C 5.96 g/m*3 13.8 C 6.4 km/h
171 14-05-2020 14:10:00 13.8 C 5.96 g/m*3 13.8 C 8.1 km/h
172 14-05-2020 14:15:00 13.8 C 5.84 g/m*3 13.8 C 11.3 km/h
173 14-05-2020 14:20:00 13.9 C 5.75 g/m*3 13.9 C 9.7 km/h
174 14-05-2020 14:25:00 14.1 C 5.83 g/m*3 14.1 C 4.8 km/h
175 14-05-2020 14:30:00 14.2 C 5.98 g/m*3 14.2 C 14.5 km/h
Sensor: Nr:Datum:Temp:Abs-Feuchte:Windchill:Wind:
Aussen-T/F 176 14-05-2020 14:35:00 14.3 C 6.14 g/m*3 14.3 C 6.4 km/h
177 14-05-2020 14:40:00 14.5 C 5.85 g/m*3 14.5 C 11.3 km/h
178 14-05-2020 14:45:00 14.6 C 5.76 g/m*3 14.6 C 6.4 km/h
179 14-05-2020 14:50:00 14.5 C 5.85 g/m*3 14.5 C 6.4 km/h
180 14-05-2020 14:55:00 14.4 C 5.69 g/m*3 14.4 C 11.3 km/h
181 14-05-2020 15:00:00 14.3 C 5.77 g/m*3 14.3 C 8.1 km/h
182 14-05-2020 15:05:00 14.2 C 5.62 g/m*3 14.2 C 6.4 km/h
183 14-05-2020 15:10:00 14.2 C 5.74 g/m*3 14.2 C 6.4 km/h
184 14-05-2020 15:15:00 14.2 C 6.11 g/m*3 14.2 C 4.8 km/h
185 14-05-2020 15:20:00 14.3 C 6.02 g/m*3 14.3 C 4.8 km/h
186 14-05-2020 15:25:00 14.3 C 5.65 g/m*3 14.3 C 12.9 km/h
187 14-05-2020 15:30:00 14.4 C 5.81 g/m*3 14.4 C 9.7 km/h
188 14-05-2020 15:35:00 14.6 C 5.88 g/m*3 14.6 C 9.7 km/h
189 14-05-2020 15:40:00 14.6 C 5.76 g/m*3 14.6 C 11.3 km/h
190 14-05-2020 15:45:00 14.6 C 5.88 g/m*3 14.6 C 6.4 km/h
191 14-05-2020 15:50:00 14.6 C 5.88 g/m*3 14.6 C 8.1 km/h
192 14-05-2020 15:55:00 14.6 C 5.76 g/m*3 14.6 C 9.7 km/h
193 14-05-2020 16:00:00 14.6 C 5.51 g/m*3 14.6 C 12.9 km/h
194 14-05-2020 16:05:00 14.6 C 5.51 g/m*3 14.6 C 9.7 km/h
195 14-05-2020 16:10:00 14.9 C 5.99 g/m*3 14.9 C 11.3 km/h
196 14-05-2020 16:15:00 15.4 C 5.65 g/m*3 15.4 C 9.7 km/h
197 14-05-2020 16:20:00 15.3 C 5.62 g/m*3 15.3 C 17.7 km/h
198 14-05-2020 16:25:00 15.1 C 5.68 g/m*3 15.1 C 9.7 km/h
199 14-05-2020 16:30:00 15.1 C 5.68 g/m*3 15.1 C 11.3 km/h
200 14-05-2020 16:35:00 15.1 C 5.81 g/m*3 15.1 C 11.3 km/h
Sensor: Nr:Datum:Temp:Abs-Feuchte:Windchill:Wind:
Aussen-T/F 201 14-05-2020 16:40:00 14.9 C 5.61 g/m*3 14.9 C 8.1 km/h
202 14-05-2020 16:45:00 14.7 C 5.79 g/m*3 14.7 C 8.1 km/h
203 14-05-2020 16:50:00 14.5 C 5.6 g/m*3 14.5 C 9.7 km/h
204 14-05-2020 16:55:00 14.4 C 5.69 g/m*3 14.4 C 16.1 km/h
205 14-05-2020 17:00:00 14.3 C 5.53 g/m*3 14.3 C 12.9 km/h
206 14-05-2020 17:05:00 14.3 C 5.65 g/m*3 14.3 C 11.3 km/h
207 14-05-2020 17:10:00 14.3 C 5.65 g/m*3 14.3 C 17.7 km/h
208 14-05-2020 17:15:00 14.5 C 5.72 g/m*3 14.5 C 14.5 km/h
209 14-05-2020 17:20:00 14.7 C 5.79 g/m*3 14.7 C 14.5 km/h
210 14-05-2020 17:25:00 14.7 C 5.79 g/m*3 14.7 C 12.9 km/h
211 14-05-2020 17:30:00 14.5 C 5.85 g/m*3 14.5 C 11.3 km/h
212 14-05-2020 17:35:00 14.4 C 5.69 g/m*3 14.4 C 14.5 km/h
213 14-05-2020 17:40:00 14.3 C 5.65 g/m*3 14.3 C 16.1 km/h
214 14-05-2020 17:45:00 14.3 C 5.77 g/m*3 14.3 C 11.3 km/h
215 14-05-2020 17:50:00 14.2 C 5.74 g/m*3 14.2 C 17.7 km/h
216 14-05-2020 17:55:00 14.2 C 5.74 g/m*3 14.2 C 12.9 km/h
217 14-05-2020 18:00:00 14.2 C 5.74 g/m*3 14.2 C 12.9 km/h
218 14-05-2020 18:05:00 14.3 C 5.65 g/m*3 14.3 C 17.7 km/h
219 14-05-2020 18:10:00 14.6 C 5.88 g/m*3 14.6 C 9.7 km/h
220 14-05-2020 18:15:00 15 C 5.64 g/m*3 15 C 16.1 km/h
221 14-05-2020 18:20:00 15 C 5.77 g/m*3 15 C 17.7 km/h
222 14-05-2020 18:25:00 14.9 C 5.74 g/m*3 14.9 C 12.9 km/h
223 14-05-2020 18:30:00 14.7 C 5.79 g/m*3 14.7 C 9.7 km/h
224 14-05-2020 18:35:00 14.7 C 5.67 g/m*3 14.7 C 12.9 km/h
225 14-05-2020 18:40:00 14.9 C 5.74 g/m*3 14.9 C 12.9 km/h
Sensor: Nr:Datum:Temp:Abs-Feuchte:Windchill:Wind:
Aussen-T/F 226 14-05-2020 18:45:00 15.2 C 5.71 g/m*3 15.2 C 11.3 km/h
227 14-05-2020 18:50:00 15.4 C 5.65 g/m*3 15.4 C 8.1 km/h
228 14-05-2020 18:55:00 15.4 C 5.52 g/m*3 15.4 C 17.7 km/h
229 14-05-2020 19:00:00 15.4 C 5.39 g/m*3 15.4 C 14.5 km/h
230 14-05-2020 19:05:00 15.3 C 5.35 g/m*3 15.3 C 12.9 km/h
231 14-05-2020 19:10:00 15.1 C 5.29 g/m*3 15.1 C 9.7 km/h
232 14-05-2020 19:15:00 15.1 C 5.16 g/m*3 15.1 C 4.8 km/h
233 14-05-2020 19:20:00 15.1 C 5.16 g/m*3 15.1 C 8.1 km/h
234 14-05-2020 19:25:00 15 C 5.39 g/m*3 15 C 4.8 km/h
235 14-05-2020 19:30:00 14.9 C 5.74 g/m*3 14.9 C 1.6 km/h
236 14-05-2020 19:35:00 14.8 C 6.08 g/m*3 14.8 C 0 km/h
237 14-05-2020 19:40:00 14.6 C 5.88 g/m*3 14.6 C 3.2 km/h
238 14-05-2020 19:45:00 14.3 C 6.14 g/m*3 14.3 C 0 km/h
239 14-05-2020 19:50:00 14.1 C 6.19 g/m*3 14.1 C 0 km/h
240 14-05-2020 19:55:00 13.8 C 6.31 g/m*3 13.8 C 3.2 km/h
241 14-05-2020 20:00:00 13.6 C 6.36 g/m*3 13.6 C 1.6 km/h
242 14-05-2020 20:05:00 13.2 C 6.32 g/m*3 13.2 C 1.6 km/h
243 14-05-2020 20:10:00 12.9 C 6.2 g/m*3 12.9 C 1.6 km/h
244 14-05-2020 20:15:00 12.6 C 6.31 g/m*3 12.6 C 1.6 km/h
245 14-05-2020 20:20:00 12.3 C 6.19 g/m*3 12.3 C 0 km/h
246 14-05-2020 20:25:00 12 C 6.18 g/m*3 12 C 3.2 km/h
247 14-05-2020 20:30:00 11.7 C 5.96 g/m*3 11.7 C 0 km/h
248 14-05-2020 20:35:00 11.4 C 5.85 g/m*3 11.4 C 0 km/h
249 14-05-2020 20:40:00 11.2 C 5.88 g/m*3 11.2 C 1.6 km/h
250 14-05-2020 20:45:00 10.9 C 5.77 g/m*3 10.9 C 4.8 km/h
Sensor: Nr:Datum:Temp:Abs-Feuchte:Windchill:Wind:
Aussen-T/F 251 14-05-2020 20:50:00 10.7 C 5.89 g/m*3 10.7 C 3.2 km/h
252 14-05-2020 20:55:00 10.5 C 5.82 g/m*3 9.95 C 6.4 km/h
253 14-05-2020 21:00:00 10.3 C 5.84 g/m*3 10.3 C 1.6 km/h
254 14-05-2020 21:05:00 10.1 C 5.86 g/m*3 10.1 C 3.2 km/h
255 14-05-2020 21:10:00 9.8 C 5.75 g/m*3 9.8 C 0 km/h
256 14-05-2020 21:15:00 9.6 C 5.77 g/m*3 9.6 C 4.8 km/h
257 14-05-2020 21:20:00 9.4 C 5.79 g/m*3 9.4 C 3.2 km/h
258 14-05-2020 21:25:00 9.2 C 5.71 g/m*3 9.2 C 3.2 km/h
259 14-05-2020 21:30:00 9 C 5.73 g/m*3 9 C 0 km/h
260 14-05-2020 21:35:00 8.8 C 5.66 g/m*3 8.8 C 1.6 km/h
261 14-05-2020 21:40:00 8.7 C 5.62 g/m*3 8.7 C 3.2 km/h
262 14-05-2020 21:45:00 8.6 C 5.59 g/m*3 8.6 C 3.2 km/h
263 14-05-2020 21:50:00 8.5 C 5.55 g/m*3 8.5 C 4.8 km/h
264 14-05-2020 21:55:00 8.4 C 5.6 g/m*3 8.4 C 3.2 km/h
265 14-05-2020 22:00:00 8.3 C 5.56 g/m*3 8.3 C 3.2 km/h
266 14-05-2020 22:05:00 8.2 C 5.61 g/m*3 8.2 C 4.8 km/h
267 14-05-2020 22:10:00 8.1 C 5.57 g/m*3 8.1 C 4.8 km/h
268 14-05-2020 22:15:00 7.9 C 5.5 g/m*3 7.9 C 3.2 km/h
269 14-05-2020 22:20:00 7.9 C 5.67 g/m*3 7.9 C 1.6 km/h
270 14-05-2020 22:25:00 7.9 C 5.59 g/m*3 7.9 C 1.6 km/h
271 14-05-2020 22:30:00 7.8 C 5.63 g/m*3 7.8 C 3.2 km/h
272 14-05-2020 22:35:00 7.7 C 5.51 g/m*3 7.7 C 1.6 km/h
273 14-05-2020 22:40:00 7.6 C 5.56 g/m*3 7.6 C 4.8 km/h
274 14-05-2020 22:45:00 7.5 C 5.52 g/m*3 7.5 C 3.2 km/h
275 14-05-2020 22:50:00 7.4 C 5.49 g/m*3 7.4 C 4.8 km/h
Sensor: Nr:Datum:Temp:Abs-Feuchte:Windchill:Wind:
Aussen-T/F 276 14-05-2020 22:55:00 7.4 C 5.49 g/m*3 7.4 C 4.8 km/h
277 14-05-2020 23:00:00 7.3 C 5.45 g/m*3 5.81 C 8.1 km/h
278 14-05-2020 23:05:00 7.4 C 5.49 g/m*3 6.37 C 6.4 km/h
279 14-05-2020 23:10:00 7.4 C 5.49 g/m*3 7.4 C 4.8 km/h
280 14-05-2020 23:15:00 7.3 C 5.53 g/m*3 6.25 C 6.4 km/h
281 14-05-2020 23:20:00 7.3 C 5.45 g/m*3 7.3 C 4.8 km/h
282 14-05-2020 23:25:00 7.2 C 5.49 g/m*3 7.2 C 4.8 km/h
283 14-05-2020 23:30:00 7.2 C 5.49 g/m*3 7.2 C 4.8 km/h
284 14-05-2020 23:35:00 7.1 C 5.54 g/m*3 7.1 C 4.8 km/h
285 14-05-2020 23:40:00 6.9 C 5.47 g/m*3 6.9 C 4.8 km/h
286 14-05-2020 23:45:00 6.8 C 5.51 g/m*3 6.8 C 3.2 km/h
287 14-05-2020 23:50:00 6.8 C 5.51 g/m*3 5.67 C 6.4 km/h
288 14-05-2020 23:55:00 6.7 C 5.47 g/m*3 6.7 C 3.2 km/h
289 15-05-2020 00:00:00 6.8 C 5.51 g/m*3 6.8 C 4.8 km/h
290 15-05-2020 00:05:00 6.8 C 5.51 g/m*3 6.8 C 3.2 km/h
291 15-05-2020 00:10:00 6.8 C 5.51 g/m*3 6.8 C 4.8 km/h
292 15-05-2020 00:15:00 6.8 C 5.51 g/m*3 6.8 C 3.2 km/h
293 15-05-2020 00:20:00 6.7 C 5.55 g/m*3 6.7 C 1.6 km/h
294 15-05-2020 00:25:00 6.6 C 5.59 g/m*3 6.6 C 0 km/h
295 15-05-2020 00:30:00 6.3 C 5.48 g/m*3 6.3 C 1.6 km/h
296 15-05-2020 00:35:00 6.1 C 5.48 g/m*3 6.1 C 3.2 km/h
297 15-05-2020 00:40:00 5.9 C 5.48 g/m*3 5.9 C 3.2 km/h
298 15-05-2020 00:45:00 5.8 C 5.44 g/m*3 5.8 C 0 km/h
299 15-05-2020 00:50:00 5.7 C 5.48 g/m*3 5.7 C 3.2 km/h
300 15-05-2020 00:55:00 5.6 C 5.44 g/m*3 5.6 C 4.8 km/h
Sensor: Nr:Datum:Temp:Abs-Feuchte:Windchill:Wind:
Aussen-T/F 301 15-05-2020 01:00:00 5.6 C 5.44 g/m*3 5.6 C 4.8 km/h
302 15-05-2020 01:05:00 5.6 C 5.44 g/m*3 4.29 C 6.4 km/h
303 15-05-2020 01:10:00 5.6 C 5.51 g/m*3 5.6 C 0 km/h
304 15-05-2020 01:15:00 5.5 C 5.48 g/m*3 5.5 C 4.8 km/h
305 15-05-2020 01:20:00 5.5 C 5.41 g/m*3 5.5 C 1.6 km/h
306 15-05-2020 01:25:00 5.4 C 5.44 g/m*3 5.4 C 0 km/h
307 15-05-2020 01:30:00 5.4 C 5.44 g/m*3 5.4 C 4.8 km/h
308 15-05-2020 01:35:00 5.4 C 5.44 g/m*3 5.4 C 3.2 km/h
309 15-05-2020 01:40:00 5.4 C 5.44 g/m*3 5.4 C 4.8 km/h
310 15-05-2020 01:45:00 5.4 C 5.44 g/m*3 5.4 C 4.8 km/h
311 15-05-2020 01:50:00 5.3 C 5.34 g/m*3 5.3 C 3.2 km/h
312 15-05-2020 01:55:00 5.3 C 5.34 g/m*3 3.94 C 6.4 km/h
313 15-05-2020 02:00:00 5.3 C 5.41 g/m*3 3.94 C 6.4 km/h
314 15-05-2020 02:05:00 5.3 C 5.34 g/m*3 3.94 C 6.4 km/h
315 15-05-2020 02:10:00 5.3 C 5.34 g/m*3 5.3 C 4.8 km/h
316 15-05-2020 02:15:00 5.2 C 5.3 g/m*3 3.82 C 6.4 km/h
317 15-05-2020 02:20:00 5.2 C 5.3 g/m*3 3.82 C 6.4 km/h
318 15-05-2020 02:25:00 5.1 C 5.27 g/m*3 3.71 C 6.4 km/h
319 15-05-2020 02:30:00 5.1 C 5.27 g/m*3 3.71 C 6.4 km/h
320 15-05-2020 02:35:00 5.1 C 5.27 g/m*3 5.1 C 4.8 km/h
321 15-05-2020 02:40:00 5.1 C 5.27 g/m*3 5.1 C 4.8 km/h
322 15-05-2020 02:45:00 5 C 5.23 g/m*3 5 C 3.2 km/h
323 15-05-2020 02:50:00 4.9 C 5.27 g/m*3 4.9 C 1.6 km/h
324 15-05-2020 02:55:00 4.9 C 5.27 g/m*3 4.9 C 3.2 km/h
325 15-05-2020 03:00:00 4.8 C 5.23 g/m*3 4.8 C 1.6 km/h
Sensor: Nr:Datum:Temp:Abs-Feuchte:Windchill:Wind:
Aussen-T/F 326 15-05-2020 03:05:00 4.7 C 5.26 g/m*3 4.7 C 1.6 km/h
327 15-05-2020 03:10:00 4.7 C 5.26 g/m*3 4.7 C 0 km/h
328 15-05-2020 03:15:00 4.5 C 5.19 g/m*3 4.5 C 0 km/h
329 15-05-2020 03:20:00 4.4 C 5.22 g/m*3 4.4 C 0 km/h
330 15-05-2020 03:25:00 4.3 C 5.19 g/m*3 4.3 C 0 km/h
331 15-05-2020 03:30:00 4.2 C 5.15 g/m*3 4.2 C 0 km/h
332 15-05-2020 03:35:00 4.1 C 5.18 g/m*3 4.1 C 0 km/h
333 15-05-2020 03:40:00 3.9 C 5.12 g/m*3 3.9 C 0 km/h
334 15-05-2020 03:45:00 3.9 C 5.18 g/m*3 3.9 C 4.8 km/h
335 15-05-2020 03:50:00 3.9 C 5.18 g/m*3 3.9 C 0 km/h
336 15-05-2020 03:55:00 3.8 C 5.14 g/m*3 3.8 C 0 km/h
337 15-05-2020 04:00:00 3.8 C 5.14 g/m*3 3.8 C 0 km/h
338 15-05-2020 04:05:00 3.8 C 5.14 g/m*3 3.8 C 1.6 km/h
339 15-05-2020 04:10:00 3.7 C 5.11 g/m*3 3.7 C 1.6 km/h
340 15-05-2020 04:15:00 3.7 C 5.17 g/m*3 3.7 C 0 km/h
341 15-05-2020 04:20:00 3.7 C 5.17 g/m*3 3.7 C 0 km/h
342 15-05-2020 04:25:00 3.6 C 5.14 g/m*3 3.6 C 0 km/h
343 15-05-2020 04:30:00 3.5 C 5.1 g/m*3 3.5 C 0 km/h
344 15-05-2020 04:35:00 3.4 C 5.07 g/m*3 3.4 C 0 km/h
345 15-05-2020 04:40:00 3.3 C 5.04 g/m*3 3.3 C 0 km/h
346 15-05-2020 04:45:00 3.2 C 5.06 g/m*3 3.2 C 0 km/h
347 15-05-2020 04:50:00 3.1 C 5.03 g/m*3 3.1 C 0 km/h
348 15-05-2020 04:55:00 3 C 4.99 g/m*3 3 C 0 km/h
349 15-05-2020 05:00:00 2.9 C 5.02 g/m*3 2.9 C 0 km/h
350 15-05-2020 05:05:00 2.8 C 4.99 g/m*3 2.8 C 0 km/h
Sensor: Nr:Datum:Temp:Abs-Feuchte:Windchill:Wind:
Aussen-T/F 351 15-05-2020 05:10:00 2.7 C 4.95 g/m*3 2.7 C 0 km/h
352 15-05-2020 05:15:00 2.7 C 5.01 g/m*3 2.7 C 0 km/h
353 15-05-2020 05:20:00 2.6 C 4.98 g/m*3 2.6 C 0 km/h
354 15-05-2020 05:25:00 2.5 C 5 g/m*3 2.5 C 0 km/h
355 15-05-2020 05:30:00 2.4 C 4.97 g/m*3 2.4 C 0 km/h
356 15-05-2020 05:35:00 2.4 C 4.97 g/m*3 2.4 C 0 km/h
357 15-05-2020 05:40:00 2.3 C 4.93 g/m*3 2.3 C 0 km/h
358 15-05-2020 05:45:00 2.3 C 4.99 g/m*3 2.3 C 0 km/h
359 15-05-2020 05:50:00 2.3 C 4.99 g/m*3 2.3 C 0 km/h
360 15-05-2020 05:55:00 2.2 C 4.96 g/m*3 2.2 C 0 km/h
361 15-05-2020 06:00:00 2.2 C 4.96 g/m*3 2.2 C 0 km/h
362 15-05-2020 06:05:00 2.1 C 4.98 g/m*3 2.1 C 0 km/h
363 15-05-2020 06:10:00 2.1 C 4.98 g/m*3 2.1 C 0 km/h
364 15-05-2020 06:15:00 2.1 C 4.98 g/m*3 2.1 C 0 km/h
365 15-05-2020 06:20:00 2.1 C 4.98 g/m*3 2.1 C 0 km/h
366 15-05-2020 06:25:00 2.1 C 4.98 g/m*3 2.1 C 0 km/h
367 15-05-2020 06:30:00 2.1 C 5.04 g/m*3 2.1 C 0 km/h
368 15-05-2020 06:35:00 2.1 C 5.04 g/m*3 2.1 C 0 km/h
369 15-05-2020 06:40:00 2.2 C 5.07 g/m*3 2.2 C 0 km/h
370 15-05-2020 06:45:00 2.2 C 5.07 g/m*3 2.2 C 0 km/h
371 15-05-2020 06:50:00 2.2 C 5.07 g/m*3 2.2 C 0 km/h
372 15-05-2020 06:55:00 2.3 C 5.16 g/m*3 2.3 C 0 km/h
373 15-05-2020 07:00:00 2.3 C 5.16 g/m*3 2.3 C 0 km/h
374 15-05-2020 07:05:00 2.5 C 5.23 g/m*3 2.5 C 3.2 km/h
375 15-05-2020 07:10:00 2.7 C 5.3 g/m*3 2.7 C 1.6 km/h
Sensor: Nr:Datum:Temp:Abs-Feuchte:Windchill:Wind:
Aussen-T/F 376 15-05-2020 07:15:00 2.8 C 5.34 g/m*3 2.8 C 0 km/h
377 15-05-2020 07:20:00 2.9 C 5.32 g/m*3 2.9 C 0 km/h
378 15-05-2020 07:25:00 3.1 C 5.39 g/m*3 3.1 C 0 km/h
379 15-05-2020 07:30:00 3.2 C 5.42 g/m*3 3.2 C 0 km/h
380 15-05-2020 07:35:00 3.4 C 5.5 g/m*3 3.4 C 0 km/h
381 15-05-2020 07:40:00 3.6 C 5.51 g/m*3 3.6 C 0 km/h
382 15-05-2020 07:45:00 3.7 C 5.55 g/m*3 3.7 C 3.2 km/h
383 15-05-2020 07:50:00 3.8 C 5.52 g/m*3 3.8 C 3.2 km/h
384 15-05-2020 07:55:00 3.9 C 5.56 g/m*3 3.9 C 3.2 km/h
385 15-05-2020 08:00:00 4.1 C 5.63 g/m*3 4.1 C 0 km/h
386 15-05-2020 08:05:00 4.2 C 5.67 g/m*3 4.2 C 4.8 km/h
387 15-05-2020 08:10:00 4.3 C 5.64 g/m*3 4.3 C 1.6 km/h
388 15-05-2020 08:15:00 4.4 C 5.68 g/m*3 4.4 C 4.8 km/h
389 15-05-2020 08:20:00 4.6 C 5.69 g/m*3 4.6 C 1.6 km/h
390 15-05-2020 08:25:00 4.8 C 5.77 g/m*3 4.8 C 3.2 km/h
391 15-05-2020 08:30:00 4.9 C 5.81 g/m*3 4.9 C 0 km/h
392 15-05-2020 08:35:00 5.1 C 5.88 g/m*3 5.1 C 4.8 km/h
393 15-05-2020 08:40:00 5.3 C 5.82 g/m*3 5.3 C 3.2 km/h
394 15-05-2020 08:45:00 5.7 C 5.91 g/m*3 5.7 C 0 km/h
395 15-05-2020 08:50:00 5.8 C 6.02 g/m*3 5.8 C 0 km/h
396 15-05-2020 08:55:00 5.9 C 5.98 g/m*3 4.63 C 6.4 km/h
397 15-05-2020 09:00:00 6.1 C 5.92 g/m*3 6.1 C 3.2 km/h
398 15-05-2020 09:05:00 6.3 C 6 g/m*3 6.3 C 4.8 km/h
399 15-05-2020 09:10:00 6.5 C 6 g/m*3 6.5 C 1.6 km/h
400 15-05-2020 09:15:00 6.7 C 6.08 g/m*3 5.56 C 6.4 km/h
Sensor: Nr:Datum:Temp:Abs-Feuchte:Windchill:Wind:
Aussen-T/F 401 15-05-2020 09:20:00 7.1 C 6.08 g/m*3 7.1 C 4.8 km/h
402 15-05-2020 09:25:00 7.2 C 6.12 g/m*3 7.2 C 1.6 km/h
403 15-05-2020 09:30:00 7.3 C 6.08 g/m*3 7.3 C 4.8 km/h
404 15-05-2020 09:35:00 7.7 C 6 g/m*3 6.28 C 8.1 km/h
405 15-05-2020 09:40:00 8.1 C 5.91 g/m*3 6.75 C 8.1 km/h
406 15-05-2020 09:45:00 8.5 C 5.98 g/m*3 8.5 C 4.8 km/h
407 15-05-2020 09:50:00 8.9 C 5.96 g/m*3 8.1 C 6.4 km/h
408 15-05-2020 09:55:00 9.2 C 5.98 g/m*3 8.45 C 6.4 km/h
409 15-05-2020 10:00:00 9.3 C 6.02 g/m*3 9.3 C 1.6 km/h
410 15-05-2020 10:05:00 9.4 C 6.06 g/m*3 9.4 C 3.2 km/h
411 15-05-2020 10:10:00 9.6 C 5.95 g/m*3 8.91 C 6.4 km/h
412 15-05-2020 10:15:00 9.9 C 5.98 g/m*3 9.25 C 6.4 km/h
413 15-05-2020 10:20:00 10.2 C 5.9 g/m*3 10.2 C 4.8 km/h
414 15-05-2020 10:25:00 10.4 C 5.98 g/m*3 9.16 C 9.7 km/h
415 15-05-2020 10:30:00 10.7 C 6.19 g/m*3 9.52 C 9.7 km/h
416 15-05-2020 10:35:00 10.9 C 6.07 g/m*3 10.41 C 6.4 km/h
417 15-05-2020 10:40:00 11.1 C 6.04 g/m*3 11.1 C 9.7 km/h
418 15-05-2020 10:45:00 11.4 C 6.06 g/m*3 11.4 C 8.1 km/h
419 15-05-2020 10:50:00 11.6 C 6.24 g/m*3 11.6 C 3.2 km/h
420 15-05-2020 10:55:00 11.7 C 6.17 g/m*3 11.7 C 3.2 km/h
421 15-05-2020 11:00:00 12 C 6.39 g/m*3 12 C 4.8 km/h
422 15-05-2020 11:05:00 12.2 C 6.15 g/m*3 12.2 C 9.7 km/h
423 15-05-2020 11:10:00 12.5 C 6.16 g/m*3 12.5 C 12.9 km/h
424 15-05-2020 11:15:00 12.6 C 6.08 g/m*3 12.6 C 6.4 km/h
425 15-05-2020 11:20:00 12.6 C 6.2 g/m*3 12.6 C 6.4 km/h
Sensor: Nr:Datum:Temp:Abs-Feuchte:Windchill:Wind:
Aussen-T/F 426 15-05-2020 11:25:00 12.8 C 5.94 g/m*3 12.8 C 6.4 km/h
427 15-05-2020 11:30:00 12.9 C 5.97 g/m*3 12.9 C 6.4 km/h
428 15-05-2020 11:35:00 13.1 C 5.93 g/m*3 13.1 C 4.8 km/h
429 15-05-2020 11:40:00 13.3 C 5.78 g/m*3 13.3 C 14.5 km/h
430 15-05-2020 11:45:00 13.4 C 5.7 g/m*3 13.4 C 14.5 km/h
431 15-05-2020 11:50:00 13.6 C 5.65 g/m*3 13.6 C 9.7 km/h
432 15-05-2020 11:55:00 13.6 C 5.53 g/m*3 13.6 C 12.9 km/h
433 15-05-2020 12:00:00 13.7 C 5.45 g/m*3 13.7 C 19.3 km/h
434 15-05-2020 12:05:00 13.8 C 5.6 g/m*3 13.8 C 19.3 km/h
435 15-05-2020 12:10:00 13.8 C 5.6 g/m*3 13.8 C 8.1 km/h
436 15-05-2020 12:15:00 13.9 C 5.51 g/m*3 13.9 C 14.5 km/h
437 15-05-2020 12:20:00 14 C 5.55 g/m*3 14 C 12.9 km/h
438 15-05-2020 12:25:00 14.1 C 5.46 g/m*3 14.1 C 17.7 km/h
439 15-05-2020 12:30:00 14.2 C 5.49 g/m*3 14.2 C 14.5 km/h
440 15-05-2020 12:35:00 14.3 C 5.41 g/m*3 14.3 C 12.9 km/h
441 15-05-2020 12:40:00 14.2 C 5.37 g/m*3 14.2 C 6.4 km/h
442 15-05-2020 12:45:00 14.3 C 5.41 g/m*3 14.3 C 14.5 km/h
443 15-05-2020 12:50:00 14.4 C 5.44 g/m*3 14.4 C 11.3 km/h
444 15-05-2020 12:55:00 14.5 C 5.22 g/m*3 14.5 C 14.5 km/h
445 15-05-2020 13:00:00 14.6 C 5.38 g/m*3 14.6 C 9.7 km/h
446 15-05-2020 13:05:00 14.7 C 5.41 g/m*3 14.7 C 14.5 km/h
447 15-05-2020 13:10:00 14.8 C 5.57 g/m*3 14.8 C 9.7 km/h
448 15-05-2020 13:15:00 14.8 C 5.57 g/m*3 14.8 C 11.3 km/h
449 15-05-2020 13:20:00 14.9 C 5.74 g/m*3 14.9 C 11.3 km/h
450 15-05-2020 13:25:00 14.9 C 5.61 g/m*3 14.9 C 11.3 km/h
Sensor: Nr:Datum:Temp:Abs-Feuchte:Windchill:Wind:
Aussen-T/F 451 15-05-2020 13:30:00 14.8 C 5.7 g/m*3 14.8 C 6.4 km/h
452 15-05-2020 13:35:00 14.8 C 5.83 g/m*3 14.8 C 6.4 km/h
453 15-05-2020 13:40:00 14.9 C 5.99 g/m*3 14.9 C 9.7 km/h
454 15-05-2020 13:45:00 15.1 C 5.68 g/m*3 15.1 C 14.5 km/h
455 15-05-2020 13:50:00 15.3 C 6.01 g/m*3 15.3 C 11.3 km/h
456 15-05-2020 13:55:00 15.4 C 5.78 g/m*3 15.4 C 14.5 km/h
457 15-05-2020 14:00:00 15.4 C 5.78 g/m*3 15.4 C 12.9 km/h
458 15-05-2020 14:05:00 15.5 C 5.82 g/m*3 15.5 C 6.4 km/h
459 15-05-2020 14:10:00 15.5 C 5.82 g/m*3 15.5 C 11.3 km/h
460 15-05-2020 14:15:00 15.7 C 5.75 g/m*3 15.7 C 12.9 km/h
461 15-05-2020 14:20:00 15.9 C 5.82 g/m*3 15.9 C 9.7 km/h
462 15-05-2020 14:25:00 16 C 5.86 g/m*3 16 C 11.3 km/h
463 15-05-2020 14:30:00 16.2 C 5.93 g/m*3 16.2 C 9.7 km/h
464 15-05-2020 14:35:00 16.2 C 5.79 g/m*3 16.2 C 9.7 km/h
465 15-05-2020 14:40:00 16.3 C 5.97 g/m*3 16.3 C 12.9 km/h
466 15-05-2020 14:45:00 16.4 C 5.72 g/m*3 16.4 C 12.9 km/h
467 15-05-2020 14:50:00 16.4 C 5.86 g/m*3 16.4 C 8.1 km/h
468 15-05-2020 14:55:00 16.6 C 6.07 g/m*3 16.6 C 11.3 km/h
469 15-05-2020 15:00:00 16.8 C 5.86 g/m*3 16.8 C 12.9 km/h
470 15-05-2020 15:05:00 16.9 C 5.75 g/m*3 16.9 C 11.3 km/h
471 15-05-2020 15:10:00 17.1 C 5.68 g/m*3 17.1 C 12.9 km/h
472 15-05-2020 15:15:00 17.3 C 5.75 g/m*3 17.3 C 11.3 km/h
473 15-05-2020 15:20:00 17.4 C 5.63 g/m*3 17.4 C 12.9 km/h
474 15-05-2020 15:25:00 17.6 C 6 g/m*3 17.6 C 14.5 km/h
475 15-05-2020 15:30:00 18 C 5.84 g/m*3 18 C 14.5 km/h
Sensor: Nr:Datum:Temp:Abs-Feuchte:Windchill:Wind:
Aussen-T/F 476 15-05-2020 15:35:00 18.1 C 5.72 g/m*3 18.1 C 12.9 km/h
477 15-05-2020 15:40:00 18.3 C 5.94 g/m*3 18.3 C 12.9 km/h
478 15-05-2020 15:45:00 18.4 C 5.66 g/m*3 18.4 C 16.1 km/h
479 15-05-2020 15:50:00 18.7 C 5.76 g/m*3 18.7 C 6.4 km/h
480 15-05-2020 15:55:00 18.7 C 5.76 g/m*3 18.7 C 17.7 km/h
481 15-05-2020 16:00:00 18.6 C 5.73 g/m*3 18.6 C 12.9 km/h
482 15-05-2020 16:05:00 18.5 C 5.85 g/m*3 18.5 C 9.7 km/h
483 15-05-2020 16:10:00 18.6 C 5.89 g/m*3 18.6 C 16.1 km/h
484 15-05-2020 16:15:00 18.7 C 5.76 g/m*3 18.7 C 12.9 km/h
485 15-05-2020 16:20:00 18.8 C 5.64 g/m*3 18.8 C 12.9 km/h
486 15-05-2020 16:25:00 18.7 C 5.6 g/m*3 18.7 C 17.7 km/h
487 15-05-2020 16:30:00 18.3 C 5.47 g/m*3 18.3 C 11.3 km/h
488 15-05-2020 16:35:00 18.3 C 5.63 g/m*3 18.3 C 17.7 km/h
489 15-05-2020 16:40:00 18.3 C 5.47 g/m*3 18.3 C 19.3 km/h
490 15-05-2020 16:45:00 18.4 C 5.66 g/m*3 18.4 C 9.7 km/h
491 15-05-2020 16:50:00 18.6 C 5.57 g/m*3 18.6 C 12.9 km/h
492 15-05-2020 16:55:00 18.5 C 5.38 g/m*3 18.5 C 17.7 km/h
493 15-05-2020 17:00:00 18.4 C 5.35 g/m*3 18.4 C 14.5 km/h
494 15-05-2020 17:05:00 18.4 C 5.35 g/m*3 18.4 C 16.1 km/h
495 15-05-2020 17:10:00 18.3 C 5.16 g/m*3 18.3 C 11.3 km/h
496 15-05-2020 17:15:00 18.2 C 5.44 g/m*3 18.2 C 9.7 km/h
497 15-05-2020 17:20:00 18.4 C 5.35 g/m*3 18.4 C 16.1 km/h
498 15-05-2020 17:25:00 18.8 C 5.31 g/m*3 18.8 C 11.3 km/h
499 15-05-2020 17:30:00 18.8 C 5.31 g/m*3 18.8 C 9.7 km/h
500 15-05-2020 17:35:00 18.8 C 5.48 g/m*3 18.8 C 8.1 km/h
Sensor: Nr:Datum:Temp:Abs-Feuchte:Windchill:Wind:
Aussen-T/F 501 15-05-2020 17:40:00 19 C 5.38 g/m*3 19 C 9.7 km/h
502 15-05-2020 17:45:00 18.8 C 5.48 g/m*3 18.8 C 9.7 km/h
503 15-05-2020 17:50:00 18.4 C 5.35 g/m*3 18.4 C 14.5 km/h
504 15-05-2020 17:55:00 18.3 C 5.16 g/m*3 18.3 C 11.3 km/h
505 15-05-2020 18:00:00 18.2 C 5.28 g/m*3 18.2 C 14.5 km/h
506 15-05-2020 18:05:00 18.1 C 5.41 g/m*3 18.1 C 11.3 km/h
507 15-05-2020 18:10:00 18.1 C 5.41 g/m*3 18.1 C 12.9 km/h
508 15-05-2020 18:15:00 18 C 5.22 g/m*3 18 C 12.9 km/h
509 15-05-2020 18:20:00 17.9 C 5.34 g/m*3 17.9 C 11.3 km/h
510 15-05-2020 18:25:00 17.9 C 5.34 g/m*3 17.9 C 9.7 km/h
511 15-05-2020 18:30:00 18 C 5.22 g/m*3 18 C 11.3 km/h
512 15-05-2020 18:35:00 18.1 C 5.1 g/m*3 18.1 C 12.9 km/h
513 15-05-2020 18:40:00 18.1 C 5.1 g/m*3 18.1 C 11.3 km/h
514 15-05-2020 18:45:00 18.3 C 5.32 g/m*3 18.3 C 8.1 km/h
515 15-05-2020 18:50:00 18.2 C 5.13 g/m*3 18.2 C 11.3 km/h
516 15-05-2020 18:55:00 17.8 C 5.16 g/m*3 17.8 C 11.3 km/h
517 15-05-2020 19:00:00 17.8 C 5.16 g/m*3 17.8 C 9.7 km/h
518 15-05-2020 19:05:00 17.8 C 5.16 g/m*3 17.8 C 9.7 km/h
519 15-05-2020 19:10:00 17.8 C 5.01 g/m*3 17.8 C 9.7 km/h
520 15-05-2020 19:15:00 17.8 C 5.16 g/m*3 17.8 C 12.9 km/h
521 15-05-2020 19:20:00 17.7 C 5.13 g/m*3 17.7 C 6.4 km/h
522 15-05-2020 19:25:00 17.6 C 4.95 g/m*3 17.6 C 11.3 km/h
523 15-05-2020 19:30:00 17.4 C 4.89 g/m*3 17.4 C 9.7 km/h
524 15-05-2020 19:35:00 17.2 C 4.98 g/m*3 17.2 C 11.3 km/h
525 15-05-2020 19:40:00 17.1 C 5.09 g/m*3 17.1 C 9.7 km/h
Sensor: Nr:Datum:Temp:Abs-Feuchte:Windchill:Wind:
Aussen-T/F 526 15-05-2020 19:45:00 16.9 C 4.89 g/m*3 16.9 C 9.7 km/h
527 15-05-2020 19:50:00 16.7 C 4.97 g/m*3 16.7 C 9.7 km/h
528 15-05-2020 19:55:00 16.5 C 4.91 g/m*3 16.5 C 8.1 km/h
529 15-05-2020 20:00:00 16.4 C 5.02 g/m*3 16.4 C 8.1 km/h
530 15-05-2020 20:05:00 16.3 C 5.13 g/m*3 16.3 C 4.8 km/h
531 15-05-2020 20:10:00 16.3 C 4.99 g/m*3 16.3 C 6.4 km/h
532 15-05-2020 20:15:00 16.2 C 5.24 g/m*3 16.2 C 6.4 km/h
533 15-05-2020 20:20:00 16.1 C 5.07 g/m*3 16.1 C 6.4 km/h
534 15-05-2020 20:25:00 15.9 C 5.01 g/m*3 15.9 C 6.4 km/h
535 15-05-2020 20:30:00 15.7 C 5.08 g/m*3 15.7 C 4.8 km/h
536 15-05-2020 20:35:00 15.5 C 5.02 g/m*3 15.5 C 4.8 km/h
537 15-05-2020 20:40:00 15.3 C 5.09 g/m*3 15.3 C 1.6 km/h
538 15-05-2020 20:45:00 15.1 C 5.03 g/m*3 15.1 C 3.2 km/h
539 15-05-2020 20:50:00 14.9 C 5.61 g/m*3 14.9 C 1.6 km/h
540 15-05-2020 20:55:00 14.7 C 5.54 g/m*3 14.7 C 1.6 km/h
541 15-05-2020 21:00:00 14.3 C 5.77 g/m*3 14.3 C 3.2 km/h
542 15-05-2020 21:05:00 13.8 C 5.6 g/m*3 13.8 C 1.6 km/h
543 15-05-2020 21:10:00 13.3 C 5.55 g/m*3 13.3 C 1.6 km/h
544 15-05-2020 21:15:00 13 C 5.67 g/m*3 13 C 3.2 km/h
545 15-05-2020 21:20:00 12.6 C 5.64 g/m*3 12.6 C 4.8 km/h
546 15-05-2020 21:25:00 12.1 C 5.68 g/m*3 12.1 C 3.2 km/h
547 15-05-2020 21:30:00 11.7 C 5.65 g/m*3 11.7 C 4.8 km/h
548 15-05-2020 21:35:00 11.3 C 5.51 g/m*3 11.3 C 3.2 km/h
549 15-05-2020 21:40:00 11 C 5.51 g/m*3 11 C 4.8 km/h
550 15-05-2020 21:45:00 10.8 C 5.63 g/m*3 10.8 C 4.8 km/h
Sensor: Nr:Datum:Temp:Abs-Feuchte:Windchill:Wind:
Aussen-T/F 551 15-05-2020 21:50:00 10.6 C 5.56 g/m*3 10.06 C 6.4 km/h
552 15-05-2020 21:55:00 10.9 C 5.47 g/m*3 10.04 C 8.1 km/h
553 15-05-2020 22:00:00 11.3 C 5.81 g/m*3 11.3 C 4.8 km/h
554 15-05-2020 22:05:00 11.2 C 5.78 g/m*3 11.2 C 3.2 km/h
555 15-05-2020 22:10:00 10.9 C 5.77 g/m*3 10.9 C 3.2 km/h
556 15-05-2020 22:15:00 10.7 C 5.8 g/m*3 10.7 C 4.8 km/h
557 15-05-2020 22:20:00 10.3 C 5.75 g/m*3 10.3 C 1.6 km/h
558 15-05-2020 22:25:00 10.1 C 5.86 g/m*3 10.1 C 4.8 km/h
559 15-05-2020 22:30:00 9.8 C 5.85 g/m*3 9.8 C 1.6 km/h
560 15-05-2020 22:35:00 9.7 C 5.9 g/m*3 9.7 C 3.2 km/h
561 15-05-2020 22:40:00 9.5 C 5.92 g/m*3 9.5 C 3.2 km/h
562 15-05-2020 22:45:00 9.3 C 5.84 g/m*3 9.3 C 4.8 km/h
563 15-05-2020 22:50:00 9.3 C 5.93 g/m*3 9.3 C 1.6 km/h
564 15-05-2020 22:55:00 9.2 C 5.89 g/m*3 9.2 C 1.6 km/h
565 15-05-2020 23:00:00 9.1 C 5.94 g/m*3 9.1 C 3.2 km/h
566 15-05-2020 23:05:00 9 C 5.91 g/m*3 9 C 4.8 km/h
567 15-05-2020 23:10:00 8.9 C 5.87 g/m*3 8.9 C 3.2 km/h
568 15-05-2020 23:15:00 8.9 C 5.87 g/m*3 8.9 C 1.6 km/h
569 15-05-2020 23:20:00 8.9 C 5.87 g/m*3 8.9 C 3.2 km/h
570 15-05-2020 23:25:00 9.1 C 5.94 g/m*3 9.1 C 3.2 km/h
571 15-05-2020 23:30:00 9.2 C 5.98 g/m*3 9.2 C 0 km/h
572 15-05-2020 23:35:00 9.1 C 5.86 g/m*3 9.1 C 0 km/h
573 15-05-2020 23:40:00 8.9 C 5.87 g/m*3 8.9 C 1.6 km/h
574 15-05-2020 23:45:00 8.8 C 5.83 g/m*3 8.8 C 0 km/h
575 15-05-2020 23:50:00 8.6 C 5.84 g/m*3 8.6 C 3.2 km/h
Sensor: Nr:Datum:Temp:Abs-Feuchte:Windchill:Wind:
Aussen-T/F 576 15-05-2020 23:55:00 8.4 C 5.77 g/m*3 8.4 C 0 km/h
577 16-05-2020 00:00:00 8.2 C 5.69 g/m*3 8.2 C 3.2 km/h
578 16-05-2020 00:05:00 8.1 C 5.74 g/m*3 8.1 C 4.8 km/h
579 16-05-2020 00:10:00 8.1 C 5.74 g/m*3 8.1 C 3.2 km/h
580 16-05-2020 00:15:00 7.9 C 5.67 g/m*3 7.9 C 3.2 km/h
581 16-05-2020 00:20:00 7.9 C 5.67 g/m*3 7.9 C 3.2 km/h
582 16-05-2020 00:25:00 7.8 C 5.71 g/m*3 7.8 C 3.2 km/h
583 16-05-2020 00:30:00 7.7 C 5.68 g/m*3 7.7 C 3.2 km/h
584 16-05-2020 00:35:00 7.7 C 5.68 g/m*3 7.7 C 1.6 km/h
585 16-05-2020 00:40:00 7.6 C 5.72 g/m*3 7.6 C 3.2 km/h
586 16-05-2020 00:45:00 7.5 C 5.68 g/m*3 7.5 C 3.2 km/h
587 16-05-2020 00:50:00 7.4 C 5.73 g/m*3 7.4 C 3.2 km/h
588 16-05-2020 00:55:00 7.3 C 5.69 g/m*3 7.3 C 1.6 km/h
589 16-05-2020 01:00:00 7.1 C 5.69 g/m*3 7.1 C 1.6 km/h
590 16-05-2020 01:05:00 6.9 C 5.7 g/m*3 6.9 C 0 km/h
591 16-05-2020 01:10:00 6.8 C 5.74 g/m*3 6.8 C 0 km/h
592 16-05-2020 01:15:00 6.7 C 5.7 g/m*3 6.7 C 0 km/h
593 16-05-2020 01:20:00 6.5 C 5.7 g/m*3 6.5 C 0 km/h
594 16-05-2020 01:25:00 6.3 C 5.7 g/m*3 6.3 C 0 km/h
595 16-05-2020 01:30:00 6.2 C 5.66 g/m*3 6.2 C 0 km/h
596 16-05-2020 01:35:00 5.9 C 5.62 g/m*3 5.9 C 0 km/h
597 16-05-2020 01:40:00 5.8 C 5.59 g/m*3 5.8 C 0 km/h
598 16-05-2020 01:45:00 5.6 C 5.59 g/m*3 5.6 C 0 km/h
599 16-05-2020 01:50:00 5.5 C 5.55 g/m*3 5.5 C 0 km/h
600 16-05-2020 01:55:00 5.3 C 5.54 g/m*3 5.3 C 0 km/h
Sensor: Nr:Datum:Temp:Abs-Feuchte:Windchill:Wind:
Aussen-T/F 601 16-05-2020 02:00:00 5.3 C 5.54 g/m*3 5.3 C 0 km/h
602 16-05-2020 02:05:00 5.2 C 5.51 g/m*3 5.2 C 0 km/h
603 16-05-2020 02:10:00 5.1 C 5.54 g/m*3 5.1 C 0 km/h
604 16-05-2020 02:15:00 5 C 5.5 g/m*3 5 C 0 km/h
605 16-05-2020 02:20:00 4.9 C 5.47 g/m*3 4.9 C 0 km/h
606 16-05-2020 02:25:00 4.8 C 5.5 g/m*3 4.8 C 0 km/h
607 16-05-2020 02:30:00 4.7 C 5.46 g/m*3 4.7 C 0 km/h
608 16-05-2020 02:35:00 4.7 C 5.53 g/m*3 4.7 C 0 km/h
609 16-05-2020 02:40:00 4.6 C 5.49 g/m*3 4.6 C 0 km/h
610 16-05-2020 02:45:00 4.5 C 5.46 g/m*3 4.5 C 0 km/h
611 16-05-2020 02:50:00 4.4 C 5.48 g/m*3 4.4 C 0 km/h
612 16-05-2020 02:55:00 4.4 C 5.48 g/m*3 4.4 C 0 km/h
613 16-05-2020 03:00:00 4.3 C 5.45 g/m*3 4.3 C 0 km/h
614 16-05-2020 03:05:00 4.3 C 5.45 g/m*3 4.3 C 0 km/h
615 16-05-2020 03:10:00 4.2 C 5.41 g/m*3 4.2 C 0 km/h
616 16-05-2020 03:15:00 4.2 C 5.48 g/m*3 4.2 C 0 km/h
617 16-05-2020 03:20:00 4.1 C 5.44 g/m*3 4.1 C 0 km/h
618 16-05-2020 03:25:00 4 C 5.4 g/m*3 4 C 0 km/h
619 16-05-2020 03:30:00 3.9 C 5.43 g/m*3 3.9 C 0 km/h
620 16-05-2020 03:35:00 3.9 C 5.43 g/m*3 3.9 C 0 km/h
621 16-05-2020 03:40:00 3.8 C 5.4 g/m*3 3.8 C 0 km/h
622 16-05-2020 03:45:00 3.8 C 5.4 g/m*3 3.8 C 0 km/h
623 16-05-2020 03:50:00 3.8 C 5.4 g/m*3 3.8 C 0 km/h
624 16-05-2020 03:55:00 3.7 C 5.42 g/m*3 3.7 C 0 km/h
625 16-05-2020 04:00:00 3.7 C 5.36 g/m*3 3.7 C 0 km/h
Sensor: Nr:Datum:Temp:Abs-Feuchte:Windchill:Wind:
Aussen-T/F 626 16-05-2020 04:05:00 3.6 C 5.39 g/m*3 3.6 C 0 km/h
627 16-05-2020 04:10:00 3.6 C 5.39 g/m*3 3.6 C 0 km/h
628 16-05-2020 04:15:00 3.5 C 5.35 g/m*3 3.5 C 0 km/h
629 16-05-2020 04:20:00 3.4 C 5.31 g/m*3 3.4 C 0 km/h
630 16-05-2020 04:25:00 3.4 C 5.37 g/m*3 3.4 C 0 km/h
631 16-05-2020 04:30:00 3.3 C 5.34 g/m*3 3.3 C 0 km/h
632 16-05-2020 04:35:00 3.3 C 5.34 g/m*3 3.3 C 0 km/h
633 16-05-2020 04:40:00 3.2 C 5.3 g/m*3 3.2 C 0 km/h
634 16-05-2020 04:45:00 3.2 C 5.36 g/m*3 3.2 C 0 km/h
635 16-05-2020 04:50:00 3.2 C 5.36 g/m*3 3.2 C 0 km/h
636 16-05-2020 04:55:00 3.1 C 5.33 g/m*3 3.1 C 0 km/h
637 16-05-2020 05:00:00 3.1 C 5.33 g/m*3 3.1 C 0 km/h
638 16-05-2020 05:05:00 3.1 C 5.33 g/m*3 3.1 C 0 km/h
639 16-05-2020 05:10:00 3 C 5.29 g/m*3 3 C 0 km/h
640 16-05-2020 05:15:00 3 C 5.29 g/m*3 3 C 0 km/h
641 16-05-2020 05:20:00 2.9 C 5.32 g/m*3 2.9 C 0 km/h
642 16-05-2020 05:25:00 2.9 C 5.32 g/m*3 2.9 C 0 km/h
643 16-05-2020 05:30:00 2.8 C 5.28 g/m*3 2.8 C 0 km/h
644 16-05-2020 05:35:00 2.8 C 5.28 g/m*3 2.8 C 1.6 km/h
645 16-05-2020 05:40:00 2.8 C 5.28 g/m*3 2.8 C 0 km/h
646 16-05-2020 05:45:00 2.7 C 5.24 g/m*3 2.7 C 0 km/h
647 16-05-2020 05:50:00 2.7 C 5.24 g/m*3 2.7 C 0 km/h
648 16-05-2020 05:55:00 2.6 C 5.21 g/m*3 2.6 C 0 km/h
649 16-05-2020 06:00:00 2.6 C 5.21 g/m*3 2.6 C 0 km/h
650 16-05-2020 06:05:00 2.6 C 5.27 g/m*3 2.6 C 0 km/h
Sensor: Nr:Datum:Temp:Abs-Feuchte:Windchill:Wind:
Aussen-T/F 651 16-05-2020 06:10:00 2.6 C 5.27 g/m*3 2.6 C 0 km/h
652 16-05-2020 06:15:00 2.6 C 5.27 g/m*3 2.6 C 0 km/h
653 16-05-2020 06:20:00 2.6 C 5.27 g/m*3 2.6 C 0 km/h
654 16-05-2020 06:25:00 2.6 C 5.27 g/m*3 2.6 C 0 km/h
655 16-05-2020 06:30:00 2.6 C 5.27 g/m*3 2.6 C 0 km/h
656 16-05-2020 06:35:00 2.6 C 5.27 g/m*3 2.6 C 0 km/h
657 16-05-2020 06:40:00 2.6 C 5.27 g/m*3 2.6 C 0 km/h
658 16-05-2020 06:45:00 2.6 C 5.27 g/m*3 2.6 C 0 km/h
659 16-05-2020 06:50:00 2.6 C 5.27 g/m*3 2.6 C 0 km/h
660 16-05-2020 06:55:00 2.6 C 5.32 g/m*3 2.6 C 0 km/h
661 16-05-2020 07:00:00 2.7 C 5.36 g/m*3 2.7 C 0 km/h
662 16-05-2020 07:05:00 2.7 C 5.36 g/m*3 2.7 C 0 km/h
663 16-05-2020 07:10:00 2.7 C 5.36 g/m*3 2.7 C 0 km/h
664 16-05-2020 07:15:00 2.8 C 5.4 g/m*3 2.8 C 0 km/h
665 16-05-2020 07:20:00 2.8 C 5.4 g/m*3 2.8 C 0 km/h
666 16-05-2020 07:25:00 2.9 C 5.43 g/m*3 2.9 C 0 km/h
667 16-05-2020 07:30:00 3 C 5.53 g/m*3 3 C 0 km/h
668 16-05-2020 07:35:00 3.1 C 5.57 g/m*3 3.1 C 0 km/h
669 16-05-2020 07:40:00 3.2 C 5.54 g/m*3 3.2 C 0 km/h
670 16-05-2020 07:45:00 3.2 C 5.6 g/m*3 3.2 C 0 km/h
671 16-05-2020 07:50:00 3.3 C 5.64 g/m*3 3.3 C 0 km/h
672 16-05-2020 07:55:00 3.4 C 5.68 g/m*3 3.4 C 0 km/h
673 16-05-2020 08:00:00 3.6 C 5.76 g/m*3 3.6 C 0 km/h
674 16-05-2020 08:05:00 3.7 C 5.8 g/m*3 3.7 C 0 km/h
675 16-05-2020 08:10:00 3.8 C 5.83 g/m*3 3.8 C 0 km/h
Sensor: Nr:Datum:Temp:Abs-Feuchte:Windchill:Wind:
Aussen-T/F 676 16-05-2020 08:15:00 3.9 C 5.87 g/m*3 3.9 C 0 km/h
677 16-05-2020 08:20:00 4 C 5.91 g/m*3 4 C 1.6 km/h
678 16-05-2020 08:25:00 4.1 C 5.95 g/m*3 4.1 C 1.6 km/h
679 16-05-2020 08:30:00 4.2 C 5.93 g/m*3 4.2 C 1.6 km/h
680 16-05-2020 08:35:00 4.4 C 6.07 g/m*3 4.4 C 0 km/h
681 16-05-2020 08:40:00 4.6 C 6.09 g/m*3 4.6 C 0 km/h
682 16-05-2020 08:45:00 4.8 C 6.24 g/m*3 4.8 C 0 km/h
683 16-05-2020 08:50:00 5 C 6.25 g/m*3 5 C 0 km/h
684 16-05-2020 08:55:00 5.2 C 6.33 g/m*3 5.2 C 0 km/h
685 16-05-2020 09:00:00 5.3 C 6.38 g/m*3 5.3 C 0 km/h
686 16-05-2020 09:05:00 5.5 C 6.46 g/m*3 5.5 C 0 km/h
687 16-05-2020 09:10:00 5.7 C 6.55 g/m*3 5.7 C 0 km/h
688 16-05-2020 09:15:00 5.8 C 6.59 g/m*3 5.8 C 0 km/h
689 16-05-2020 09:20:00 6 C 6.6 g/m*3 6 C 0 km/h
690 16-05-2020 09:25:00 6.2 C 6.69 g/m*3 6.2 C 0 km/h
691 16-05-2020 09:30:00 6.4 C 6.78 g/m*3 6.4 C 0 km/h
692 16-05-2020 09:35:00 6.6 C 6.79 g/m*3 6.6 C 0 km/h
693 16-05-2020 09:40:00 6.8 C 6.88 g/m*3 6.8 C 0 km/h
694 16-05-2020 09:45:00 7.1 C 6.94 g/m*3 7.1 C 0 km/h
695 16-05-2020 09:50:00 7.3 C 6.95 g/m*3 7.3 C 0 km/h
696 16-05-2020 09:55:00 7.5 C 7.04 g/m*3 7.5 C 0 km/h
697 16-05-2020 10:00:00 7.7 C 7.05 g/m*3 7.7 C 0 km/h
698 16-05-2020 10:05:00 7.9 C 6.98 g/m*3 7.9 C 1.6 km/h
699 16-05-2020 10:10:00 8.3 C 7 g/m*3 8.3 C 0 km/h
700 16-05-2020 10:15:00 8.7 C 7.18 g/m*3 8.7 C 0 km/h
Sensor: Nr:Datum:Temp:Abs-Feuchte:Windchill:Wind:
Aussen-T/F 701 16-05-2020 10:20:00 9.1 C 7.1 g/m*3 9.1 C 0 km/h
702 16-05-2020 10:25:00 9.6 C 7.24 g/m*3 9.6 C 3.2 km/h
703 16-05-2020 10:30:00 10.1 C 7 g/m*3 10.1 C 1.6 km/h
704 16-05-2020 10:35:00 10.6 C 7.12 g/m*3 10.6 C 1.6 km/h
705 16-05-2020 10:40:00 11.1 C 7.05 g/m*3 11.1 C 1.6 km/h
706 16-05-2020 10:45:00 11.4 C 6.36 g/m*3 11.4 C 3.2 km/h
707 16-05-2020 10:50:00 11.9 C 6.25 g/m*3 11.9 C 0 km/h
708 16-05-2020 10:55:00 12.1 C 6.43 g/m*3 12.1 C 1.6 km/h
709 16-05-2020 11:00:00 12.3 C 6.3 g/m*3 12.3 C 4.8 km/h
710 16-05-2020 11:05:00 12.7 C 6.35 g/m*3 12.7 C 4.8 km/h
711 16-05-2020 11:10:00 13.1 C 6.39 g/m*3 13.1 C 4.8 km/h
712 16-05-2020 11:15:00 13.3 C 6.12 g/m*3 13.3 C 8.1 km/h
713 16-05-2020 11:20:00 13.5 C 6.08 g/m*3 13.5 C 6.4 km/h
714 16-05-2020 11:25:00 13.7 C 6.28 g/m*3 13.7 C 9.7 km/h
715 16-05-2020 11:30:00 13.8 C 6.08 g/m*3 13.8 C 8.1 km/h
716 16-05-2020 11:35:00 13.8 C 5.96 g/m*3 13.8 C 4.8 km/h
717 16-05-2020 11:40:00 13.9 C 6.11 g/m*3 13.9 C 8.1 km/h
718 16-05-2020 11:45:00 14.2 C 6.23 g/m*3 14.2 C 8.1 km/h
719 16-05-2020 11:50:00 14.4 C 6.18 g/m*3 14.4 C 8.1 km/h
720 16-05-2020 11:55:00 14.3 C 5.9 g/m*3 14.3 C 4.8 km/h
721 16-05-2020 12:00:00 14.3 C 6.14 g/m*3 14.3 C 4.8 km/h
722 16-05-2020 12:05:00 14.4 C 6.06 g/m*3 14.4 C 9.7 km/h
723 16-05-2020 12:10:00 14.6 C 6.01 g/m*3 14.6 C 11.3 km/h
724 16-05-2020 12:15:00 14.6 C 5.88 g/m*3 14.6 C 11.3 km/h
725 16-05-2020 12:20:00 14.6 C 5.88 g/m*3 14.6 C 6.4 km/h
Sensor: Nr:Datum:Temp:Abs-Feuchte:Windchill:Wind:
Aussen-T/F 726 16-05-2020 12:25:00 14.6 C 6.13 g/m*3 14.6 C 4.8 km/h
727 16-05-2020 12:30:00 14.7 C 5.92 g/m*3 14.7 C 8.1 km/h
728 16-05-2020 12:35:00 14.7 C 6.04 g/m*3 14.7 C 6.4 km/h
729 16-05-2020 12:40:00 14.7 C 6.04 g/m*3 14.7 C 6.4 km/h
730 16-05-2020 12:45:00 14.8 C 6.08 g/m*3 14.8 C 6.4 km/h
731 16-05-2020 12:50:00 14.9 C 5.99 g/m*3 14.9 C 8.1 km/h
732 16-05-2020 12:55:00 14.9 C 5.86 g/m*3 14.9 C 4.8 km/h
733 16-05-2020 13:00:00 14.9 C 5.86 g/m*3 14.9 C 4.8 km/h
734 16-05-2020 13:05:00 15.1 C 5.93 g/m*3 15.1 C 4.8 km/h
735 16-05-2020 13:10:00 15.1 C 6.06 g/m*3 15.1 C 0 km/h
736 16-05-2020 13:15:00 15.3 C 6.14 g/m*3 15.3 C 4.8 km/h
737 16-05-2020 13:20:00 15.5 C 6.08 g/m*3 15.5 C 8.1 km/h
738 16-05-2020 13:25:00 15.7 C 6.02 g/m*3 15.7 C 8.1 km/h
739 16-05-2020 13:30:00 15.8 C 6.06 g/m*3 15.8 C 6.4 km/h
740 16-05-2020 13:35:00 15.9 C 5.96 g/m*3 15.9 C 11.3 km/h
741 16-05-2020 13:40:00 16 C 5.99 g/m*3 16 C 9.7 km/h
742 16-05-2020 13:45:00 16.1 C 6.03 g/m*3 16.1 C 9.7 km/h
743 16-05-2020 13:50:00 16.2 C 6.21 g/m*3 16.2 C 4.8 km/h
744 16-05-2020 13:55:00 16.3 C 6.1 g/m*3 16.3 C 12.9 km/h
745 16-05-2020 14:00:00 16.5 C 6.04 g/m*3 16.5 C 12.9 km/h
746 16-05-2020 14:05:00 16.6 C 6.07 g/m*3 16.6 C 11.3 km/h
747 16-05-2020 14:10:00 16.7 C 6.25 g/m*3 16.7 C 6.4 km/h
748 16-05-2020 14:15:00 16.8 C 6.15 g/m*3 16.8 C 6.4 km/h
749 16-05-2020 14:20:00 16.7 C 5.83 g/m*3 16.7 C 6.4 km/h
750 16-05-2020 14:25:00 16.7 C 5.97 g/m*3 16.7 C 4.8 km/h
Sensor: Nr:Datum:Temp:Abs-Feuchte:Windchill:Wind:
Aussen-T/F 751 16-05-2020 14:30:00 16.8 C 6.15 g/m*3 16.8 C 8.1 km/h
752 16-05-2020 14:35:00 17.2 C 6 g/m*3 17.2 C 8.1 km/h
753 16-05-2020 14:40:00 17.4 C 5.93 g/m*3 17.4 C 11.3 km/h
754 16-05-2020 14:45:00 17.5 C 5.81 g/m*3 17.5 C 12.9 km/h
755 16-05-2020 14:50:00 17.7 C 6.04 g/m*3 17.7 C 9.7 km/h
756 16-05-2020 14:55:00 17.8 C 5.62 g/m*3 17.8 C 9.7 km/h
757 16-05-2020 15:00:00 17.8 C 5.46 g/m*3 17.8 C 11.3 km/h
758 16-05-2020 15:05:00 17.8 C 5.46 g/m*3 17.8 C 12.9 km/h
759 16-05-2020 15:10:00 17.9 C 5.65 g/m*3 17.9 C 6.4 km/h
760 16-05-2020 15:15:00 18 C 5.84 g/m*3 18 C 12.9 km/h
761 16-05-2020 15:20:00 18.3 C 5.63 g/m*3 18.3 C 9.7 km/h
762 16-05-2020 15:25:00 18.7 C 5.76 g/m*3 18.7 C 12.9 km/h
763 16-05-2020 15:30:00 18.8 C 5.8 g/m*3 18.8 C 9.7 km/h
764 16-05-2020 15:35:00 18.9 C 5.83 g/m*3 18.9 C 9.7 km/h
765 16-05-2020 15:40:00 19.1 C 5.9 g/m*3 19.1 C 9.7 km/h
766 16-05-2020 15:45:00 19.3 C 5.81 g/m*3 19.3 C 8.1 km/h
767 16-05-2020 15:50:00 19.3 C 5.64 g/m*3 19.3 C 6.4 km/h
768 16-05-2020 15:55:00 19.3 C 5.64 g/m*3 19.3 C 9.7 km/h
769 16-05-2020 16:00:00 19.2 C 6.1 g/m*3 19.2 C 12.9 km/h
770 16-05-2020 16:05:00 19.3 C 6.14 g/m*3 19.3 C 4.8 km/h
771 16-05-2020 16:10:00 19.5 C 6.04 g/m*3 19.5 C 6.4 km/h
772 16-05-2020 16:15:00 19.8 C 6.15 g/m*3 19.8 C 11.3 km/h
773 16-05-2020 16:20:00 19.7 C 6.11 g/m*3 19.7 C 8.1 km/h
774 16-05-2020 16:25:00 20.3 C 6.86 g/m*3 20.3 C 4.8 km/h
775 16-05-2020 16:30:00 20.9 C 6.37 g/m*3 20.9 C 1.6 km/h
Sensor: Nr:Datum:Temp:Abs-Feuchte:Windchill:Wind:
Aussen-T/F 776 16-05-2020 16:35:00 20.7 C 5.94 g/m*3 20.7 C 9.7 km/h
777 16-05-2020 16:40:00 20 C 6.05 g/m*3 20 C 11.3 km/h
778 16-05-2020 16:45:00 19.9 C 6.01 g/m*3 19.9 C 6.4 km/h
779 16-05-2020 16:50:00 19.7 C 5.94 g/m*3 19.7 C 9.7 km/h
780 16-05-2020 16:55:00 19.3 C 5.97 g/m*3 19.3 C 3.2 km/h
781 16-05-2020 17:00:00 19.2 C 6.43 g/m*3 19.2 C 3.2 km/h
782 16-05-2020 17:05:00 19.2 C 6.1 g/m*3 19.2 C 6.4 km/h
783 16-05-2020 17:10:00 18.9 C 6.16 g/m*3 18.9 C 4.8 km/h
784 16-05-2020 17:15:00 18.8 C 6.12 g/m*3 18.8 C 3.2 km/h
785 16-05-2020 17:20:00 18.8 C 6.44 g/m*3 18.8 C 3.2 km/h
786 16-05-2020 17:25:00 18.8 C 6.28 g/m*3 18.8 C 8.1 km/h
787 16-05-2020 17:30:00 18.8 C 6.28 g/m*3 18.8 C 6.4 km/h
788 16-05-2020 17:35:00 18.8 C 6.28 g/m*3 18.8 C 3.2 km/h
789 16-05-2020 17:40:00 18.8 C 6.44 g/m*3 18.8 C 0 km/h
790 16-05-2020 17:45:00 18.8 C 6.28 g/m*3 18.8 C 1.6 km/h
791 16-05-2020 17:50:00 18.8 C 6.44 g/m*3 18.8 C 4.8 km/h
792 16-05-2020 17:55:00 18.8 C 6.12 g/m*3 18.8 C 8.1 km/h
793 16-05-2020 18:00:00 18.7 C 6.24 g/m*3 18.7 C 4.8 km/h
794 16-05-2020 18:05:00 18.8 C 6.12 g/m*3 18.8 C 6.4 km/h
795 16-05-2020 18:10:00 18.9 C 6.16 g/m*3 18.9 C 3.2 km/h
796 16-05-2020 18:15:00 19.1 C 6.23 g/m*3 19.1 C 4.8 km/h
797 16-05-2020 18:20:00 19.2 C 6.43 g/m*3 19.2 C 4.8 km/h
798 16-05-2020 18:25:00 19.1 C 6.23 g/m*3 19.1 C 9.7 km/h
799 16-05-2020 18:30:00 19.1 C 6.39 g/m*3 19.1 C 8.1 km/h
800 16-05-2020 18:35:00 19.6 C 6.42 g/m*3 19.6 C 8.1 km/h
Sensor: Nr:Datum:Temp:Abs-Feuchte:Windchill:Wind:
Aussen-T/F 801 16-05-2020 18:40:00 20.1 C 6.61 g/m*3 20.1 C 3.2 km/h
802 16-05-2020 18:45:00 20.3 C 6.16 g/m*3 20.3 C 9.7 km/h
803 16-05-2020 18:50:00 20.2 C 6.47 g/m*3 20.2 C 12.9 km/h
804 16-05-2020 18:55:00 19.9 C 6.36 g/m*3 19.9 C 12.9 km/h
805 16-05-2020 19:00:00 19.4 C 6.34 g/m*3 19.4 C 11.3 km/h
806 16-05-2020 19:05:00 19.2 C 6.27 g/m*3 19.2 C 12.9 km/h
807 16-05-2020 19:10:00 18.9 C 6.48 g/m*3 18.9 C 6.4 km/h
808 16-05-2020 19:15:00 18.6 C 6.37 g/m*3 18.6 C 3.2 km/h
809 16-05-2020 19:20:00 18.4 C 6.76 g/m*3 18.4 C 3.2 km/h
810 16-05-2020 19:25:00 18.3 C 6.57 g/m*3 18.3 C 4.8 km/h
811 16-05-2020 19:30:00 18.3 C 6.41 g/m*3 18.3 C 8.1 km/h
812 16-05-2020 19:35:00 18.3 C 6.41 g/m*3 18.3 C 8.1 km/h
813 16-05-2020 19:40:00 18.4 C 6.45 g/m*3 18.4 C 6.4 km/h
814 16-05-2020 19:45:00 18.4 C 6.29 g/m*3 18.4 C 4.8 km/h
815 16-05-2020 19:50:00 18.4 C 6.61 g/m*3 18.4 C 3.2 km/h
816 16-05-2020 19:55:00 18.4 C 6.61 g/m*3 18.4 C 6.4 km/h
817 16-05-2020 20:00:00 18.4 C 6.61 g/m*3 18.4 C 4.8 km/h
818 16-05-2020 20:05:00 18.3 C 6.72 g/m*3 18.3 C 6.4 km/h
819 16-05-2020 20:10:00 18.2 C 6.68 g/m*3 18.2 C 6.4 km/h
820 16-05-2020 20:15:00 18 C 6.76 g/m*3 18 C 6.4 km/h
821 16-05-2020 20:20:00 17.8 C 6.37 g/m*3 17.8 C 6.4 km/h
822 16-05-2020 20:25:00 17.7 C 6.64 g/m*3 17.7 C 6.4 km/h
823 16-05-2020 20:30:00 17.6 C 6.45 g/m*3 17.6 C 6.4 km/h
824 16-05-2020 20:35:00 17.3 C 6.48 g/m*3 17.3 C 4.8 km/h
825 16-05-2020 20:40:00 17.2 C 6.59 g/m*3 17.2 C 4.8 km/h
Sensor: Nr:Datum:Temp:Abs-Feuchte:Windchill:Wind:
Aussen-T/F 826 16-05-2020 20:45:00 16.9 C 6.47 g/m*3 16.9 C 3.2 km/h
827 16-05-2020 20:50:00 16.8 C 7.29 g/m*3 16.8 C 0 km/h
828 16-05-2020 20:55:00 16.3 C 7.21 g/m*3 16.3 C 0 km/h
829 16-05-2020 21:00:00 15.7 C 7.23 g/m*3 15.7 C 1.6 km/h
830 16-05-2020 21:05:00 15.2 C 7.01 g/m*3 15.2 C 1.6 km/h
831 16-05-2020 21:10:00 14.7 C 7.05 g/m*3 14.7 C 1.6 km/h
832 16-05-2020 21:15:00 14.5 C 6.96 g/m*3 14.5 C 4.8 km/h
833 16-05-2020 21:20:00 14.4 C 7.05 g/m*3 14.4 C 0 km/h
834 16-05-2020 21:25:00 14.3 C 7 g/m*3 14.3 C 3.2 km/h
835 16-05-2020 21:30:00 14.2 C 7.08 g/m*3 14.2 C 0 km/h
836 16-05-2020 21:35:00 14 C 7.12 g/m*3 14 C 0 km/h
837 16-05-2020 21:40:00 13.8 C 7.15 g/m*3 13.8 C 3.2 km/h
838 16-05-2020 21:45:00 13.7 C 7.1 g/m*3 13.7 C 1.6 km/h
839 16-05-2020 21:50:00 13.5 C 7.25 g/m*3 13.5 C 4.8 km/h
840 16-05-2020 21:55:00 13.4 C 7.21 g/m*3 13.4 C 4.8 km/h
841 16-05-2020 22:00:00 13.3 C 7.16 g/m*3 13.3 C 4.8 km/h
842 16-05-2020 22:05:00 13.2 C 7 g/m*3 13.2 C 4.8 km/h
843 16-05-2020 22:10:00 13.1 C 7.07 g/m*3 13.1 C 8.1 km/h
844 16-05-2020 22:15:00 12.9 C 6.99 g/m*3 12.9 C 6.4 km/h
845 16-05-2020 22:20:00 12.9 C 6.99 g/m*3 12.9 C 6.4 km/h
846 16-05-2020 22:25:00 12.8 C 6.94 g/m*3 12.8 C 8.1 km/h
847 16-05-2020 22:30:00 12.8 C 6.94 g/m*3 12.8 C 6.4 km/h
848 16-05-2020 22:35:00 12.7 C 6.9 g/m*3 12.7 C 6.4 km/h
849 16-05-2020 22:40:00 12.6 C 6.97 g/m*3 12.6 C 6.4 km/h
850 16-05-2020 22:45:00 12.6 C 6.97 g/m*3 12.6 C 6.4 km/h
Sensor: Nr:Datum:Temp:Abs-Feuchte:Windchill:Wind:
Aussen-T/F 851 16-05-2020 22:50:00 12.5 C 6.93 g/m*3 12.5 C 6.4 km/h
852 16-05-2020 22:55:00 12.4 C 6.99 g/m*3 12.4 C 6.4 km/h
853 16-05-2020 23:00:00 12.3 C 7.17 g/m*3 12.3 C 3.2 km/h
854 16-05-2020 23:05:00 12.2 C 7.12 g/m*3 12.2 C 3.2 km/h
855 16-05-2020 23:10:00 12 C 6.93 g/m*3 12 C 4.8 km/h
856 16-05-2020 23:15:00 12.2 C 7.01 g/m*3 12.2 C 8.1 km/h
857 16-05-2020 23:20:00 12.3 C 6.95 g/m*3 12.3 C 4.8 km/h
858 16-05-2020 23:25:00 12.4 C 6.99 g/m*3 12.4 C 6.4 km/h
859 16-05-2020 23:30:00 12.4 C 6.99 g/m*3 12.4 C 3.2 km/h
860 16-05-2020 23:35:00 12.4 C 6.99 g/m*3 12.4 C 4.8 km/h
861 16-05-2020 23:40:00 12.2 C 7.12 g/m*3 12.2 C 4.8 km/h
862 16-05-2020 23:45:00 12 C 7.14 g/m*3 12 C 3.2 km/h
863 16-05-2020 23:50:00 11.8 C 7.05 g/m*3 11.8 C 4.8 km/h
864 16-05-2020 23:55:00 11.8 C 7.16 g/m*3 11.8 C 3.2 km/h
865 17-05-2020 00:00:00 11.7 C 7.01 g/m*3 11.7 C 4.8 km/h
866 17-05-2020 00:05:00 11.7 C 7.11 g/m*3 11.7 C 6.4 km/h
867 17-05-2020 00:10:00 11.8 C 7.05 g/m*3 11.8 C 6.4 km/h
868 17-05-2020 00:15:00 11.8 C 7.16 g/m*3 11.8 C 1.6 km/h
869 17-05-2020 00:20:00 11.7 C 7.11 g/m*3 11.7 C 3.2 km/h
870 17-05-2020 00:25:00 11.5 C 7.13 g/m*3 11.5 C 1.6 km/h
871 17-05-2020 00:30:00 11.3 C 7.04 g/m*3 11.3 C 4.8 km/h
872 17-05-2020 00:35:00 11.2 C 7.1 g/m*3 11.2 C 3.2 km/h
873 17-05-2020 00:40:00 11.1 C 7.15 g/m*3 11.1 C 3.2 km/h
874 17-05-2020 00:45:00 10.8 C 7.02 g/m*3 10.8 C 0 km/h
875 17-05-2020 00:50:00 10.7 C 7.07 g/m*3 10.7 C 1.6 km/h
Sensor: Nr:Datum:Temp:Abs-Feuchte:Windchill:Wind:
Aussen-T/F 876 17-05-2020 00:55:00 10.5 C 7.08 g/m*3 10.5 C 4.8 km/h
877 17-05-2020 01:00:00 10.4 C 7.04 g/m*3 10.4 C 1.6 km/h
878 17-05-2020 01:05:00 10.3 C 7.09 g/m*3 10.3 C 1.6 km/h
879 17-05-2020 01:10:00 10.2 C 7.04 g/m*3 10.2 C 4.8 km/h
880 17-05-2020 01:15:00 10.2 C 7.04 g/m*3 10.2 C 4.8 km/h
881 17-05-2020 01:20:00 10 C 6.95 g/m*3 10 C 4.8 km/h
882 17-05-2020 01:25:00 9.9 C 7 g/m*3 9.9 C 3.2 km/h
883 17-05-2020 01:30:00 9.8 C 7.05 g/m*3 9.8 C 1.6 km/h
884 17-05-2020 01:35:00 9.7 C 7.01 g/m*3 9.02 C 6.4 km/h
885 17-05-2020 01:40:00 9.6 C 6.96 g/m*3 9.6 C 4.8 km/h
886 17-05-2020 01:45:00 9.5 C 6.92 g/m*3 9.5 C 0 km/h
887 17-05-2020 01:50:00 9.4 C 6.87 g/m*3 8.68 C 6.4 km/h
888 17-05-2020 01:55:00 9.3 C 6.92 g/m*3 9.3 C 4.8 km/h
889 17-05-2020 02:00:00 9.2 C 6.88 g/m*3 9.2 C 4.8 km/h
890 17-05-2020 02:05:00 9.2 C 6.88 g/m*3 8.45 C 6.4 km/h
891 17-05-2020 02:10:00 9.1 C 6.83 g/m*3 7.93 C 8.1 km/h
892 17-05-2020 02:15:00 9.1 C 6.92 g/m*3 8.33 C 6.4 km/h
893 17-05-2020 02:20:00 9.1 C 6.92 g/m*3 9.1 C 0 km/h
894 17-05-2020 02:25:00 9.2 C 6.88 g/m*3 8.05 C 8.1 km/h
895 17-05-2020 02:30:00 9.3 C 6.92 g/m*3 9.3 C 4.8 km/h
896 17-05-2020 02:35:00 9.3 C 6.92 g/m*3 9.3 C 4.8 km/h
897 17-05-2020 02:40:00 9.2 C 6.88 g/m*3 8.45 C 6.4 km/h
898 17-05-2020 02:45:00 9.1 C 6.83 g/m*3 7.93 C 8.1 km/h
899 17-05-2020 02:50:00 9 C 6.88 g/m*3 9 C 3.2 km/h
900 17-05-2020 02:55:00 8.9 C 6.92 g/m*3 8.9 C 3.2 km/h
Sensor: Nr:Datum:Temp:Abs-Feuchte:Windchill:Wind:
Aussen-T/F 901 17-05-2020 03:00:00 8.8 C 6.88 g/m*3 8.8 C 3.2 km/h
902 17-05-2020 03:05:00 8.7 C 6.92 g/m*3 7.87 C 6.4 km/h
903 17-05-2020 03:10:00 8.6 C 6.96 g/m*3 8.6 C 3.2 km/h
904 17-05-2020 03:15:00 8.6 C 6.96 g/m*3 8.6 C 1.6 km/h
905 17-05-2020 03:20:00 8.6 C 6.96 g/m*3 8.6 C 4.8 km/h
906 17-05-2020 03:25:00 8.6 C 6.96 g/m*3 8.6 C 1.6 km/h
907 17-05-2020 03:30:00 8.6 C 6.96 g/m*3 8.6 C 4.8 km/h
908 17-05-2020 03:35:00 8.6 C 7.05 g/m*3 8.6 C 1.6 km/h
909 17-05-2020 03:40:00 8.5 C 7 g/m*3 8.5 C 4.8 km/h
910 17-05-2020 03:45:00 8.6 C 7.05 g/m*3 7.34 C 8.1 km/h
911 17-05-2020 03:50:00 8.7 C 7.09 g/m*3 8.7 C 1.6 km/h
912 17-05-2020 03:55:00 8.6 C 6.96 g/m*3 8.6 C 3.2 km/h
913 17-05-2020 04:00:00 8.6 C 7.05 g/m*3 8.6 C 4.8 km/h
914 17-05-2020 04:05:00 8.6 C 7.05 g/m*3 8.6 C 4.8 km/h
915 17-05-2020 04:10:00 8.6 C 7.05 g/m*3 8.6 C 3.2 km/h
916 17-05-2020 04:15:00 8.5 C 7 g/m*3 8.5 C 3.2 km/h
917 17-05-2020 04:20:00 8.4 C 6.96 g/m*3 8.4 C 1.6 km/h
918 17-05-2020 04:25:00 8.4 C 7.04 g/m*3 8.4 C 1.6 km/h
919 17-05-2020 04:30:00 8.3 C 7 g/m*3 8.3 C 4.8 km/h
920 17-05-2020 04:35:00 8.2 C 6.95 g/m*3 8.2 C 4.8 km/h
921 17-05-2020 04:40:00 8.1 C 6.91 g/m*3 8.1 C 4.8 km/h
922 17-05-2020 04:45:00 7.9 C 6.9 g/m*3 7.9 C 3.2 km/h
923 17-05-2020 04:50:00 7.8 C 6.86 g/m*3 7.8 C 3.2 km/h
924 17-05-2020 04:55:00 7.7 C 6.89 g/m*3 7.7 C 3.2 km/h
925 17-05-2020 05:00:00 7.6 C 6.85 g/m*3 7.6 C 1.6 km/h
Sensor: Nr:Datum:Temp:Abs-Feuchte:Windchill:Wind:
Aussen-T/F 926 17-05-2020 05:05:00 7.5 C 6.8 g/m*3 7.5 C 4.8 km/h
927 17-05-2020 05:10:00 7.4 C 6.84 g/m*3 7.4 C 1.6 km/h
928 17-05-2020 05:15:00 7.3 C 6.79 g/m*3 7.3 C 3.2 km/h
929 17-05-2020 05:20:00 7.3 C 6.79 g/m*3 7.3 C 4.8 km/h
930 17-05-2020 05:25:00 7.2 C 6.83 g/m*3 7.2 C 4.8 km/h
931 17-05-2020 05:30:00 7.2 C 6.83 g/m*3 7.2 C 3.2 km/h
932 17-05-2020 05:35:00 7.1 C 6.79 g/m*3 7.1 C 0 km/h
933 17-05-2020 05:40:00 7.1 C 6.79 g/m*3 7.1 C 3.2 km/h
934 17-05-2020 05:45:00 6.9 C 6.7 g/m*3 5.79 C 6.4 km/h
935 17-05-2020 05:50:00 6.8 C 6.65 g/m*3 6.8 C 4.8 km/h
936 17-05-2020 05:55:00 6.8 C 6.65 g/m*3 6.8 C 4.8 km/h
937 17-05-2020 06:00:00 6.8 C 6.65 g/m*3 6.8 C 3.2 km/h
938 17-05-2020 06:05:00 6.7 C 6.61 g/m*3 6.7 C 1.6 km/h
939 17-05-2020 06:10:00 6.7 C 6.69 g/m*3 6.7 C 3.2 km/h
940 17-05-2020 06:15:00 6.7 C 6.69 g/m*3 6.7 C 3.2 km/h
941 17-05-2020 06:20:00 6.7 C 6.69 g/m*3 5.56 C 6.4 km/h
942 17-05-2020 06:25:00 6.7 C 6.69 g/m*3 6.7 C 1.6 km/h
943 17-05-2020 06:30:00 6.7 C 6.69 g/m*3 6.7 C 4.8 km/h
944 17-05-2020 06:35:00 6.7 C 6.69 g/m*3 6.7 C 3.2 km/h
945 17-05-2020 06:40:00 6.7 C 6.69 g/m*3 6.7 C 3.2 km/h
946 17-05-2020 06:45:00 6.7 C 6.69 g/m*3 6.7 C 3.2 km/h
947 17-05-2020 06:50:00 6.7 C 6.69 g/m*3 6.7 C 3.2 km/h
948 17-05-2020 06:55:00 6.7 C 6.69 g/m*3 5.56 C 6.4 km/h
949 17-05-2020 07:00:00 6.8 C 6.81 g/m*3 6.8 C 0 km/h
950 17-05-2020 07:05:00 6.8 C 6.81 g/m*3 6.8 C 4.8 km/h
Sensor: Nr:Datum:Temp:Abs-Feuchte:Windchill:Wind:
Aussen-T/F 951 17-05-2020 07:10:00 6.9 C 6.85 g/m*3 6.9 C 3.2 km/h
952 17-05-2020 07:15:00 7 C 6.82 g/m*3 7 C 0 km/h
953 17-05-2020 07:20:00 7 C 6.82 g/m*3 7 C 0 km/h
954 17-05-2020 07:25:00 6.9 C 6.77 g/m*3 6.9 C 1.6 km/h
955 17-05-2020 07:30:00 6.9 C 6.77 g/m*3 6.9 C 0 km/h
956 17-05-2020 07:35:00 6.9 C 6.85 g/m*3 6.9 C 0 km/h
957 17-05-2020 07:40:00 6.9 C 6.85 g/m*3 6.9 C 3.2 km/h
958 17-05-2020 07:45:00 7 C 6.9 g/m*3 7 C 1.6 km/h
959 17-05-2020 07:50:00 7 C 6.9 g/m*3 7 C 4.8 km/h
960 17-05-2020 07:55:00 7.1 C 6.94 g/m*3 7.1 C 1.6 km/h
961 17-05-2020 08:00:00 7.1 C 6.94 g/m*3 7.1 C 1.6 km/h
962 17-05-2020 08:05:00 7.2 C 6.99 g/m*3 7.2 C 1.6 km/h
963 17-05-2020 08:10:00 7.2 C 6.99 g/m*3 7.2 C 0 km/h
964 17-05-2020 08:15:00 7.3 C 7.03 g/m*3 7.3 C 0 km/h
965 17-05-2020 08:20:00 7.3 C 7.03 g/m*3 7.3 C 0 km/h
966 17-05-2020 08:25:00 7.4 C 7.08 g/m*3 7.4 C 0 km/h
967 17-05-2020 08:30:00 7.4 C 7.08 g/m*3 7.4 C 0 km/h
968 17-05-2020 08:35:00 7.5 C 7.12 g/m*3 7.5 C 0 km/h
969 17-05-2020 08:40:00 7.6 C 7.17 g/m*3 7.6 C 3.2 km/h
970 17-05-2020 08:45:00 7.8 C 7.26 g/m*3 7.8 C 0 km/h
971 17-05-2020 08:50:00 7.9 C 7.23 g/m*3 7.9 C 0 km/h
972 17-05-2020 08:55:00 8.2 C 7.37 g/m*3 8.2 C 3.2 km/h
973 17-05-2020 09:00:00 8.4 C 7.38 g/m*3 8.4 C 3.2 km/h
974 17-05-2020 09:05:00 8.7 C 7.35 g/m*3 8.7 C 0 km/h
975 17-05-2020 09:10:00 9.1 C 7.36 g/m*3 7.93 C 8.1 km/h
Sensor: Nr:Datum:Temp:Abs-Feuchte:Windchill:Wind:
Aussen-T/F 976 17-05-2020 09:15:00 9.3 C 7.37 g/m*3 9.3 C 4.8 km/h
977 17-05-2020 09:20:00 9.6 C 7.33 g/m*3 8.91 C 6.4 km/h
978 17-05-2020 09:25:00 9.9 C 7.38 g/m*3 9.9 C 3.2 km/h
979 17-05-2020 09:30:00 10.2 C 7.42 g/m*3 9.6 C 6.4 km/h
980 17-05-2020 09:35:00 10.4 C 7.42 g/m*3 10.4 C 1.6 km/h
981 17-05-2020 09:40:00 10.7 C 7.37 g/m*3 10.7 C 3.2 km/h
982 17-05-2020 09:45:00 10.9 C 7.26 g/m*3 10.41 C 6.4 km/h
983 17-05-2020 09:50:00 11.2 C 7.1 g/m*3 11.2 C 4.8 km/h
984 17-05-2020 09:55:00 11.2 C 6.99 g/m*3 11.2 C 4.8 km/h
985 17-05-2020 10:00:00 11.3 C 6.94 g/m*3 11.3 C 9.7 km/h
986 17-05-2020 10:05:00 11.4 C 6.98 g/m*3 11.4 C 6.4 km/h
987 17-05-2020 10:10:00 11.6 C 7.07 g/m*3 11.6 C 1.6 km/h
988 17-05-2020 10:15:00 11.7 C 7.22 g/m*3 11.7 C 4.8 km/h
989 17-05-2020 10:20:00 11.9 C 6.99 g/m*3 11.9 C 6.4 km/h
990 17-05-2020 10:25:00 12.2 C 7.01 g/m*3 12.2 C 11.3 km/h
991 17-05-2020 10:30:00 12.4 C 7.21 g/m*3 12.4 C 12.9 km/h
992 17-05-2020 10:35:00 12.6 C 7.19 g/m*3 12.6 C 6.4 km/h
993 17-05-2020 10:40:00 12.8 C 7.06 g/m*3 12.8 C 8.1 km/h
994 17-05-2020 10:45:00 12.9 C 6.99 g/m*3 12.9 C 6.4 km/h
995 17-05-2020 10:50:00 12.9 C 7.1 g/m*3 12.9 C 6.4 km/h
996 17-05-2020 10:55:00 12.9 C 6.88 g/m*3 12.9 C 9.7 km/h
997 17-05-2020 11:00:00 12.9 C 6.99 g/m*3 12.9 C 9.7 km/h
998 17-05-2020 11:05:00 12.9 C 6.99 g/m*3 12.9 C 8.1 km/h
999 17-05-2020 11:10:00 13.1 C 6.96 g/m*3 13.1 C 9.7 km/h
1000 17-05-2020 11:15:00 13.1 C 6.96 g/m*3 13.1 C 6.4 km/h
Sensor: Nr:Datum:Temp:Abs-Feuchte:Windchill:Wind:
Aussen-T/F 1001 17-05-2020 11:20:00 13.1 C 6.85 g/m*3 13.1 C 4.8 km/h
1002 17-05-2020 11:25:00 13.1 C 6.96 g/m*3 13.1 C 6.4 km/h
1003 17-05-2020 11:30:00 13.2 C 7 g/m*3 13.2 C 3.2 km/h
1004 17-05-2020 11:35:00 13.3 C 7.05 g/m*3 13.3 C 4.8 km/h
1005 17-05-2020 11:40:00 13.4 C 7.21 g/m*3 13.4 C 6.4 km/h
1006 17-05-2020 11:45:00 13.4 C 7.09 g/m*3 13.4 C 6.4 km/h
1007 17-05-2020 11:50:00 13.6 C 7.18 g/m*3 13.6 C 3.2 km/h
1008 17-05-2020 11:55:00 13.7 C 6.99 g/m*3 13.7 C 4.8 km/h
1009 17-05-2020 12:00:00 13.7 C 6.87 g/m*3 13.7 C 8.1 km/h
1010 17-05-2020 12:05:00 13.8 C 6.91 g/m*3 13.8 C 9.7 km/h
1011 17-05-2020 12:10:00 14 C 6.88 g/m*3 14 C 9.7 km/h
1012 17-05-2020 12:15:00 14.2 C 6.96 g/m*3 14.2 C 6.4 km/h
1013 17-05-2020 12:20:00 14.3 C 6.88 g/m*3 14.3 C 9.7 km/h
1014 17-05-2020 12:25:00 14.3 C 6.88 g/m*3 14.3 C 3.2 km/h
1015 17-05-2020 12:30:00 14.2 C 6.84 g/m*3 14.2 C 4.8 km/h
1016 17-05-2020 12:35:00 14.3 C 7 g/m*3 14.3 C 6.4 km/h
1017 17-05-2020 12:40:00 14.4 C 7.05 g/m*3 14.4 C 8.1 km/h
1018 17-05-2020 12:45:00 14.7 C 6.92 g/m*3 14.7 C 9.7 km/h
1019 17-05-2020 12:50:00 14.6 C 6.88 g/m*3 14.6 C 6.4 km/h
1020 17-05-2020 12:55:00 14.6 C 7.01 g/m*3 14.6 C 11.3 km/h
1021 17-05-2020 13:00:00 14.6 C 6.88 g/m*3 14.6 C 9.7 km/h
1022 17-05-2020 13:05:00 14.8 C 7.09 g/m*3 14.8 C 6.4 km/h
1023 17-05-2020 13:10:00 14.9 C 6.75 g/m*3 14.9 C 9.7 km/h
1024 17-05-2020 13:15:00 15.1 C 6.71 g/m*3 15.1 C 8.1 km/h
1025 17-05-2020 13:20:00 15.3 C 6.79 g/m*3 15.3 C 12.9 km/h
Sensor: Nr:Datum:Temp:Abs-Feuchte:Windchill:Wind:
Aussen-T/F 1026 17-05-2020 13:25:00 15.4 C 6.83 g/m*3 15.4 C 6.4 km/h
1027 17-05-2020 13:30:00 15.4 C 6.7 g/m*3 15.4 C 11.3 km/h
1028 17-05-2020 13:35:00 15.6 C 6.92 g/m*3 15.6 C 8.1 km/h
1029 17-05-2020 13:40:00 15.7 C 6.82 g/m*3 15.7 C 9.7 km/h
1030 17-05-2020 13:45:00 15.8 C 6.87 g/m*3 15.8 C 6.4 km/h
1031 17-05-2020 13:50:00 15.8 C 7 g/m*3 15.8 C 4.8 km/h
1032 17-05-2020 13:55:00 15.9 C 6.91 g/m*3 15.9 C 11.3 km/h
1033 17-05-2020 14:00:00 16.2 C 6.76 g/m*3 16.2 C 9.7 km/h
1034 17-05-2020 14:05:00 16.3 C 6.8 g/m*3 16.3 C 6.4 km/h
1035 17-05-2020 14:10:00 16.4 C 6.98 g/m*3 16.4 C 12.9 km/h
1036 17-05-2020 14:15:00 16.6 C 6.78 g/m*3 16.6 C 11.3 km/h
1037 17-05-2020 14:20:00 16.6 C 6.64 g/m*3 16.6 C 8.1 km/h
1038 17-05-2020 14:25:00 16.8 C 6.72 g/m*3 16.8 C 6.4 km/h
1039 17-05-2020 14:30:00 16.9 C 6.76 g/m*3 16.9 C 6.4 km/h
1040 17-05-2020 14:35:00 16.9 C 6.76 g/m*3 16.9 C 4.8 km/h
1041 17-05-2020 14:40:00 17.1 C 6.84 g/m*3 17.1 C 12.9 km/h
1042 17-05-2020 14:45:00 17.4 C 6.82 g/m*3 17.4 C 11.3 km/h
1043 17-05-2020 14:50:00 17.5 C 6.41 g/m*3 17.5 C 6.4 km/h
1044 17-05-2020 14:55:00 17.5 C 6.86 g/m*3 17.5 C 8.1 km/h
1045 17-05-2020 15:00:00 17.8 C 6.68 g/m*3 17.8 C 9.7 km/h
1046 17-05-2020 15:05:00 17.9 C 6.57 g/m*3 17.9 C 8.1 km/h
1047 17-05-2020 15:10:00 18 C 6.3 g/m*3 18 C 12.9 km/h
1048 17-05-2020 15:15:00 18.1 C 6.33 g/m*3 18.1 C 9.7 km/h
1049 17-05-2020 15:20:00 18.1 C 6.64 g/m*3 18.1 C 8.1 km/h
1050 17-05-2020 15:25:00 18.3 C 6.25 g/m*3 18.3 C 8.1 km/h
Sensor: Nr:Datum:Temp:Abs-Feuchte:Windchill:Wind:
Aussen-T/F 1051 17-05-2020 15:30:00 18.6 C 6.53 g/m*3 18.6 C 6.4 km/h
1052 17-05-2020 15:35:00 19.2 C 6.93 g/m*3 19.2 C 6.4 km/h
1053 17-05-2020 15:40:00 19.5 C 6.71 g/m*3 19.5 C 8.1 km/h
1054 17-05-2020 15:45:00 19.4 C 6.67 g/m*3 19.4 C 3.2 km/h
1055 17-05-2020 15:50:00 19.4 C 6.67 g/m*3 19.4 C 11.3 km/h
1056 17-05-2020 15:55:00 19.2 C 6.76 g/m*3 19.2 C 12.9 km/h
1057 17-05-2020 16:00:00 19.2 C 6.76 g/m*3 19.2 C 9.7 km/h
1058 17-05-2020 16:05:00 19.3 C 6.63 g/m*3 19.3 C 8.1 km/h
1059 17-05-2020 16:10:00 19.4 C 6.84 g/m*3 19.4 C 9.7 km/h
1060 17-05-2020 16:15:00 19.8 C 6.66 g/m*3 19.8 C 16.1 km/h
1061 17-05-2020 16:20:00 20 C 6.57 g/m*3 20 C 16.1 km/h
1062 17-05-2020 16:25:00 20.2 C 6.64 g/m*3 20.2 C 8.1 km/h
1063 17-05-2020 16:30:00 20.4 C 6.37 g/m*3 20.4 C 11.3 km/h
1064 17-05-2020 16:35:00 20.7 C 6.48 g/m*3 20.7 C 6.4 km/h
1065 17-05-2020 16:40:00 20.7 C 6.3 g/m*3 20.7 C 9.7 km/h
1066 17-05-2020 16:45:00 20.7 C 6.3 g/m*3 20.7 C 9.7 km/h
1067 17-05-2020 16:50:00 20.6 C 6.26 g/m*3 20.6 C 9.7 km/h
1068 17-05-2020 16:55:00 20.6 C 6.26 g/m*3 20.6 C 9.7 km/h
1069 17-05-2020 17:00:00 20.7 C 6.12 g/m*3 20.7 C 6.4 km/h
1070 17-05-2020 17:05:00 20.3 C 5.98 g/m*3 20.3 C 6.4 km/h
1071 17-05-2020 17:10:00 20.4 C 6.19 g/m*3 20.4 C 11.3 km/h
1072 17-05-2020 17:15:00 20.8 C 6.34 g/m*3 20.8 C 9.7 km/h
1073 17-05-2020 17:20:00 20.8 C 6.16 g/m*3 20.8 C 12.9 km/h
1074 17-05-2020 17:25:00 20.8 C 5.98 g/m*3 20.8 C 6.4 km/h
1075 17-05-2020 17:30:00 20.8 C 6.16 g/m*3 20.8 C 8.1 km/h
Sensor: Nr:Datum:Temp:Abs-Feuchte:Windchill:Wind:
Aussen-T/F 1076 17-05-2020 17:35:00 20.9 C 6.19 g/m*3 20.9 C 11.3 km/h
1077 17-05-2020 17:40:00 20.7 C 6.3 g/m*3 20.7 C 12.9 km/h
1078 17-05-2020 17:45:00 20.5 C 6.41 g/m*3 20.5 C 11.3 km/h
1079 17-05-2020 17:50:00 20.7 C 6.48 g/m*3 20.7 C 11.3 km/h
1080 17-05-2020 17:55:00 20.9 C 6.56 g/m*3 20.9 C 9.7 km/h
1081 17-05-2020 18:00:00 21.1 C 6.45 g/m*3 21.1 C 9.7 km/h
1082 17-05-2020 18:05:00 21.1 C 6.45 g/m*3 21.1 C 8.1 km/h
1083 17-05-2020 18:10:00 21 C 6.41 g/m*3 21 C 8.1 km/h
1084 17-05-2020 18:15:00 21.1 C 6.63 g/m*3 21.1 C 4.8 km/h
1085 17-05-2020 18:20:00 21.2 C 6.49 g/m*3 21.2 C 9.7 km/h
1086 17-05-2020 18:25:00 20.7 C 6.48 g/m*3 20.7 C 8.1 km/h
1087 17-05-2020 18:30:00 20.7 C 6.48 g/m*3 20.7 C 9.7 km/h
1088 17-05-2020 18:35:00 20.9 C 6.74 g/m*3 20.9 C 8.1 km/h
1089 17-05-2020 18:40:00 21.2 C 6.86 g/m*3 21.2 C 6.4 km/h
1090 17-05-2020 18:45:00 21.1 C 6.45 g/m*3 21.1 C 9.7 km/h
1091 17-05-2020 18:50:00 20.8 C 6.34 g/m*3 20.8 C 8.1 km/h
1092 17-05-2020 18:55:00 20.6 C 6.26 g/m*3 20.6 C 4.8 km/h
1093 17-05-2020 19:00:00 20.4 C 6.37 g/m*3 20.4 C 8.1 km/h
1094 17-05-2020 19:05:00 20.6 C 6.62 g/m*3 20.6 C 4.8 km/h
1095 17-05-2020 19:10:00 20.7 C 6.66 g/m*3 20.7 C 4.8 km/h
1096 17-05-2020 19:15:00 20.6 C 6.44 g/m*3 20.6 C 3.2 km/h
1097 17-05-2020 19:20:00 20.4 C 6.37 g/m*3 20.4 C 9.7 km/h
1098 17-05-2020 19:25:00 20 C 6.39 g/m*3 20 C 9.7 km/h
1099 17-05-2020 19:30:00 19.8 C 6.49 g/m*3 19.8 C 3.2 km/h
1100 17-05-2020 19:35:00 19.8 C 6.49 g/m*3 19.8 C 4.8 km/h
Sensor: Nr:Datum:Temp:Abs-Feuchte:Windchill:Wind:
Aussen-T/F 1101 17-05-2020 19:40:00 19.6 C 6.42 g/m*3 19.6 C 6.4 km/h
1102 17-05-2020 19:45:00 19.4 C 6.51 g/m*3 19.4 C 6.4 km/h
1103 17-05-2020 19:50:00 19.4 C 6.51 g/m*3 19.4 C 4.8 km/h
1104 17-05-2020 19:55:00 19.4 C 6.67 g/m*3 19.4 C 4.8 km/h
1105 17-05-2020 20:00:00 19.3 C 6.63 g/m*3 19.3 C 4.8 km/h
1106 17-05-2020 20:05:00 19.2 C 6.76 g/m*3 19.2 C 3.2 km/h
1107 17-05-2020 20:10:00 19.1 C 6.56 g/m*3 19.1 C 3.2 km/h
1108 17-05-2020 20:15:00 18.9 C 6.64 g/m*3 18.9 C 4.8 km/h
1109 17-05-2020 20:20:00 18.7 C 6.72 g/m*3 18.7 C 8.1 km/h
1110 17-05-2020 20:25:00 18.6 C 6.68 g/m*3 18.6 C 4.8 km/h
1111 17-05-2020 20:30:00 18.4 C 6.61 g/m*3 18.4 C 3.2 km/h
1112 17-05-2020 20:35:00 18.3 C 6.72 g/m*3 18.3 C 3.2 km/h
1113 17-05-2020 20:40:00 18.2 C 6.84 g/m*3 18.2 C 3.2 km/h
1114 17-05-2020 20:45:00 18 C 7.53 g/m*3 18 C 1.6 km/h
1115 17-05-2020 20:50:00 17.7 C 7.54 g/m*3 17.7 C 0 km/h
1116 17-05-2020 20:55:00 17.2 C 7.61 g/m*3 17.2 C 0 km/h
1117 17-05-2020 21:00:00 16.7 C 7.53 g/m*3 16.7 C 4.8 km/h
1118 17-05-2020 21:05:00 16.1 C 7.4 g/m*3 16.1 C 4.8 km/h
1119 17-05-2020 21:10:00 15.7 C 7.36 g/m*3 15.7 C 6.4 km/h
1120 17-05-2020 21:15:00 15.3 C 7.31 g/m*3 15.3 C 8.1 km/h
1121 17-05-2020 21:20:00 14.9 C 7.14 g/m*3 14.9 C 6.4 km/h
1122 17-05-2020 21:25:00 14.7 C 7.18 g/m*3 14.7 C 8.1 km/h
1123 17-05-2020 21:30:00 14.4 C 7.17 g/m*3 14.4 C 8.1 km/h
1124 17-05-2020 21:35:00 14.2 C 7.08 g/m*3 14.2 C 8.1 km/h
1125 17-05-2020 21:40:00 14 C 7.12 g/m*3 14 C 4.8 km/h
Sensor: Nr:Datum:Temp:Abs-Feuchte:Windchill:Wind:
Aussen-T/F 1126 17-05-2020 21:45:00 13.8 C 7.15 g/m*3 13.8 C 8.1 km/h
1127 17-05-2020 21:50:00 13.7 C 7.1 g/m*3 13.7 C 8.1 km/h
1128 17-05-2020 21:55:00 13.6 C 7.06 g/m*3 13.6 C 8.1 km/h
1129 17-05-2020 22:00:00 13.5 C 7.02 g/m*3 13.5 C 8.1 km/h
1130 17-05-2020 22:05:00 13.4 C 6.97 g/m*3 13.4 C 8.1 km/h
1131 17-05-2020 22:10:00 13.4 C 6.97 g/m*3 13.4 C 6.4 km/h
1132 17-05-2020 22:15:00 13.3 C 7.05 g/m*3 13.3 C 6.4 km/h
1133 17-05-2020 22:20:00 13.3 C 7.05 g/m*3 13.3 C 6.4 km/h
1134 17-05-2020 22:25:00 13.2 C 7.12 g/m*3 13.2 C 6.4 km/h
1135 17-05-2020 22:30:00 13.1 C 7.19 g/m*3 13.1 C 4.8 km/h
1136 17-05-2020 22:35:00 12.9 C 7.1 g/m*3 12.9 C 3.2 km/h
1137 17-05-2020 22:40:00 12.7 C 7.12 g/m*3 12.7 C 4.8 km/h
1138 17-05-2020 22:45:00 12.6 C 7.08 g/m*3 12.6 C 3.2 km/h
1139 17-05-2020 22:50:00 12.4 C 7.32 g/m*3 12.4 C 0 km/h
1140 17-05-2020 22:55:00 12.1 C 7.18 g/m*3 12.1 C 0 km/h
1141 17-05-2020 23:00:00 11.8 C 7.26 g/m*3 11.8 C 0 km/h
1142 17-05-2020 23:05:00 11.5 C 7.23 g/m*3 11.5 C 0 km/h
1143 17-05-2020 23:10:00 11.3 C 7.24 g/m*3 11.3 C 0 km/h
1144 17-05-2020 23:15:00 11.1 C 7.15 g/m*3 11.1 C 0 km/h
1145 17-05-2020 23:20:00 10.9 C 7.16 g/m*3 10.9 C 0 km/h
1146 17-05-2020 23:25:00 10.7 C 7.07 g/m*3 10.7 C 0 km/h
1147 17-05-2020 23:30:00 10.6 C 7.12 g/m*3 10.6 C 0 km/h
1148 17-05-2020 23:35:00 10.4 C 7.13 g/m*3 10.4 C 0 km/h
1149 17-05-2020 23:40:00 10.3 C 7.09 g/m*3 10.3 C 0 km/h
1150 17-05-2020 23:45:00 10.2 C 7.14 g/m*3 10.2 C 0 km/h
Sensor: Nr:Datum:Temp:Abs-Feuchte:Windchill:Wind:
Aussen-T/F 1151 17-05-2020 23:50:00 10.1 C 7.09 g/m*3 10.1 C 0 km/h
1152 17-05-2020 23:55:00 9.9 C 7 g/m*3 9.9 C 0 km/h
1153 18-05-2020 00:00:00 9.8 C 7.05 g/m*3 9.8 C 0 km/h
1154 18-05-2020 00:05:00 9.7 C 7.01 g/m*3 9.7 C 1.6 km/h
1155 18-05-2020 00:10:00 9.6 C 7.05 g/m*3 9.6 C 0 km/h
1156 18-05-2020 00:15:00 9.6 C 7.05 g/m*3 9.6 C 0 km/h
1157 18-05-2020 00:20:00 9.5 C 7.1 g/m*3 9.5 C 0 km/h
1158 18-05-2020 00:25:00 9.4 C 7.05 g/m*3 9.4 C 0 km/h
1159 18-05-2020 00:30:00 9.3 C 7.01 g/m*3 9.3 C 0 km/h
1160 18-05-2020 00:35:00 9.2 C 6.97 g/m*3 9.2 C 0 km/h
1161 18-05-2020 00:40:00 9.1 C 6.92 g/m*3 9.1 C 0 km/h
1162 18-05-2020 00:45:00 9.1 C 7.01 g/m*3 9.1 C 1.6 km/h
1163 18-05-2020 00:50:00 9 C 6.96 g/m*3 9 C 1.6 km/h
1164 18-05-2020 00:55:00 8.9 C 6.92 g/m*3 8.9 C 0 km/h
1165 18-05-2020 01:00:00 8.8 C 6.96 g/m*3 8.8 C 0 km/h
1166 18-05-2020 01:05:00 8.8 C 6.96 g/m*3 8.8 C 0 km/h
1167 18-05-2020 01:10:00 8.7 C 6.92 g/m*3 8.7 C 0 km/h
1168 18-05-2020 01:15:00 8.7 C 7.01 g/m*3 8.7 C 0 km/h
1169 18-05-2020 01:20:00 8.6 C 6.96 g/m*3 8.6 C 0 km/h
1170 18-05-2020 01:25:00 8.6 C 6.96 g/m*3 8.6 C 0 km/h
1171 18-05-2020 01:30:00 8.6 C 6.96 g/m*3 8.6 C 0 km/h
1172 18-05-2020 01:35:00 8.5 C 6.92 g/m*3 8.5 C 0 km/h
1173 18-05-2020 01:40:00 8.4 C 6.87 g/m*3 8.4 C 0 km/h
1174 18-05-2020 01:45:00 8.3 C 6.91 g/m*3 8.3 C 1.6 km/h
1175 18-05-2020 01:50:00 8.3 C 6.91 g/m*3 8.3 C 1.6 km/h
Sensor: Nr:Datum:Temp:Abs-Feuchte:Windchill:Wind:
Aussen-T/F 1176 18-05-2020 01:55:00 8.2 C 6.87 g/m*3 8.2 C 0 km/h
1177 18-05-2020 02:00:00 8.2 C 6.87 g/m*3 8.2 C 3.2 km/h
1178 18-05-2020 02:05:00 8.2 C 6.95 g/m*3 8.2 C 0 km/h
1179 18-05-2020 02:10:00 8.1 C 6.82 g/m*3 8.1 C 0 km/h
1180 18-05-2020 02:15:00 8 C 6.86 g/m*3 8 C 0 km/h
1181 18-05-2020 02:20:00 7.9 C 6.82 g/m*3 7.9 C 3.2 km/h
1182 18-05-2020 02:25:00 8 C 6.94 g/m*3 8 C 1.6 km/h
1183 18-05-2020 02:30:00 8 C 6.94 g/m*3 8 C 0 km/h
1184 18-05-2020 02:35:00 8 C 6.94 g/m*3 8 C 0 km/h
1185 18-05-2020 02:40:00 7.9 C 6.82 g/m*3 7.9 C 0 km/h
1186 18-05-2020 02:45:00 7.8 C 6.77 g/m*3 7.8 C 0 km/h
1187 18-05-2020 02:50:00 7.7 C 6.81 g/m*3 7.7 C 0 km/h
1188 18-05-2020 02:55:00 7.6 C 6.77 g/m*3 7.6 C 0 km/h
1189 18-05-2020 03:00:00 7.5 C 6.72 g/m*3 7.5 C 0 km/h
1190 18-05-2020 03:05:00 7.4 C 6.76 g/m*3 7.4 C 0 km/h
1191 18-05-2020 03:10:00 7.3 C 6.72 g/m*3 7.3 C 0 km/h
1192 18-05-2020 03:15:00 7.2 C 6.67 g/m*3 7.2 C 0 km/h
1193 18-05-2020 03:20:00 7.2 C 6.67 g/m*3 7.2 C 0 km/h
1194 18-05-2020 03:25:00 7.1 C 6.71 g/m*3 7.1 C 1.6 km/h
1195 18-05-2020 03:30:00 7.1 C 6.79 g/m*3 7.1 C 0 km/h
1196 18-05-2020 03:35:00 7.1 C 6.79 g/m*3 7.1 C 0 km/h
1197 18-05-2020 03:40:00 7.1 C 6.79 g/m*3 7.1 C 0 km/h
1198 18-05-2020 03:45:00 7 C 6.74 g/m*3 7 C 0 km/h
1199 18-05-2020 03:50:00 7 C 6.74 g/m*3 7 C 0 km/h
1200 18-05-2020 03:55:00 7 C 6.74 g/m*3 7 C 0 km/h
Sensor: Nr:Datum:Temp:Abs-Feuchte:Windchill:Wind:
Aussen-T/F 1201 18-05-2020 04:00:00 6.9 C 6.7 g/m*3 6.9 C 0 km/h
1202 18-05-2020 04:05:00 6.9 C 6.77 g/m*3 6.9 C 0 km/h
1203 18-05-2020 04:10:00 6.9 C 6.77 g/m*3 6.9 C 0 km/h
1204 18-05-2020 04:15:00 6.8 C 6.65 g/m*3 6.8 C 0 km/h
1205 18-05-2020 04:20:00 6.7 C 6.61 g/m*3 6.7 C 0 km/h
1206 18-05-2020 04:25:00 6.7 C 6.61 g/m*3 6.7 C 0 km/h
1207 18-05-2020 04:30:00 6.6 C 6.64 g/m*3 6.6 C 0 km/h
1208 18-05-2020 04:35:00 6.5 C 6.6 g/m*3 6.5 C 0 km/h
1209 18-05-2020 04:40:00 6.4 C 6.56 g/m*3 6.4 C 0 km/h
1210 18-05-2020 04:45:00 6.4 C 6.56 g/m*3 6.4 C 0 km/h
1211 18-05-2020 04:50:00 6.3 C 6.51 g/m*3 6.3 C 0 km/h
1212 18-05-2020 04:55:00 6.2 C 6.47 g/m*3 6.2 C 3.2 km/h
1213 18-05-2020 05:00:00 6.2 C 6.55 g/m*3 6.2 C 1.6 km/h
1214 18-05-2020 05:05:00 6.2 C 6.55 g/m*3 6.2 C 0 km/h
1215 18-05-2020 05:10:00 6.2 C 6.55 g/m*3 6.2 C 0 km/h
1216 18-05-2020 05:15:00 6.2 C 6.55 g/m*3 6.2 C 0 km/h
1217 18-05-2020 05:20:00 6.1 C 6.5 g/m*3 6.1 C 0 km/h
1218 18-05-2020 05:25:00 6.1 C 6.5 g/m*3 6.1 C 0 km/h
1219 18-05-2020 05:30:00 6 C 6.46 g/m*3 6 C 0 km/h
1220 18-05-2020 05:35:00 5.9 C 6.42 g/m*3 5.9 C 0 km/h
1221 18-05-2020 05:40:00 5.9 C 6.42 g/m*3 5.9 C 3.2 km/h
1222 18-05-2020 05:45:00 5.9 C 6.49 g/m*3 5.9 C 3.2 km/h
1223 18-05-2020 05:50:00 5.9 C 6.49 g/m*3 5.9 C 0 km/h
1224 18-05-2020 05:55:00 5.9 C 6.49 g/m*3 5.9 C 0 km/h
1225 18-05-2020 06:00:00 5.9 C 6.49 g/m*3 5.9 C 0 km/h
Sensor: Nr:Datum:Temp:Abs-Feuchte:Windchill:Wind:
Aussen-T/F 1226 18-05-2020 06:05:00 5.9 C 6.49 g/m*3 5.9 C 0 km/h
1227 18-05-2020 06:10:00 5.9 C 6.49 g/m*3 5.9 C 0 km/h
1228 18-05-2020 06:15:00 5.8 C 6.45 g/m*3 5.8 C 0 km/h
1229 18-05-2020 06:20:00 5.8 C 6.52 g/m*3 5.8 C 0 km/h
1230 18-05-2020 06:25:00 5.8 C 6.52 g/m*3 5.8 C 0 km/h
1231 18-05-2020 06:30:00 5.9 C 6.56 g/m*3 5.9 C 0 km/h
1232 18-05-2020 06:35:00 5.9 C 6.56 g/m*3 5.9 C 0 km/h
1233 18-05-2020 06:40:00 5.9 C 6.56 g/m*3 5.9 C 0 km/h
1234 18-05-2020 06:45:00 6 C 6.6 g/m*3 6 C 0 km/h
1235 18-05-2020 06:50:00 6.1 C 6.72 g/m*3 6.1 C 0 km/h
1236 18-05-2020 06:55:00 6.2 C 6.77 g/m*3 6.2 C 0 km/h
1237 18-05-2020 07:00:00 6.2 C 6.77 g/m*3 6.2 C 0 km/h
1238 18-05-2020 07:05:00 6.3 C 6.81 g/m*3 6.3 C 1.6 km/h
1239 18-05-2020 07:10:00 6.4 C 6.85 g/m*3 6.4 C 0 km/h
1240 18-05-2020 07:15:00 6.5 C 6.9 g/m*3 6.5 C 0 km/h
1241 18-05-2020 07:20:00 6.6 C 6.95 g/m*3 6.6 C 0 km/h
1242 18-05-2020 07:25:00 6.7 C 6.99 g/m*3 6.7 C 0 km/h
1243 18-05-2020 07:30:00 6.7 C 6.99 g/m*3 6.7 C 0 km/h
1244 18-05-2020 07:35:00 6.8 C 7.04 g/m*3 6.8 C 0 km/h
1245 18-05-2020 07:40:00 6.9 C 7.08 g/m*3 6.9 C 0 km/h
1246 18-05-2020 07:45:00 7 C 7.13 g/m*3 7 C 0 km/h
1247 18-05-2020 07:50:00 7.1 C 7.18 g/m*3 7.1 C 0 km/h
1248 18-05-2020 07:55:00 7.2 C 7.22 g/m*3 7.2 C 0 km/h
1249 18-05-2020 08:00:00 7.3 C 7.27 g/m*3 7.3 C 0 km/h
1250 18-05-2020 08:05:00 7.4 C 7.32 g/m*3 7.4 C 0 km/h
Sensor: Nr:Datum:Temp:Abs-Feuchte:Windchill:Wind:
Aussen-T/F 1251 18-05-2020 08:10:00 7.6 C 7.41 g/m*3 7.6 C 0 km/h
1252 18-05-2020 08:15:00 7.7 C 7.46 g/m*3 7.7 C 0 km/h
1253 18-05-2020 08:20:00 7.8 C 7.51 g/m*3 7.8 C 0 km/h
1254 18-05-2020 08:25:00 8 C 7.61 g/m*3 8 C 0 km/h
1255 18-05-2020 08:30:00 8.2 C 7.7 g/m*3 8.2 C 0 km/h
1256 18-05-2020 08:35:00 8.3 C 7.75 g/m*3 8.3 C 0 km/h
1257 18-05-2020 08:40:00 8.5 C 7.85 g/m*3 8.5 C 0 km/h
1258 18-05-2020 08:45:00 8.7 C 7.96 g/m*3 8.7 C 0 km/h
1259 18-05-2020 08:50:00 8.9 C 8.06 g/m*3 8.9 C 0 km/h
1260 18-05-2020 08:55:00 9.1 C 8.16 g/m*3 9.1 C 0 km/h
1261 18-05-2020 09:00:00 9.3 C 8.18 g/m*3 9.3 C 0 km/h
1262 18-05-2020 09:05:00 9.6 C 8.34 g/m*3 9.6 C 0 km/h
1263 18-05-2020 09:10:00 9.7 C 8.3 g/m*3 9.7 C 0 km/h
1264 18-05-2020 09:15:00 10 C 8.36 g/m*3 10 C 0 km/h
1265 18-05-2020 09:20:00 10.3 C 8.43 g/m*3 10.3 C 0 km/h
1266 18-05-2020 09:25:00 10.5 C 8.53 g/m*3 10.5 C 0 km/h
1267 18-05-2020 09:30:00 10.7 C 8.55 g/m*3 10.7 C 0 km/h
1268 18-05-2020 09:35:00 10.9 C 8.65 g/m*3 10.9 C 0 km/h
1269 18-05-2020 09:40:00 11 C 8.61 g/m*3 11 C 0 km/h
1270 18-05-2020 09:45:00 11.2 C 8.62 g/m*3 11.2 C 0 km/h
1271 18-05-2020 09:50:00 11.4 C 8.72 g/m*3 11.4 C 0 km/h
1272 18-05-2020 09:55:00 11.7 C 8.79 g/m*3 11.7 C 0 km/h
1273 18-05-2020 10:00:00 11.9 C 9 g/m*3 11.9 C 0 km/h
1274 18-05-2020 10:05:00 12.2 C 9.06 g/m*3 12.2 C 0 km/h
1275 18-05-2020 10:10:00 12.3 C 9.12 g/m*3 12.3 C 0 km/h
Sensor: Nr:Datum:Temp:Abs-Feuchte:Windchill:Wind:
Aussen-T/F 1276 18-05-2020 10:15:00 12.6 C 9.29 g/m*3 12.6 C 0 km/h
1277 18-05-2020 10:20:00 12.9 C 9.35 g/m*3 12.9 C 0 km/h
1278 18-05-2020 10:25:00 13.2 C 9.07 g/m*3 13.2 C 0 km/h
1279 18-05-2020 10:30:00 13.8 C 9.06 g/m*3 13.8 C 4.8 km/h
1280 18-05-2020 10:35:00 14.4 C 9.27 g/m*3 14.4 C 1.6 km/h
1281 18-05-2020 10:40:00 15 C 8.98 g/m*3 15 C 1.6 km/h
1282 18-05-2020 10:45:00 15.7 C 8.43 g/m*3 15.7 C 4.8 km/h
1283 18-05-2020 10:50:00 16.4 C 8.1 g/m*3 16.4 C 4.8 km/h
1284 18-05-2020 10:55:00 17.3 C 8.1 g/m*3 17.3 C 11.3 km/h
1285 18-05-2020 11:00:00 17.9 C 8.09 g/m*3 17.9 C 6.4 km/h
1286 18-05-2020 11:05:00 18.3 C 8.13 g/m*3 18.3 C 9.7 km/h
1287 18-05-2020 11:10:00 18.5 C 7.91 g/m*3 18.5 C 8.1 km/h
1288 18-05-2020 11:15:00 18.7 C 8.49 g/m*3 18.7 C 4.8 km/h
1289 18-05-2020 11:20:00 18.7 C 8.33 g/m*3 18.7 C 3.2 km/h
1290 18-05-2020 11:25:00 18.8 C 8.37 g/m*3 18.8 C 6.4 km/h
1291 18-05-2020 11:30:00 19 C 8.15 g/m*3 19 C 11.3 km/h
1292 18-05-2020 11:35:00 19.2 C 8.24 g/m*3 19.2 C 4.8 km/h
1293 18-05-2020 11:40:00 19.3 C 8.46 g/m*3 19.3 C 4.8 km/h
1294 18-05-2020 11:45:00 19.4 C 8.18 g/m*3 19.4 C 6.4 km/h
1295 18-05-2020 11:50:00 19.6 C 8.27 g/m*3 19.6 C 9.7 km/h
1296 18-05-2020 11:55:00 19.7 C 7.98 g/m*3 19.7 C 11.3 km/h
1297 18-05-2020 12:00:00 19.7 C 8.32 g/m*3 19.7 C 12.9 km/h
1298 18-05-2020 12:05:00 19.8 C 8.2 g/m*3 19.8 C 6.4 km/h
1299 18-05-2020 12:10:00 19.9 C 8.25 g/m*3 19.9 C 9.7 km/h
1300 18-05-2020 12:15:00 20.1 C 8.17 g/m*3 20.1 C 4.8 km/h
Sensor: Nr:Datum:Temp:Abs-Feuchte:Windchill:Wind:
Aussen-T/F 1301 18-05-2020 12:20:00 20.2 C 8.22 g/m*3 20.2 C 8.1 km/h
1302 18-05-2020 12:25:00 20.3 C 8.27 g/m*3 20.3 C 9.7 km/h
1303 18-05-2020 12:30:00 20.3 C 8.27 g/m*3 20.3 C 12.9 km/h
1304 18-05-2020 12:35:00 20.2 C 8.22 g/m*3 20.2 C 4.8 km/h
1305 18-05-2020 12:40:00 20.3 C 8.44 g/m*3 20.3 C 4.8 km/h
1306 18-05-2020 12:45:00 20.4 C 8.14 g/m*3 20.4 C 11.3 km/h
1307 18-05-2020 12:50:00 20.7 C 8.1 g/m*3 20.7 C 11.3 km/h
1308 18-05-2020 12:55:00 20.8 C 8.15 g/m*3 20.8 C 14.5 km/h
1309 18-05-2020 13:00:00 20.9 C 8.01 g/m*3 20.9 C 14.5 km/h
1310 18-05-2020 13:05:00 20.9 C 8.2 g/m*3 20.9 C 4.8 km/h
1311 18-05-2020 13:10:00 20.9 C 8.01 g/m*3 20.9 C 12.9 km/h
1312 18-05-2020 13:15:00 21.1 C 7.92 g/m*3 21.1 C 8.1 km/h
1313 18-05-2020 13:20:00 21.2 C 8.15 g/m*3 21.2 C 6.4 km/h
1314 18-05-2020 13:25:00 21.3 C 8.02 g/m*3 21.3 C 9.7 km/h
1315 18-05-2020 13:30:00 21.4 C 8.06 g/m*3 21.4 C 4.8 km/h
1316 18-05-2020 13:35:00 21.6 C 8.16 g/m*3 21.6 C 16.1 km/h
1317 18-05-2020 13:40:00 21.7 C 8.2 g/m*3 21.7 C 11.3 km/h
1318 18-05-2020 13:45:00 22.1 C 8.39 g/m*3 22.1 C 14.5 km/h
1319 18-05-2020 13:50:00 22.2 C 8.25 g/m*3 22.2 C 14.5 km/h
1320 18-05-2020 13:55:00 22.1 C 7.81 g/m*3 22.1 C 11.3 km/h
1321 18-05-2020 14:00:00 22 C 8.35 g/m*3 22 C 6.4 km/h
1322 18-05-2020 14:05:00 22.2 C 7.85 g/m*3 22.2 C 16.1 km/h
1323 18-05-2020 14:10:00 22.4 C 8.14 g/m*3 22.4 C 11.3 km/h
1324 18-05-2020 14:15:00 22.6 C 8.44 g/m*3 22.6 C 9.7 km/h
1325 18-05-2020 14:20:00 22.8 C 7.92 g/m*3 22.8 C 11.3 km/h
Sensor: Nr:Datum:Temp:Abs-Feuchte:Windchill:Wind:
Aussen-T/F 1326 18-05-2020 14:25:00 22.9 C 8.17 g/m*3 22.9 C 11.3 km/h
1327 18-05-2020 14:30:00 22.8 C 8.13 g/m*3 22.8 C 9.7 km/h
1328 18-05-2020 14:35:00 22.8 C 7.72 g/m*3 22.8 C 3.2 km/h
1329 18-05-2020 14:40:00 23 C 8.22 g/m*3 23 C 11.3 km/h
1330 18-05-2020 14:45:00 23.2 C 7.9 g/m*3 23.2 C 11.3 km/h
1331 18-05-2020 14:50:00 23.4 C 8.41 g/m*3 23.4 C 6.4 km/h
1332 18-05-2020 14:55:00 23.6 C 8.08 g/m*3 23.6 C 11.3 km/h
1333 18-05-2020 15:00:00 23.8 C 7.96 g/m*3 23.8 C 12.9 km/h
1334 18-05-2020 15:05:00 23.8 C 7.96 g/m*3 23.8 C 8.1 km/h
1335 18-05-2020 15:10:00 23.7 C 8.13 g/m*3 23.7 C 4.8 km/h
1336 18-05-2020 15:15:00 23.9 C 8 g/m*3 23.9 C 9.7 km/h
1337 18-05-2020 15:20:00 24.2 C 8.36 g/m*3 24.2 C 17.7 km/h
1338 18-05-2020 15:25:00 24.3 C 8.63 g/m*3 24.3 C 9.7 km/h
1339 18-05-2020 15:30:00 24.4 C 8.23 g/m*3 24.4 C 8.1 km/h
1340 18-05-2020 15:35:00 24.6 C 8.33 g/m*3 24.6 C 8.1 km/h
1341 18-05-2020 15:40:00 24.9 C 8.47 g/m*3 24.9 C 9.7 km/h
1342 18-05-2020 15:45:00 25.1 C 8.57 g/m*3 25.1 C 8.1 km/h
1343 18-05-2020 15:50:00 25.2 C 8.38 g/m*3 25.2 C 9.7 km/h
1344 18-05-2020 15:55:00 25.3 C 8.43 g/m*3 25.3 C 4.8 km/h
1345 18-05-2020 16:00:00 25.1 C 8.33 g/m*3 25.1 C 9.7 km/h
1346 18-05-2020 16:05:00 25.1 C 8.1 g/m*3 25.1 C 9.7 km/h
1347 18-05-2020 16:10:00 24.9 C 8.24 g/m*3 24.9 C 9.7 km/h
1348 18-05-2020 16:15:00 25.1 C 8.33 g/m*3 25.1 C 9.7 km/h
1349 18-05-2020 16:20:00 25.5 C 8.29 g/m*3 25.5 C 12.9 km/h
1350 18-05-2020 16:25:00 25.7 C 8.38 g/m*3 25.7 C 9.7 km/h
Sensor: Nr:Datum:Temp:Abs-Feuchte:Windchill:Wind:
Aussen-T/F 1351 18-05-2020 16:30:00 25.8 C 8.43 g/m*3 25.8 C 9.7 km/h
1352 18-05-2020 16:35:00 25.8 C 8.67 g/m*3 25.8 C 8.1 km/h
1353 18-05-2020 16:40:00 26.2 C 8.62 g/m*3 26.2 C 12.9 km/h
1354 18-05-2020 16:45:00 26.1 C 8.57 g/m*3 26.1 C 12.9 km/h
1355 18-05-2020 16:50:00 25.9 C 8.23 g/m*3 25.9 C 6.4 km/h
1356 18-05-2020 16:55:00 25.9 C 8.47 g/m*3 25.9 C 11.3 km/h
1357 18-05-2020 17:00:00 25.9 C 8.23 g/m*3 25.9 C 9.7 km/h
1358 18-05-2020 17:05:00 25.7 C 8.14 g/m*3 25.7 C 8.1 km/h
1359 18-05-2020 17:10:00 25.8 C 8.67 g/m*3 25.8 C 6.4 km/h
1360 18-05-2020 17:15:00 26 C 8.52 g/m*3 26 C 11.3 km/h
1361 18-05-2020 17:20:00 26 C 8.52 g/m*3 26 C 11.3 km/h
1362 18-05-2020 17:25:00 25.8 C 8.67 g/m*3 25.8 C 6.4 km/h
1363 18-05-2020 17:30:00 25.9 C 8.72 g/m*3 25.9 C 12.9 km/h
1364 18-05-2020 17:35:00 25.8 C 8.67 g/m*3 25.8 C 12.9 km/h
1365 18-05-2020 17:40:00 25.9 C 8.96 g/m*3 25.9 C 6.4 km/h
1366 18-05-2020 17:45:00 25.9 C 8.72 g/m*3 25.9 C 12.9 km/h
1367 18-05-2020 17:50:00 25.8 C 8.91 g/m*3 25.8 C 8.1 km/h
1368 18-05-2020 17:55:00 25.9 C 8.96 g/m*3 25.9 C 11.3 km/h
1369 18-05-2020 18:00:00 26 C 9.01 g/m*3 26 C 9.7 km/h
1370 18-05-2020 18:05:00 26.2 C 9.11 g/m*3 26.2 C 4.8 km/h
1371 18-05-2020 18:10:00 26.1 C 9.06 g/m*3 26.1 C 9.7 km/h
1372 18-05-2020 18:15:00 26 C 9.01 g/m*3 26 C 11.3 km/h
1373 18-05-2020 18:20:00 26 C 9.01 g/m*3 26 C 11.3 km/h
1374 18-05-2020 18:25:00 25.9 C 9.2 g/m*3 25.9 C 9.7 km/h
1375 18-05-2020 18:30:00 25.9 C 9.2 g/m*3 25.9 C 9.7 km/h
Sensor: Nr:Datum:Temp:Abs-Feuchte:Windchill:Wind:
Aussen-T/F 1376 18-05-2020 18:35:00 26.1 C 9.3 g/m*3 26.1 C 6.4 km/h
1377 18-05-2020 18:40:00 26.2 C 9.35 g/m*3 26.2 C 9.7 km/h
1378 18-05-2020 18:45:00 26.1 C 9.55 g/m*3 26.1 C 9.7 km/h
1379 18-05-2020 18:50:00 26.1 C 9.55 g/m*3 26.1 C 6.4 km/h
1380 18-05-2020 18:55:00 26 C 9.49 g/m*3 26 C 8.1 km/h
1381 18-05-2020 19:00:00 25.9 C 9.44 g/m*3 25.9 C 9.7 km/h
1382 18-05-2020 19:05:00 25.8 C 9.39 g/m*3 25.8 C 9.7 km/h
1383 18-05-2020 19:10:00 25.6 C 9.28 g/m*3 25.6 C 9.7 km/h
1384 18-05-2020 19:15:00 25.5 C 9.71 g/m*3 25.5 C 6.4 km/h
1385 18-05-2020 19:20:00 25.1 C 9.49 g/m*3 25.1 C 11.3 km/h
1386 18-05-2020 19:25:00 24.8 C 9.56 g/m*3 24.8 C 9.7 km/h
1387 18-05-2020 19:30:00 24.6 C 9.68 g/m*3 24.6 C 8.1 km/h
1388 18-05-2020 19:35:00 24.5 C 9.62 g/m*3 24.5 C 8.1 km/h
1389 18-05-2020 19:40:00 24.3 C 9.74 g/m*3 24.3 C 8.1 km/h
1390 18-05-2020 19:45:00 24.2 C 9.68 g/m*3 24.2 C 8.1 km/h
1391 18-05-2020 19:50:00 24.1 C 9.85 g/m*3 24.1 C 4.8 km/h
1392 18-05-2020 19:55:00 23.8 C 9.68 g/m*3 23.8 C 3.2 km/h
1393 18-05-2020 20:00:00 23.7 C 9.84 g/m*3 23.7 C 6.4 km/h
1394 18-05-2020 20:05:00 23.6 C 9.78 g/m*3 23.6 C 9.7 km/h
1395 18-05-2020 20:10:00 23.4 C 9.88 g/m*3 23.4 C 4.8 km/h
1396 18-05-2020 20:15:00 23.3 C 9.83 g/m*3 23.3 C 8.1 km/h
1397 18-05-2020 20:20:00 23.2 C 9.98 g/m*3 23.2 C 4.8 km/h
1398 18-05-2020 20:25:00 23 C 9.87 g/m*3 23 C 4.8 km/h
1399 18-05-2020 20:30:00 22.8 C 9.75 g/m*3 22.8 C 6.4 km/h
1400 18-05-2020 20:35:00 22.7 C 9.9 g/m*3 22.7 C 4.8 km/h
Sensor: Nr:Datum:Temp:Abs-Feuchte:Windchill:Wind:
Aussen-T/F 1401 18-05-2020 20:40:00 22.6 C 9.84 g/m*3 22.6 C 6.4 km/h
1402 18-05-2020 20:45:00 22.4 C 9.93 g/m*3 22.4 C 3.2 km/h
1403 18-05-2020 20:50:00 22.2 C 10.21 g/m*3 22.2 C 1.6 km/h
1404 18-05-2020 20:55:00 21.8 C 9.98 g/m*3 21.8 C 1.6 km/h
1405 18-05-2020 21:00:00 21.3 C 10.25 g/m*3 21.3 C 4.8 km/h
1406 18-05-2020 21:05:00 20.9 C 10.02 g/m*3 20.9 C 1.6 km/h
1407 18-05-2020 21:10:00 20.6 C 10.02 g/m*3 20.6 C 0 km/h
1408 18-05-2020 21:15:00 20.2 C 9.97 g/m*3 20.2 C 0 km/h
1409 18-05-2020 21:20:00 19.8 C 9.91 g/m*3 19.8 C 4.8 km/h
1410 18-05-2020 21:25:00 19.5 C 9.73 g/m*3 19.5 C 6.4 km/h
1411 18-05-2020 21:30:00 19.2 C 9.89 g/m*3 19.2 C 3.2 km/h
1412 18-05-2020 21:35:00 18.8 C 9.82 g/m*3 18.8 C 8.1 km/h
1413 18-05-2020 21:40:00 18.6 C 9.71 g/m*3 18.6 C 6.4 km/h
1414 18-05-2020 21:45:00 18.3 C 9.69 g/m*3 18.3 C 9.7 km/h
1415 18-05-2020 21:50:00 18.1 C 9.73 g/m*3 18.1 C 6.4 km/h
1416 18-05-2020 21:55:00 17.9 C 9.77 g/m*3 17.9 C 8.1 km/h
1417 18-05-2020 22:00:00 17.7 C 9.66 g/m*3 17.7 C 6.4 km/h
1418 18-05-2020 22:05:00 17.6 C 9.75 g/m*3 17.6 C 8.1 km/h
1419 18-05-2020 22:10:00 17.4 C 9.63 g/m*3 17.4 C 8.1 km/h
1420 18-05-2020 22:15:00 17.3 C 9.72 g/m*3 17.3 C 4.8 km/h
1421 18-05-2020 22:20:00 17.2 C 9.67 g/m*3 17.2 C 6.4 km/h
1422 18-05-2020 22:25:00 17.1 C 9.75 g/m*3 17.1 C 3.2 km/h
1423 18-05-2020 22:30:00 17 C 9.69 g/m*3 17 C 6.4 km/h
1424 18-05-2020 22:35:00 16.9 C 9.78 g/m*3 16.9 C 1.6 km/h
1425 18-05-2020 22:40:00 16.8 C 9.87 g/m*3 16.8 C 3.2 km/h
Sensor: Nr:Datum:Temp:Abs-Feuchte:Windchill:Wind:
Aussen-T/F 1426 18-05-2020 22:45:00 16.6 C 9.75 g/m*3 16.6 C 4.8 km/h
1427 18-05-2020 22:50:00 16.4 C 9.77 g/m*3 16.4 C 8.1 km/h
1428 18-05-2020 22:55:00 16.3 C 9.71 g/m*3 16.3 C 6.4 km/h
1429 18-05-2020 23:00:00 16.2 C 9.79 g/m*3 16.2 C 6.4 km/h
1430 18-05-2020 23:05:00 16.2 C 9.79 g/m*3 16.2 C 8.1 km/h
1431 18-05-2020 23:10:00 16.1 C 9.73 g/m*3 16.1 C 6.4 km/h
1432 18-05-2020 23:15:00 16 C 9.67 g/m*3 16 C 6.4 km/h
1433 18-05-2020 23:20:00 15.9 C 9.75 g/m*3 15.9 C 4.8 km/h
1434 18-05-2020 23:25:00 15.8 C 9.69 g/m*3 15.8 C 3.2 km/h
1435 18-05-2020 23:30:00 15.7 C 9.77 g/m*3 15.7 C 3.2 km/h
1436 18-05-2020 23:35:00 15.4 C 9.59 g/m*3 15.4 C 6.4 km/h
1437 18-05-2020 23:40:00 15.3 C 9.53 g/m*3 15.3 C 6.4 km/h
1438 18-05-2020 23:45:00 15.3 C 9.66 g/m*3 15.3 C 4.8 km/h
1439 18-05-2020 23:50:00 15.2 C 9.61 g/m*3 15.2 C 1.6 km/h
1440 18-05-2020 23:55:00 15.2 C 9.61 g/m*3 15.2 C 0 km/h
1441 19-05-2020 00:00:00 15 C 9.62 g/m*3 15 C 1.6 km/h
1442 19-05-2020 00:05:00 14.8 C 9.5 g/m*3 14.8 C 1.6 km/h
1443 19-05-2020 00:10:00 14.6 C 9.51 g/m*3 14.6 C 0 km/h
1444 19-05-2020 00:15:00 14.4 C 9.39 g/m*3 14.4 C 0 km/h
1445 19-05-2020 00:20:00 14.1 C 9.22 g/m*3 14.1 C 0 km/h
1446 19-05-2020 00:25:00 13.9 C 9.23 g/m*3 13.9 C 0 km/h
1447 19-05-2020 00:30:00 13.7 C 9.24 g/m*3 13.7 C 0 km/h
1448 19-05-2020 00:35:00 13.4 C 9.18 g/m*3 13.4 C 0 km/h
1449 19-05-2020 00:40:00 13.3 C 9.13 g/m*3 13.3 C 0 km/h
1450 19-05-2020 00:45:00 13.2 C 9.19 g/m*3 13.2 C 0 km/h
Sensor: Nr:Datum:Temp:Abs-Feuchte:Windchill:Wind:
Aussen-T/F 1451 19-05-2020 00:50:00 13 C 9.07 g/m*3 13 C 0 km/h
1452 19-05-2020 00:55:00 12.9 C 9.02 g/m*3 12.9 C 0 km/h
1453 19-05-2020 01:00:00 12.7 C 9.02 g/m*3 12.7 C 1.6 km/h
1454 19-05-2020 01:05:00 12.6 C 9.07 g/m*3 12.6 C 3.2 km/h
1455 19-05-2020 01:10:00 12.4 C 8.96 g/m*3 12.4 C 1.6 km/h
1456 19-05-2020 01:15:00 12.3 C 9.01 g/m*3 12.3 C 4.8 km/h
1457 19-05-2020 01:20:00 12.2 C 8.96 g/m*3 12.2 C 0 km/h
1458 19-05-2020 01:25:00 12.1 C 9.01 g/m*3 12.1 C 1.6 km/h
1459 19-05-2020 01:30:00 12 C 8.95 g/m*3 12 C 0 km/h
1460 19-05-2020 01:35:00 11.9 C 9 g/m*3 11.9 C 4.8 km/h
1461 19-05-2020 01:40:00 11.9 C 9 g/m*3 11.9 C 3.2 km/h
1462 19-05-2020 01:45:00 11.8 C 8.95 g/m*3 11.8 C 0 km/h
1463 19-05-2020 01:50:00 11.6 C 8.83 g/m*3 11.6 C 3.2 km/h
1464 19-05-2020 01:55:00 11.5 C 8.78 g/m*3 11.5 C 0 km/h
1465 19-05-2020 02:00:00 11.5 C 8.78 g/m*3 11.5 C 4.8 km/h
1466 19-05-2020 02:05:00 11.4 C 8.72 g/m*3 11.4 C 3.2 km/h
1467 19-05-2020 02:10:00 11.3 C 8.57 g/m*3 11.3 C 0 km/h
1468 19-05-2020 02:15:00 11.3 C 8.67 g/m*3 11.3 C 3.2 km/h
1469 19-05-2020 02:20:00 11.2 C 8.62 g/m*3 11.2 C 0 km/h
1470 19-05-2020 02:25:00 11.2 C 8.62 g/m*3 11.2 C 0 km/h
1471 19-05-2020 02:30:00 11.1 C 8.56 g/m*3 11.1 C 0 km/h
1472 19-05-2020 02:35:00 10.9 C 8.45 g/m*3 10.9 C 1.6 km/h
1473 19-05-2020 02:40:00 10.8 C 8.4 g/m*3 10.8 C 0 km/h
1474 19-05-2020 02:45:00 10.7 C 8.35 g/m*3 10.7 C 0 km/h
1475 19-05-2020 02:50:00 10.6 C 8.3 g/m*3 10.6 C 0 km/h
Sensor: Nr:Datum:Temp:Abs-Feuchte:Windchill:Wind:
Aussen-T/F 1476 19-05-2020 02:55:00 10.4 C 8.29 g/m*3 10.4 C 0 km/h
1477 19-05-2020 03:00:00 10.4 C 8.29 g/m*3 10.4 C 0 km/h
1478 19-05-2020 03:05:00 10.3 C 8.33 g/m*3 10.3 C 0 km/h
1479 19-05-2020 03:10:00 10.2 C 8.28 g/m*3 10.2 C 0 km/h
1480 19-05-2020 03:15:00 10.1 C 8.23 g/m*3 10.1 C 0 km/h
1481 19-05-2020 03:20:00 9.9 C 8.12 g/m*3 9.9 C 0 km/h
1482 19-05-2020 03:25:00 9.8 C 8.16 g/m*3 9.8 C 0 km/h
1483 19-05-2020 03:30:00 9.7 C 8.11 g/m*3 9.7 C 0 km/h
1484 19-05-2020 03:35:00 9.7 C 8.11 g/m*3 9.7 C 0 km/h
1485 19-05-2020 03:40:00 9.6 C 8.15 g/m*3 9.6 C 0 km/h
1486 19-05-2020 03:45:00 9.5 C 8.1 g/m*3 9.5 C 0 km/h
1487 19-05-2020 03:50:00 9.4 C 8.05 g/m*3 9.4 C 0 km/h
1488 19-05-2020 03:55:00 9.3 C 8 g/m*3 9.3 C 0 km/h
1489 19-05-2020 04:00:00 9.2 C 7.95 g/m*3 9.2 C 0 km/h
1490 19-05-2020 04:05:00 9.1 C 7.99 g/m*3 9.1 C 0 km/h
1491 19-05-2020 04:10:00 9 C 7.93 g/m*3 9 C 1.6 km/h
1492 19-05-2020 04:15:00 8.9 C 7.88 g/m*3 8.9 C 0 km/h
1493 19-05-2020 04:20:00 8.9 C 7.88 g/m*3 8.9 C 0 km/h
1494 19-05-2020 04:25:00 8.9 C 7.97 g/m*3 8.9 C 1.6 km/h
1495 19-05-2020 04:30:00 8.8 C 7.92 g/m*3 8.8 C 3.2 km/h
1496 19-05-2020 04:35:00 8.9 C 7.97 g/m*3 8.9 C 1.6 km/h
1497 19-05-2020 04:40:00 8.8 C 7.92 g/m*3 8.8 C 4.8 km/h
1498 19-05-2020 04:45:00 8.8 C 7.92 g/m*3 8.8 C 1.6 km/h
1499 19-05-2020 04:50:00 8.7 C 7.87 g/m*3 8.7 C 0 km/h
1500 19-05-2020 04:55:00 8.7 C 7.78 g/m*3 8.7 C 3.2 km/h
Sensor: Nr:Datum:Temp:Abs-Feuchte:Windchill:Wind:
Aussen-T/F 1501 19-05-2020 05:00:00 8.7 C 7.78 g/m*3 8.7 C 1.6 km/h
1502 19-05-2020 05:05:00 8.7 C 7.87 g/m*3 8.7 C 0 km/h
1503 19-05-2020 05:10:00 8.6 C 7.73 g/m*3 8.6 C 0 km/h
1504 19-05-2020 05:15:00 8.4 C 7.63 g/m*3 8.4 C 0 km/h
1505 19-05-2020 05:20:00 8.3 C 7.59 g/m*3 8.3 C 0 km/h
1506 19-05-2020 05:25:00 8.3 C 7.59 g/m*3 8.3 C 1.6 km/h
1507 19-05-2020 05:30:00 8.2 C 7.62 g/m*3 8.2 C 3.2 km/h
1508 19-05-2020 05:35:00 8.2 C 7.62 g/m*3 8.2 C 0 km/h
1509 19-05-2020 05:40:00 8.1 C 7.57 g/m*3 8.1 C 0 km/h
1510 19-05-2020 05:45:00 8.1 C 7.57 g/m*3 8.1 C 0 km/h
1511 19-05-2020 05:50:00 8.1 C 7.57 g/m*3 8.1 C 0 km/h
1512 19-05-2020 05:55:00 8.1 C 7.57 g/m*3 8.1 C 1.6 km/h
1513 19-05-2020 06:00:00 8.1 C 7.57 g/m*3 8.1 C 0 km/h
1514 19-05-2020 06:05:00 8 C 7.52 g/m*3 8 C 3.2 km/h
1515 19-05-2020 06:10:00 8.1 C 7.66 g/m*3 8.1 C 0 km/h
1516 19-05-2020 06:15:00 8.1 C 7.66 g/m*3 8.1 C 0 km/h
1517 19-05-2020 06:20:00 8.2 C 7.7 g/m*3 8.2 C 1.6 km/h
1518 19-05-2020 06:25:00 8.2 C 7.7 g/m*3 8.2 C 0 km/h
1519 19-05-2020 06:30:00 8.2 C 7.62 g/m*3 8.2 C 0 km/h
1520 19-05-2020 06:35:00 8.2 C 7.62 g/m*3 8.2 C 0 km/h
1521 19-05-2020 06:40:00 8.1 C 7.57 g/m*3 8.1 C 0 km/h
1522 19-05-2020 06:45:00 8.1 C 7.57 g/m*3 8.1 C 1.6 km/h
1523 19-05-2020 06:50:00 8.1 C 7.57 g/m*3 8.1 C 0 km/h
1524 19-05-2020 06:55:00 8.1 C 7.66 g/m*3 8.1 C 0 km/h
1525 19-05-2020 07:00:00 8.1 C 7.66 g/m*3 8.1 C 1.6 km/h
Sensor: Nr:Datum:Temp:Abs-Feuchte:Windchill:Wind:
Aussen-T/F 1526 19-05-2020 07:05:00 8.2 C 7.7 g/m*3 8.2 C 0 km/h
1527 19-05-2020 07:10:00 8.2 C 7.7 g/m*3 8.2 C 0 km/h
1528 19-05-2020 07:15:00 8.3 C 7.75 g/m*3 8.3 C 0 km/h
1529 19-05-2020 07:20:00 8.3 C 7.75 g/m*3 8.3 C 0 km/h
1530 19-05-2020 07:25:00 8.3 C 7.75 g/m*3 8.3 C 0 km/h
1531 19-05-2020 07:30:00 8.3 C 7.75 g/m*3 8.3 C 0 km/h
1532 19-05-2020 07:35:00 8.4 C 7.8 g/m*3 8.4 C 0 km/h
1533 19-05-2020 07:40:00 8.4 C 7.8 g/m*3 8.4 C 0 km/h
1534 19-05-2020 07:45:00 8.5 C 7.85 g/m*3 8.5 C 0 km/h
1535 19-05-2020 07:50:00 8.6 C 7.91 g/m*3 8.6 C 0 km/h
1536 19-05-2020 07:55:00 8.6 C 7.91 g/m*3 8.6 C 0 km/h
1537 19-05-2020 08:00:00 8.7 C 7.96 g/m*3 8.7 C 3.2 km/h
1538 19-05-2020 08:05:00 8.8 C 8.01 g/m*3 8.8 C 3.2 km/h
1539 19-05-2020 08:10:00 8.8 C 8.01 g/m*3 8.8 C 0 km/h
1540 19-05-2020 08:15:00 8.9 C 8.15 g/m*3 8.9 C 0 km/h
1541 19-05-2020 08:20:00 9.1 C 8.25 g/m*3 9.1 C 0 km/h
1542 19-05-2020 08:25:00 9.2 C 8.3 g/m*3 9.2 C 0 km/h
1543 19-05-2020 08:30:00 9.3 C 8.36 g/m*3 9.3 C 0 km/h
1544 19-05-2020 08:35:00 9.4 C 8.32 g/m*3 9.4 C 0 km/h
1545 19-05-2020 08:40:00 9.6 C 8.43 g/m*3 9.6 C 0 km/h
1546 19-05-2020 08:45:00 9.7 C 8.48 g/m*3 9.7 C 0 km/h
1547 19-05-2020 08:50:00 9.9 C 8.59 g/m*3 9.9 C 0 km/h
1548 19-05-2020 08:55:00 10.1 C 8.7 g/m*3 10.1 C 0 km/h
1549 19-05-2020 09:00:00 10.2 C 8.76 g/m*3 10.2 C 0 km/h
1550 19-05-2020 09:05:00 10.4 C 8.87 g/m*3 10.4 C 0 km/h
Sensor: Nr:Datum:Temp:Abs-Feuchte:Windchill:Wind:
Aussen-T/F 1551 19-05-2020 09:10:00 10.7 C 9.04 g/m*3 10.7 C 0 km/h
1552 19-05-2020 09:15:00 10.8 C 8.99 g/m*3 10.8 C 0 km/h
1553 19-05-2020 09:20:00 11 C 9.11 g/m*3 11 C 0 km/h
1554 19-05-2020 09:25:00 11.3 C 9.18 g/m*3 11.3 C 0 km/h
1555 19-05-2020 09:30:00 11.6 C 9.25 g/m*3 11.6 C 0 km/h
1556 19-05-2020 09:35:00 11.9 C 9.21 g/m*3 11.9 C 3.2 km/h
1557 19-05-2020 09:40:00 12.2 C 9.17 g/m*3 12.2 C 1.6 km/h
1558 19-05-2020 09:45:00 12.6 C 9.18 g/m*3 12.6 C 0 km/h
1559 19-05-2020 09:50:00 12.9 C 9.24 g/m*3 12.9 C 0 km/h
1560 19-05-2020 09:55:00 13.1 C 9.36 g/m*3 13.1 C 0 km/h
1561 19-05-2020 10:00:00 13.2 C 9.19 g/m*3 13.2 C 0 km/h
1562 19-05-2020 10:05:00 13.4 C 9.18 g/m*3 13.4 C 0 km/h
1563 19-05-2020 10:10:00 13.6 C 8.83 g/m*3 13.6 C 0 km/h
1564 19-05-2020 10:15:00 13.9 C 8.99 g/m*3 13.9 C 0 km/h
1565 19-05-2020 10:20:00 14.3 C 8.97 g/m*3 14.3 C 0 km/h
1566 19-05-2020 10:25:00 14.7 C 8.94 g/m*3 14.7 C 0 km/h
1567 19-05-2020 10:30:00 15.1 C 8.64 g/m*3 15.1 C 3.2 km/h
1568 19-05-2020 10:35:00 15.5 C 8.86 g/m*3 15.5 C 1.6 km/h
1569 19-05-2020 10:40:00 15.9 C 8.4 g/m*3 15.9 C 1.6 km/h
1570 19-05-2020 10:45:00 16.4 C 8.23 g/m*3 16.4 C 0 km/h
1571 19-05-2020 10:50:00 16.8 C 8.01 g/m*3 16.8 C 4.8 km/h
1572 19-05-2020 10:55:00 17.5 C 7.45 g/m*3 17.5 C 6.4 km/h
1573 19-05-2020 11:00:00 18.1 C 7.88 g/m*3 18.1 C 1.6 km/h
1574 19-05-2020 11:05:00 18.7 C 7.36 g/m*3 18.7 C 4.8 km/h
1575 19-05-2020 11:10:00 19.1 C 7.54 g/m*3 19.1 C 6.4 km/h
Sensor: Nr:Datum:Temp:Abs-Feuchte:Windchill:Wind:
Aussen-T/F 1576 19-05-2020 11:15:00 19.4 C 7.84 g/m*3 19.4 C 4.8 km/h
1577 19-05-2020 11:20:00 19.7 C 7.47 g/m*3 19.7 C 4.8 km/h
1578 19-05-2020 11:25:00 19.8 C 8.03 g/m*3 19.8 C 0 km/h
1579 19-05-2020 11:30:00 19.8 C 7.86 g/m*3 19.8 C 1.6 km/h
1580 19-05-2020 11:35:00 19.8 C 7.52 g/m*3 19.8 C 3.2 km/h
1581 19-05-2020 11:40:00 19.8 C 7.69 g/m*3 19.8 C 3.2 km/h
1582 19-05-2020 11:45:00 19.9 C 7.56 g/m*3 19.9 C 6.4 km/h
1583 19-05-2020 11:50:00 20 C 7.43 g/m*3 20 C 8.1 km/h
1584 19-05-2020 11:55:00 20.1 C 7.47 g/m*3 20.1 C 3.2 km/h
1585 19-05-2020 12:00:00 20.1 C 7.65 g/m*3 20.1 C 1.6 km/h
1586 19-05-2020 12:05:00 20.1 C 6.95 g/m*3 20.1 C 4.8 km/h
1587 19-05-2020 12:10:00 20.2 C 6.99 g/m*3 20.2 C 6.4 km/h
1588 19-05-2020 12:15:00 20.2 C 7.17 g/m*3 20.2 C 1.6 km/h
1589 19-05-2020 12:20:00 20.2 C 7.17 g/m*3 20.2 C 3.2 km/h
1590 19-05-2020 12:25:00 20.3 C 7.03 g/m*3 20.3 C 1.6 km/h
1591 19-05-2020 12:30:00 20.4 C 7.08 g/m*3 20.4 C 4.8 km/h
1592 19-05-2020 12:35:00 20.4 C 7.43 g/m*3 20.4 C 1.6 km/h
1593 19-05-2020 12:40:00 20.4 C 7.25 g/m*3 20.4 C 1.6 km/h
1594 19-05-2020 12:45:00 20.4 C 6.72 g/m*3 20.4 C 6.4 km/h
1595 19-05-2020 12:50:00 20.6 C 6.62 g/m*3 20.6 C 4.8 km/h
1596 19-05-2020 12:55:00 20.8 C 7.42 g/m*3 20.8 C 1.6 km/h
1597 19-05-2020 13:00:00 20.9 C 7.29 g/m*3 20.9 C 4.8 km/h
1598 19-05-2020 13:05:00 21 C 6.78 g/m*3 21 C 3.2 km/h
1599 19-05-2020 13:10:00 21.2 C 7.23 g/m*3 21.2 C 9.7 km/h
1600 19-05-2020 13:15:00 21.4 C 6.94 g/m*3 21.4 C 9.7 km/h
Sensor: Nr:Datum:Temp:Abs-Feuchte:Windchill:Wind:
Aussen-T/F 1601 19-05-2020 13:20:00 21.7 C 7.25 g/m*3 21.7 C 9.7 km/h
1602 19-05-2020 13:25:00 21.8 C 7.1 g/m*3 21.8 C 12.9 km/h
1603 19-05-2020 13:30:00 22 C 7.18 g/m*3 22 C 8.1 km/h
1604 19-05-2020 13:35:00 22 C 7.38 g/m*3 22 C 6.4 km/h
1605 19-05-2020 13:40:00 22.1 C 7.42 g/m*3 22.1 C 12.9 km/h
1606 19-05-2020 13:45:00 22.2 C 7.07 g/m*3 22.2 C 12.9 km/h
1607 19-05-2020 13:50:00 22.3 C 7.11 g/m*3 22.3 C 14.5 km/h
1608 19-05-2020 13:55:00 22.4 C 7.15 g/m*3 22.4 C 9.7 km/h
1609 19-05-2020 14:00:00 22.4 C 7.55 g/m*3 22.4 C 4.8 km/h
1610 19-05-2020 14:05:00 22.6 C 7.43 g/m*3 22.6 C 11.3 km/h
1611 19-05-2020 14:10:00 23 C 7.4 g/m*3 23 C 12.9 km/h
1612 19-05-2020 14:15:00 23.1 C 7.44 g/m*3 23.1 C 12.9 km/h
1613 19-05-2020 14:20:00 23.1 C 7.44 g/m*3 23.1 C 12.9 km/h
1614 19-05-2020 14:25:00 23.3 C 7.53 g/m*3 23.3 C 14.5 km/h
1615 19-05-2020 14:30:00 23.3 C 7.53 g/m*3 23.3 C 11.3 km/h
1616 19-05-2020 14:35:00 23.4 C 7.78 g/m*3 23.4 C 12.9 km/h
1617 19-05-2020 14:40:00 23.5 C 7.61 g/m*3 23.5 C 11.3 km/h
1618 19-05-2020 14:45:00 23.6 C 8.08 g/m*3 23.6 C 9.7 km/h
1619 19-05-2020 14:50:00 23.7 C 8.13 g/m*3 23.7 C 11.3 km/h
1620 19-05-2020 14:55:00 23.7 C 8.34 g/m*3 23.7 C 11.3 km/h
1621 19-05-2020 15:00:00 23.9 C 8.65 g/m*3 23.9 C 9.7 km/h
1622 19-05-2020 15:05:00 24.2 C 8.58 g/m*3 24.2 C 14.5 km/h
1623 19-05-2020 15:10:00 24.2 C 8.58 g/m*3 24.2 C 16.1 km/h
1624 19-05-2020 15:15:00 24.3 C 8.63 g/m*3 24.3 C 9.7 km/h
1625 19-05-2020 15:20:00 24.3 C 8.41 g/m*3 24.3 C 12.9 km/h
Sensor: Nr:Datum:Temp:Abs-Feuchte:Windchill:Wind:
Aussen-T/F 1626 19-05-2020 15:25:00 24.3 C 8.63 g/m*3 24.3 C 14.5 km/h
1627 19-05-2020 15:30:00 24.3 C 8.19 g/m*3 24.3 C 11.3 km/h
1628 19-05-2020 15:35:00 24.1 C 8.53 g/m*3 24.1 C 9.7 km/h
1629 19-05-2020 15:40:00 24.1 C 8.53 g/m*3 24.1 C 9.7 km/h
1630 19-05-2020 15:45:00 24 C 8.7 g/m*3 24 C 11.3 km/h
1631 19-05-2020 15:50:00 23.9 C 8.65 g/m*3 23.9 C 9.7 km/h
1632 19-05-2020 15:55:00 23.8 C 8.82 g/m*3 23.8 C 11.3 km/h
1633 19-05-2020 16:00:00 24.1 C 8.97 g/m*3 24.1 C 9.7 km/h
1634 19-05-2020 16:05:00 24.4 C 9.12 g/m*3 24.4 C 16.1 km/h
1635 19-05-2020 16:10:00 24.5 C 8.95 g/m*3 24.5 C 12.9 km/h
1636 19-05-2020 16:15:00 24.5 C 8.95 g/m*3 24.5 C 11.3 km/h
1637 19-05-2020 16:20:00 24.6 C 9.23 g/m*3 24.6 C 19.3 km/h
1638 19-05-2020 16:25:00 25.1 C 9.26 g/m*3 25.1 C 12.9 km/h
1639 19-05-2020 16:30:00 25 C 8.98 g/m*3 25 C 14.5 km/h
1640 19-05-2020 16:35:00 24.7 C 9.05 g/m*3 24.7 C 17.7 km/h
1641 19-05-2020 16:40:00 24.8 C 9.1 g/m*3 24.8 C 16.1 km/h
1642 19-05-2020 16:45:00 24.7 C 9.05 g/m*3 24.7 C 14.5 km/h
1643 19-05-2020 16:50:00 24.6 C 9 g/m*3 24.6 C 16.1 km/h
1644 19-05-2020 16:55:00 24.4 C 9.12 g/m*3 24.4 C 16.1 km/h
1645 19-05-2020 17:00:00 24.6 C 9.45 g/m*3 24.6 C 14.5 km/h
1646 19-05-2020 17:05:00 24.8 C 9.56 g/m*3 24.8 C 16.1 km/h
1647 19-05-2020 17:10:00 25.1 C 9.26 g/m*3 25.1 C 17.7 km/h
1648 19-05-2020 17:15:00 25 C 9.44 g/m*3 25 C 11.3 km/h
1649 19-05-2020 17:20:00 25.1 C 9.72 g/m*3 25.1 C 11.3 km/h
1650 19-05-2020 17:25:00 25.5 C 9.71 g/m*3 25.5 C 12.9 km/h
Sensor: Nr:Datum:Temp:Abs-Feuchte:Windchill:Wind:
Aussen-T/F 1651 19-05-2020 17:30:00 25.8 C 9.87 g/m*3 25.8 C 11.3 km/h
1652 19-05-2020 17:35:00 25.7 C 9.58 g/m*3 25.7 C 12.9 km/h
1653 19-05-2020 17:40:00 25.5 C 9.71 g/m*3 25.5 C 11.3 km/h
1654 19-05-2020 17:45:00 25.5 C 9.71 g/m*3 25.5 C 14.5 km/h
1655 19-05-2020 17:50:00 25.3 C 9.6 g/m*3 25.3 C 17.7 km/h
1656 19-05-2020 17:55:00 25.3 C 9.83 g/m*3 25.3 C 12.9 km/h
1657 19-05-2020 18:00:00 25.4 C 9.65 g/m*3 25.4 C 14.5 km/h
1658 19-05-2020 18:05:00 25.5 C 9.71 g/m*3 25.5 C 11.3 km/h
1659 19-05-2020 18:10:00 25.5 C 9.71 g/m*3 25.5 C 14.5 km/h
1660 19-05-2020 18:15:00 25.5 C 9.71 g/m*3 25.5 C 14.5 km/h
1661 19-05-2020 18:20:00 25.4 C 9.65 g/m*3 25.4 C 14.5 km/h
1662 19-05-2020 18:25:00 25.5 C 9.94 g/m*3 25.5 C 12.9 km/h
1663 19-05-2020 18:30:00 25.4 C 9.89 g/m*3 25.4 C 12.9 km/h
1664 19-05-2020 18:35:00 25.4 C 9.89 g/m*3 25.4 C 12.9 km/h
1665 19-05-2020 18:40:00 25.4 C 9.89 g/m*3 25.4 C 11.3 km/h
1666 19-05-2020 18:45:00 25.4 C 9.89 g/m*3 25.4 C 9.7 km/h
1667 19-05-2020 18:50:00 25.5 C 9.94 g/m*3 25.5 C 11.3 km/h
1668 19-05-2020 18:55:00 25.3 C 9.83 g/m*3 25.3 C 16.1 km/h
1669 19-05-2020 19:00:00 25.2 C 10.01 g/m*3 25.2 C 8.1 km/h
1670 19-05-2020 19:05:00 25.2 C 10.01 g/m*3 25.2 C 8.1 km/h
1671 19-05-2020 19:10:00 25 C 9.9 g/m*3 25 C 9.7 km/h
1672 19-05-2020 19:15:00 24.8 C 10.24 g/m*3 24.8 C 9.7 km/h
1673 19-05-2020 19:20:00 24.6 C 9.9 g/m*3 24.6 C 9.7 km/h
1674 19-05-2020 19:25:00 24.4 C 10.24 g/m*3 24.4 C 8.1 km/h
1675 19-05-2020 19:30:00 24.3 C 10.18 g/m*3 24.3 C 11.3 km/h
Sensor: Nr:Datum:Temp:Abs-Feuchte:Windchill:Wind:
Aussen-T/F 1676 19-05-2020 19:35:00 24.1 C 10.28 g/m*3 24.1 C 11.3 km/h
1677 19-05-2020 19:40:00 23.9 C 10.17 g/m*3 23.9 C 11.3 km/h
1678 19-05-2020 19:45:00 23.7 C 10.05 g/m*3 23.7 C 11.3 km/h
1679 19-05-2020 19:50:00 23.6 C 10.21 g/m*3 23.6 C 9.7 km/h
1680 19-05-2020 19:55:00 23.4 C 10.09 g/m*3 23.4 C 9.7 km/h
1681 19-05-2020 20:00:00 23.3 C 10.04 g/m*3 23.3 C 8.1 km/h
1682 19-05-2020 20:05:00 23.1 C 10.13 g/m*3 23.1 C 8.1 km/h
1683 19-05-2020 20:10:00 22.8 C 10.16 g/m*3 22.8 C 6.4 km/h
1684 19-05-2020 20:15:00 22.5 C 9.99 g/m*3 22.5 C 11.3 km/h
1685 19-05-2020 20:20:00 22.4 C 10.53 g/m*3 22.4 C 6.4 km/h
1686 19-05-2020 20:25:00 21.9 C 11.19 g/m*3 21.9 C 4.8 km/h
1687 19-05-2020 20:30:00 21.3 C 10.81 g/m*3 21.3 C 1.6 km/h
1688 19-05-2020 20:35:00 20.9 C 10.38 g/m*3 20.9 C 4.8 km/h
1689 19-05-2020 20:40:00 20.8 C 10.32 g/m*3 20.8 C 6.4 km/h
1690 19-05-2020 20:45:00 20.8 C 10.5 g/m*3 20.8 C 3.2 km/h
1691 19-05-2020 20:50:00 20.8 C 10.32 g/m*3 20.8 C 4.8 km/h
1692 19-05-2020 20:55:00 20.9 C 10.75 g/m*3 20.9 C 3.2 km/h
1693 19-05-2020 21:00:00 20.8 C 10.86 g/m*3 20.8 C 1.6 km/h
1694 19-05-2020 21:05:00 20.7 C 10.98 g/m*3 20.7 C 0 km/h
1695 19-05-2020 21:10:00 20.3 C 10.73 g/m*3 20.3 C 1.6 km/h
1696 19-05-2020 21:15:00 20 C 10.54 g/m*3 20 C 1.6 km/h
1697 19-05-2020 21:20:00 19.7 C 10.53 g/m*3 19.7 C 1.6 km/h
1698 19-05-2020 21:25:00 19.3 C 10.45 g/m*3 19.3 C 0 km/h
1699 19-05-2020 21:30:00 18.9 C 10.37 g/m*3 18.9 C 3.2 km/h
1700 19-05-2020 21:35:00 18.7 C 10.41 g/m*3 18.7 C 0 km/h
Sensor: Nr:Datum:Temp:Abs-Feuchte:Windchill:Wind:
Aussen-T/F 1701 19-05-2020 21:40:00 18.4 C 10.38 g/m*3 18.4 C 1.6 km/h
1702 19-05-2020 21:45:00 18.2 C 10.41 g/m*3 18.2 C 4.8 km/h
1703 19-05-2020 21:50:00 17.9 C 10.23 g/m*3 17.9 C 6.4 km/h
1704 19-05-2020 21:55:00 17.8 C 10.32 g/m*3 17.8 C 6.4 km/h
1705 19-05-2020 22:00:00 17.6 C 10.2 g/m*3 17.6 C 6.4 km/h
1706 19-05-2020 22:05:00 17.4 C 10.23 g/m*3 17.4 C 4.8 km/h
1707 19-05-2020 22:10:00 17.3 C 10.31 g/m*3 17.3 C 4.8 km/h
1708 19-05-2020 22:15:00 17.2 C 10.25 g/m*3 17.2 C 4.8 km/h
1709 19-05-2020 22:20:00 17.1 C 10.19 g/m*3 17.1 C 3.2 km/h
1710 19-05-2020 22:25:00 17.1 C 10.34 g/m*3 17.1 C 4.8 km/h
1711 19-05-2020 22:30:00 16.9 C 10.07 g/m*3 16.9 C 4.8 km/h
1712 19-05-2020 22:35:00 16.9 C 10.21 g/m*3 16.9 C 1.6 km/h
1713 19-05-2020 22:40:00 16.8 C 10.29 g/m*3 16.8 C 3.2 km/h
1714 19-05-2020 22:45:00 16.7 C 10.23 g/m*3 16.7 C 4.8 km/h
1715 19-05-2020 22:50:00 16.6 C 10.31 g/m*3 16.6 C 3.2 km/h
1716 19-05-2020 22:55:00 16.4 C 10.19 g/m*3 16.4 C 3.2 km/h
1717 19-05-2020 23:00:00 16.3 C 10.27 g/m*3 16.3 C 4.8 km/h
1718 19-05-2020 23:05:00 16.1 C 10.28 g/m*3 16.1 C 1.6 km/h
1719 19-05-2020 23:10:00 15.9 C 10.16 g/m*3 15.9 C 3.2 km/h
1720 19-05-2020 23:15:00 15.8 C 10.23 g/m*3 15.8 C 0 km/h
1721 19-05-2020 23:20:00 15.7 C 10.17 g/m*3 15.7 C 0 km/h
1722 19-05-2020 23:25:00 15.6 C 10.24 g/m*3 15.6 C 0 km/h
1723 19-05-2020 23:30:00 15.5 C 10.18 g/m*3 15.5 C 0 km/h
1724 19-05-2020 23:35:00 15.4 C 10.12 g/m*3 15.4 C 0 km/h
1725 19-05-2020 23:40:00 15.3 C 10.19 g/m*3 15.3 C 0 km/h
Sensor: Nr:Datum:Temp:Abs-Feuchte:Windchill:Wind:
Aussen-T/F 1726 19-05-2020 23:45:00 15.2 C 10.12 g/m*3 15.2 C 0 km/h
1727 19-05-2020 23:50:00 15.1 C 10.19 g/m*3 15.1 C 0 km/h
1728 19-05-2020 23:55:00 15.1 C 10.32 g/m*3 15.1 C 0 km/h
1729 20-05-2020 00:00:00 15.1 C 10.45 g/m*3 15.1 C 0 km/h
1730 20-05-2020 00:05:00 15.1 C 10.45 g/m*3 15.1 C 0 km/h
1731 20-05-2020 00:10:00 15.1 C 10.45 g/m*3 15.1 C 0 km/h
1732 20-05-2020 00:15:00 15.1 C 10.45 g/m*3 15.1 C 0 km/h
1733 20-05-2020 00:20:00 15.1 C 10.45 g/m*3 15.1 C 0 km/h
1734 20-05-2020 00:25:00 15.1 C 10.45 g/m*3 15.1 C 0 km/h
1735 20-05-2020 00:30:00 15.1 C 10.45 g/m*3 15.1 C 0 km/h
1736 20-05-2020 00:35:00 14.9 C 10.32 g/m*3 14.9 C 0 km/h
1737 20-05-2020 00:40:00 14.8 C 10.13 g/m*3 14.8 C 0 km/h
1738 20-05-2020 00:45:00 14.7 C 10.2 g/m*3 14.7 C 0 km/h
1739 20-05-2020 00:50:00 14.5 C 10.07 g/m*3 14.5 C 0 km/h
1740 20-05-2020 00:55:00 14.3 C 9.95 g/m*3 14.3 C 0 km/h
1741 20-05-2020 01:00:00 14.2 C 10.01 g/m*3 14.2 C 0 km/h
1742 20-05-2020 01:05:00 14.1 C 10.07 g/m*3 14.1 C 0 km/h
1743 20-05-2020 01:10:00 13.9 C 9.95 g/m*3 13.9 C 0 km/h
1744 20-05-2020 01:15:00 13.9 C 9.95 g/m*3 13.9 C 0 km/h
1745 20-05-2020 01:20:00 13.8 C 9.89 g/m*3 13.8 C 0 km/h
1746 20-05-2020 01:25:00 13.7 C 9.95 g/m*3 13.7 C 0 km/h
1747 20-05-2020 01:30:00 13.6 C 9.89 g/m*3 13.6 C 0 km/h
1748 20-05-2020 01:35:00 13.5 C 9.83 g/m*3 13.5 C 0 km/h
1749 20-05-2020 01:40:00 13.4 C 9.88 g/m*3 13.4 C 0 km/h
1750 20-05-2020 01:45:00 13.3 C 9.82 g/m*3 13.3 C 0 km/h
Sensor: Nr:Datum:Temp:Abs-Feuchte:Windchill:Wind:
Aussen-T/F 1751 20-05-2020 01:50:00 13.3 C 9.82 g/m*3 13.3 C 0 km/h
1752 20-05-2020 01:55:00 13.2 C 9.76 g/m*3 13.2 C 0 km/h
1753 20-05-2020 02:00:00 13.1 C 9.7 g/m*3 13.1 C 0 km/h
1754 20-05-2020 02:05:00 13 C 9.75 g/m*3 13 C 0 km/h
1755 20-05-2020 02:10:00 12.9 C 9.69 g/m*3 12.9 C 0 km/h
1756 20-05-2020 02:15:00 12.9 C 9.81 g/m*3 12.9 C 0 km/h
1757 20-05-2020 02:20:00 12.8 C 9.74 g/m*3 12.8 C 0 km/h
1758 20-05-2020 02:25:00 12.8 C 9.74 g/m*3 12.8 C 0 km/h
1759 20-05-2020 02:30:00 12.8 C 9.74 g/m*3 12.8 C 0 km/h
1760 20-05-2020 02:35:00 12.8 C 9.74 g/m*3 12.8 C 1.6 km/h
1761 20-05-2020 02:40:00 12.8 C 9.74 g/m*3 12.8 C 0 km/h
1762 20-05-2020 02:45:00 12.7 C 9.68 g/m*3 12.7 C 0 km/h
1763 20-05-2020 02:50:00 12.7 C 9.68 g/m*3 12.7 C 3.2 km/h
1764 20-05-2020 02:55:00 12.6 C 9.74 g/m*3 12.6 C 0 km/h
1765 20-05-2020 03:00:00 12.6 C 9.74 g/m*3 12.6 C 0 km/h
1766 20-05-2020 03:05:00 12.5 C 9.68 g/m*3 12.5 C 0 km/h
1767 20-05-2020 03:10:00 12.4 C 9.62 g/m*3 12.4 C 0 km/h
1768 20-05-2020 03:15:00 12.3 C 9.56 g/m*3 12.3 C 0 km/h
1769 20-05-2020 03:20:00 12.3 C 9.56 g/m*3 12.3 C 0 km/h
1770 20-05-2020 03:25:00 12.2 C 9.6 g/m*3 12.2 C 0 km/h
1771 20-05-2020 03:30:00 12.2 C 9.6 g/m*3 12.2 C 4.8 km/h
1772 20-05-2020 03:35:00 12.2 C 9.6 g/m*3 12.2 C 1.6 km/h
1773 20-05-2020 03:40:00 12.1 C 9.54 g/m*3 12.1 C 0 km/h
1774 20-05-2020 03:45:00 12.1 C 9.54 g/m*3 12.1 C 1.6 km/h
1775 20-05-2020 03:50:00 12.1 C 9.65 g/m*3 12.1 C 3.2 km/h
Sensor: Nr:Datum:Temp:Abs-Feuchte:Windchill:Wind:
Aussen-T/F 1776 20-05-2020 03:55:00 12.1 C 9.65 g/m*3 12.1 C 8.1 km/h
1777 20-05-2020 04:00:00 12.1 C 9.65 g/m*3 12.1 C 3.2 km/h
1778 20-05-2020 04:05:00 12.1 C 9.65 g/m*3 12.1 C 0 km/h
1779 20-05-2020 04:10:00 12.1 C 9.65 g/m*3 12.1 C 0 km/h
1780 20-05-2020 04:15:00 12 C 9.59 g/m*3 12 C 0 km/h
1781 20-05-2020 04:20:00 11.9 C 9.53 g/m*3 11.9 C 0 km/h
1782 20-05-2020 04:25:00 11.8 C 9.47 g/m*3 11.8 C 1.6 km/h
1783 20-05-2020 04:30:00 11.8 C 9.58 g/m*3 11.8 C 8.1 km/h
1784 20-05-2020 04:35:00 11.9 C 9.64 g/m*3 11.9 C 8.1 km/h
1785 20-05-2020 04:40:00 11.9 C 9.64 g/m*3 11.9 C 3.2 km/h
1786 20-05-2020 04:45:00 11.9 C 9.64 g/m*3 11.9 C 3.2 km/h
1787 20-05-2020 04:50:00 11.8 C 9.47 g/m*3 11.8 C 0 km/h
1788 20-05-2020 04:55:00 11.7 C 9.41 g/m*3 11.7 C 0 km/h
1789 20-05-2020 05:00:00 11.6 C 9.35 g/m*3 11.6 C 0 km/h
1790 20-05-2020 05:05:00 11.4 C 9.24 g/m*3 11.4 C 0 km/h
1791 20-05-2020 05:10:00 11.3 C 9.28 g/m*3 11.3 C 0 km/h
1792 20-05-2020 05:15:00 11.3 C 9.28 g/m*3 11.3 C 1.6 km/h
1793 20-05-2020 05:20:00 11.3 C 9.28 g/m*3 11.3 C 0 km/h
1794 20-05-2020 05:25:00 11.2 C 9.22 g/m*3 11.2 C 0 km/h
1795 20-05-2020 05:30:00 11.2 C 9.22 g/m*3 11.2 C 0 km/h
1796 20-05-2020 05:35:00 11.2 C 9.33 g/m*3 11.2 C 0 km/h
1797 20-05-2020 05:40:00 11.2 C 9.33 g/m*3 11.2 C 0 km/h
1798 20-05-2020 05:45:00 11.3 C 9.38 g/m*3 11.3 C 0 km/h
1799 20-05-2020 05:50:00 11.3 C 9.38 g/m*3 11.3 C 0 km/h
1800 20-05-2020 05:55:00 11.3 C 9.38 g/m*3 11.3 C 1.6 km/h
Sensor: Nr:Datum:Temp:Abs-Feuchte:Windchill:Wind:
Aussen-T/F 1801 20-05-2020 06:00:00 11.3 C 9.38 g/m*3 11.3 C 1.6 km/h
1802 20-05-2020 06:05:00 11.4 C 9.44 g/m*3 11.4 C 0 km/h
1803 20-05-2020 06:10:00 11.4 C 9.44 g/m*3 11.4 C 0 km/h
1804 20-05-2020 06:15:00 11.4 C 9.44 g/m*3 11.4 C 0 km/h
1805 20-05-2020 06:20:00 11.4 C 9.44 g/m*3 11.4 C 0 km/h
1806 20-05-2020 06:25:00 11.4 C 9.44 g/m*3 11.4 C 0 km/h
1807 20-05-2020 06:30:00 11.4 C 9.44 g/m*3 11.4 C 0 km/h
1808 20-05-2020 06:35:00 11.4 C 9.44 g/m*3 11.4 C 0 km/h
1809 20-05-2020 06:40:00 11.5 C 9.61 g/m*3 11.5 C 0 km/h
1810 20-05-2020 06:45:00 11.6 C 9.67 g/m*3 11.6 C 0 km/h
1811 20-05-2020 06:50:00 11.6 C 9.56 g/m*3 11.6 C 0 km/h
1812 20-05-2020 06:55:00 11.6 C 9.56 g/m*3 11.6 C 0 km/h
1813 20-05-2020 07:00:00 11.6 C 9.56 g/m*3 11.6 C 0 km/h
1814 20-05-2020 07:05:00 11.6 C 9.56 g/m*3 11.6 C 0 km/h
1815 20-05-2020 07:10:00 11.6 C 9.56 g/m*3 11.6 C 1.6 km/h
1816 20-05-2020 07:15:00 11.7 C 9.73 g/m*3 11.7 C 0 km/h
1817 20-05-2020 07:20:00 11.7 C 9.73 g/m*3 11.7 C 4.8 km/h
1818 20-05-2020 07:25:00 11.8 C 9.79 g/m*3 11.8 C 0 km/h
1819 20-05-2020 07:30:00 11.8 C 9.79 g/m*3 11.8 C 4.8 km/h
1820 20-05-2020 07:35:00 12 C 9.91 g/m*3 12 C 3.2 km/h
1821 20-05-2020 07:40:00 12.2 C 10.04 g/m*3 12.2 C 3.2 km/h
1822 20-05-2020 07:45:00 12.3 C 10.21 g/m*3 12.3 C 1.6 km/h
1823 20-05-2020 07:50:00 12.6 C 10.4 g/m*3 12.6 C 1.6 km/h
1824 20-05-2020 07:55:00 12.8 C 10.42 g/m*3 12.8 C 6.4 km/h
1825 20-05-2020 08:00:00 13.1 C 10.61 g/m*3 13.1 C 3.2 km/h
Sensor: Nr:Datum:Temp:Abs-Feuchte:Windchill:Wind:
Aussen-T/F 1826 20-05-2020 08:05:00 13.2 C 10.68 g/m*3 13.2 C 0 km/h
1827 20-05-2020 08:10:00 13.4 C 10.81 g/m*3 13.4 C 9.7 km/h
1828 20-05-2020 08:15:00 13.8 C 10.84 g/m*3 13.8 C 9.7 km/h
1829 20-05-2020 08:20:00 14.3 C 10.93 g/m*3 14.3 C 6.4 km/h
1830 20-05-2020 08:25:00 14.7 C 10.95 g/m*3 14.7 C 6.4 km/h
1831 20-05-2020 08:30:00 15.2 C 11.03 g/m*3 15.2 C 9.7 km/h
1832 20-05-2020 08:35:00 15.6 C 11.17 g/m*3 15.6 C 9.7 km/h
1833 20-05-2020 08:40:00 15.8 C 11.17 g/m*3 15.8 C 6.4 km/h
1834 20-05-2020 08:45:00 15.9 C 11.1 g/m*3 15.9 C 9.7 km/h
1835 20-05-2020 08:50:00 16.1 C 11.1 g/m*3 16.1 C 6.4 km/h
1836 20-05-2020 08:55:00 16.3 C 11.24 g/m*3 16.3 C 9.7 km/h
1837 20-05-2020 09:00:00 16.4 C 11.17 g/m*3 16.4 C 8.1 km/h
1838 20-05-2020 09:05:00 16.5 C 11.23 g/m*3 16.5 C 9.7 km/h
1839 20-05-2020 09:10:00 16.6 C 11.16 g/m*3 16.6 C 8.1 km/h
1840 20-05-2020 09:15:00 16.7 C 11.23 g/m*3 16.7 C 6.4 km/h
1841 20-05-2020 09:20:00 16.8 C 11.29 g/m*3 16.8 C 9.7 km/h
1842 20-05-2020 09:25:00 16.9 C 11.22 g/m*3 16.9 C 12.9 km/h
1843 20-05-2020 09:30:00 17.1 C 11.35 g/m*3 17.1 C 6.4 km/h
1844 20-05-2020 09:35:00 17.1 C 11.21 g/m*3 17.1 C 8.1 km/h
1845 20-05-2020 09:40:00 17.2 C 11.28 g/m*3 17.2 C 4.8 km/h
1846 20-05-2020 09:45:00 17.3 C 11.34 g/m*3 17.3 C 4.8 km/h
1847 20-05-2020 09:50:00 17.4 C 11.26 g/m*3 17.4 C 11.3 km/h
1848 20-05-2020 09:55:00 17.6 C 11.25 g/m*3 17.6 C 9.7 km/h
1849 20-05-2020 10:00:00 17.7 C 11.32 g/m*3 17.7 C 9.7 km/h
1850 20-05-2020 10:05:00 17.8 C 11.23 g/m*3 17.8 C 14.5 km/h
Sensor: Nr:Datum:Temp:Abs-Feuchte:Windchill:Wind:
Aussen-T/F 1851 20-05-2020 10:10:00 18 C 11.37 g/m*3 18 C 8.1 km/h
1852 20-05-2020 10:15:00 18.3 C 11.57 g/m*3 18.3 C 8.1 km/h
1853 20-05-2020 10:20:00 18.5 C 11.39 g/m*3 18.5 C 8.1 km/h
1854 20-05-2020 10:25:00 18.6 C 11.3 g/m*3 18.6 C 8.1 km/h
1855 20-05-2020 10:30:00 18.8 C 11.43 g/m*3 18.8 C 8.1 km/h
1856 20-05-2020 10:35:00 18.9 C 11.5 g/m*3 18.9 C 8.1 km/h
1857 20-05-2020 10:40:00 19 C 11.57 g/m*3 19 C 9.7 km/h
1858 20-05-2020 10:45:00 19.2 C 11.71 g/m*3 19.2 C 6.4 km/h
1859 20-05-2020 10:50:00 19.2 C 11.54 g/m*3 19.2 C 6.4 km/h
1860 20-05-2020 10:55:00 19.3 C 11.61 g/m*3 19.3 C 11.3 km/h
1861 20-05-2020 11:00:00 19.4 C 11.51 g/m*3 19.4 C 9.7 km/h
1862 20-05-2020 11:05:00 19.4 C 11.35 g/m*3 19.4 C 6.4 km/h
1863 20-05-2020 11:10:00 19.6 C 11.48 g/m*3 19.6 C 9.7 km/h
1864 20-05-2020 11:15:00 19.7 C 11.55 g/m*3 19.7 C 12.9 km/h
1865 20-05-2020 11:20:00 19.7 C 11.55 g/m*3 19.7 C 9.7 km/h
1866 20-05-2020 11:25:00 19.7 C 11.38 g/m*3 19.7 C 9.7 km/h
1867 20-05-2020 11:30:00 19.7 C 11.55 g/m*3 19.7 C 8.1 km/h
1868 20-05-2020 11:35:00 19.6 C 11.48 g/m*3 19.6 C 14.5 km/h
1869 20-05-2020 11:40:00 19.6 C 11.48 g/m*3 19.6 C 11.3 km/h
1870 20-05-2020 11:45:00 19.6 C 11.48 g/m*3 19.6 C 11.3 km/h
1871 20-05-2020 11:50:00 19.6 C 11.65 g/m*3 19.6 C 9.7 km/h
1872 20-05-2020 11:55:00 19.7 C 11.55 g/m*3 19.7 C 9.7 km/h
1873 20-05-2020 12:00:00 19.8 C 11.44 g/m*3 19.8 C 9.7 km/h
1874 20-05-2020 12:05:00 19.9 C 11.51 g/m*3 19.9 C 4.8 km/h
1875 20-05-2020 12:10:00 20.1 C 11.47 g/m*3 20.1 C 8.1 km/h
Sensor: Nr:Datum:Temp:Abs-Feuchte:Windchill:Wind:
Aussen-T/F 1876 20-05-2020 12:15:00 20.1 C 11.65 g/m*3 20.1 C 11.3 km/h
1877 20-05-2020 12:20:00 20.2 C 11.71 g/m*3 20.2 C 4.8 km/h
1878 20-05-2020 12:25:00 20.3 C 11.43 g/m*3 20.3 C 14.5 km/h
1879 20-05-2020 12:30:00 20.3 C 11.61 g/m*3 20.3 C 9.7 km/h
1880 20-05-2020 12:35:00 20.2 C 11.54 g/m*3 20.2 C 6.4 km/h
1881 20-05-2020 12:40:00 20.3 C 11.43 g/m*3 20.3 C 9.7 km/h
1882 20-05-2020 12:45:00 20.5 C 11.57 g/m*3 20.5 C 12.9 km/h
1883 20-05-2020 12:50:00 20.6 C 11.45 g/m*3 20.6 C 11.3 km/h
1884 20-05-2020 12:55:00 20.7 C 11.52 g/m*3 20.7 C 14.5 km/h
1885 20-05-2020 13:00:00 20.8 C 11.59 g/m*3 20.8 C 9.7 km/h
1886 20-05-2020 13:05:00 21.1 C 11.79 g/m*3 21.1 C 12.9 km/h
1887 20-05-2020 13:10:00 21 C 11.36 g/m*3 21 C 11.3 km/h
1888 20-05-2020 13:15:00 20.9 C 11.47 g/m*3 20.9 C 8.1 km/h
1889 20-05-2020 13:20:00 21.1 C 11.42 g/m*3 21.1 C 14.5 km/h
1890 20-05-2020 13:25:00 21.2 C 11.49 g/m*3 21.2 C 6.4 km/h
1891 20-05-2020 13:30:00 21.3 C 11.56 g/m*3 21.3 C 9.7 km/h
1892 20-05-2020 13:35:00 21.3 C 11.37 g/m*3 21.3 C 12.9 km/h
1893 20-05-2020 13:40:00 21.2 C 11.3 g/m*3 21.2 C 9.7 km/h
1894 20-05-2020 13:45:00 21.2 C 11.12 g/m*3 21.2 C 14.5 km/h
1895 20-05-2020 13:50:00 21.3 C 11.37 g/m*3 21.3 C 14.5 km/h
1896 20-05-2020 13:55:00 21.4 C 11.25 g/m*3 21.4 C 11.3 km/h
1897 20-05-2020 14:00:00 21.3 C 11.37 g/m*3 21.3 C 12.9 km/h
1898 20-05-2020 14:05:00 21.4 C 11.44 g/m*3 21.4 C 12.9 km/h
1899 20-05-2020 14:10:00 21.4 C 11.25 g/m*3 21.4 C 16.1 km/h
1900 20-05-2020 14:15:00 21.6 C 11.38 g/m*3 21.6 C 8.1 km/h
Sensor: Nr:Datum:Temp:Abs-Feuchte:Windchill:Wind:
Aussen-T/F 1901 20-05-2020 14:20:00 21.7 C 11.25 g/m*3 21.7 C 12.9 km/h
1902 20-05-2020 14:25:00 21.7 C 11.45 g/m*3 21.7 C 11.3 km/h
1903 20-05-2020 14:30:00 21.8 C 11.51 g/m*3 21.8 C 14.5 km/h
1904 20-05-2020 14:35:00 22.1 C 11.52 g/m*3 22.1 C 12.9 km/h
1905 20-05-2020 14:40:00 22.3 C 11.65 g/m*3 22.3 C 12.9 km/h
1906 20-05-2020 14:45:00 22.6 C 11.65 g/m*3 22.6 C 8.1 km/h
1907 20-05-2020 14:50:00 22.5 C 11.39 g/m*3 22.5 C 14.5 km/h
1908 20-05-2020 14:55:00 22.3 C 11.45 g/m*3 22.3 C 9.7 km/h
1909 20-05-2020 15:00:00 22.3 C 11.85 g/m*3 22.3 C 12.9 km/h
1910 20-05-2020 15:05:00 22.4 C 11.52 g/m*3 22.4 C 9.7 km/h
1911 20-05-2020 15:10:00 22.5 C 11.58 g/m*3 22.5 C 4.8 km/h
1912 20-05-2020 15:15:00 22.6 C 11.45 g/m*3 22.6 C 12.9 km/h
1913 20-05-2020 15:20:00 22.8 C 11.38 g/m*3 22.8 C 8.1 km/h
1914 20-05-2020 15:25:00 22.9 C 11.65 g/m*3 22.9 C 11.3 km/h
1915 20-05-2020 15:30:00 23.3 C 11.71 g/m*3 23.3 C 9.7 km/h
1916 20-05-2020 15:35:00 23.7 C 11.34 g/m*3 23.7 C 12.9 km/h
1917 20-05-2020 15:40:00 23.8 C 11.19 g/m*3 23.8 C 4.8 km/h
1918 20-05-2020 15:45:00 23.9 C 11.25 g/m*3 23.9 C 9.7 km/h
1919 20-05-2020 15:50:00 24.2 C 11.44 g/m*3 24.2 C 9.7 km/h
1920 20-05-2020 15:55:00 24.3 C 11.51 g/m*3 24.3 C 11.3 km/h
1921 20-05-2020 16:00:00 24.4 C 11.35 g/m*3 24.4 C 11.3 km/h
1922 20-05-2020 16:05:00 24.5 C 11.41 g/m*3 24.5 C 12.9 km/h
1923 20-05-2020 16:10:00 24.6 C 11.48 g/m*3 24.6 C 8.1 km/h
1924 20-05-2020 16:15:00 24.7 C 11.09 g/m*3 24.7 C 12.9 km/h
1925 20-05-2020 16:20:00 24.4 C 10.9 g/m*3 24.4 C 12.9 km/h
Sensor: Nr:Datum:Temp:Abs-Feuchte:Windchill:Wind:
Aussen-T/F 1926 20-05-2020 16:25:00 24.1 C 10.94 g/m*3 24.1 C 14.5 km/h
1927 20-05-2020 16:30:00 23.7 C 11.12 g/m*3 23.7 C 16.1 km/h
1928 20-05-2020 16:35:00 23.8 C 11.19 g/m*3 23.8 C 11.3 km/h
1929 20-05-2020 16:40:00 24.3 C 11.06 g/m*3 24.3 C 6.4 km/h
1930 20-05-2020 16:45:00 24.2 C 11 g/m*3 24.2 C 14.5 km/h
1931 20-05-2020 16:50:00 24.1 C 10.94 g/m*3 24.1 C 9.7 km/h
1932 20-05-2020 16:55:00 24.2 C 11 g/m*3 24.2 C 12.9 km/h
1933 20-05-2020 17:00:00 24.4 C 11.13 g/m*3 24.4 C 6.4 km/h
1934 20-05-2020 17:05:00 24.8 C 11.15 g/m*3 24.8 C 19.3 km/h
1935 20-05-2020 17:10:00 25.1 C 11.34 g/m*3 25.1 C 19.3 km/h
1936 20-05-2020 17:15:00 24.9 C 10.99 g/m*3 24.9 C 16.1 km/h
1937 20-05-2020 17:20:00 24.4 C 11.13 g/m*3 24.4 C 11.3 km/h
1938 20-05-2020 17:25:00 24.3 C 11.29 g/m*3 24.3 C 8.1 km/h
1939 20-05-2020 17:30:00 24.2 C 11 g/m*3 24.2 C 6.4 km/h
1940 20-05-2020 17:35:00 24.4 C 10.9 g/m*3 24.4 C 9.7 km/h
1941 20-05-2020 17:40:00 24.6 C 10.8 g/m*3 24.6 C 12.9 km/h
1942 20-05-2020 17:45:00 24.4 C 10.9 g/m*3 24.4 C 9.7 km/h
1943 20-05-2020 17:50:00 24.5 C 11.19 g/m*3 24.5 C 8.1 km/h
1944 20-05-2020 17:55:00 24.3 C 10.62 g/m*3 24.3 C 12.9 km/h
1945 20-05-2020 18:00:00 24.2 C 10.56 g/m*3 24.2 C 9.7 km/h
1946 20-05-2020 18:05:00 24.3 C 11.06 g/m*3 24.3 C 8.1 km/h
1947 20-05-2020 18:10:00 24.6 C 10.8 g/m*3 24.6 C 9.7 km/h
1948 20-05-2020 18:15:00 24.4 C 10.9 g/m*3 24.4 C 9.7 km/h
1949 20-05-2020 18:20:00 24.4 C 10.9 g/m*3 24.4 C 8.1 km/h
1950 20-05-2020 18:25:00 24.5 C 10.97 g/m*3 24.5 C 8.1 km/h
Sensor: Nr:Datum:Temp:Abs-Feuchte:Windchill:Wind:
Aussen-T/F 1951 20-05-2020 18:30:00 24.6 C 11.03 g/m*3 24.6 C 9.7 km/h
1952 20-05-2020 18:35:00 24.6 C 10.8 g/m*3 24.6 C 8.1 km/h
1953 20-05-2020 18:40:00 24.6 C 10.8 g/m*3 24.6 C 4.8 km/h
1954 20-05-2020 18:45:00 24.8 C 10.7 g/m*3 24.8 C 8.1 km/h
1955 20-05-2020 18:50:00 24.8 C 10.93 g/m*3 24.8 C 6.4 km/h
1956 20-05-2020 18:55:00 24.4 C 10.68 g/m*3 24.4 C 14.5 km/h
1957 20-05-2020 19:00:00 24.1 C 10.72 g/m*3 24.1 C 9.7 km/h
1958 20-05-2020 19:05:00 24.2 C 11 g/m*3 24.2 C 8.1 km/h
1959 20-05-2020 19:10:00 24.1 C 10.94 g/m*3 24.1 C 6.4 km/h
1960 20-05-2020 19:15:00 24 C 10.88 g/m*3 24 C 9.7 km/h
1961 20-05-2020 19:20:00 23.8 C 10.76 g/m*3 23.8 C 8.1 km/h
1962 20-05-2020 19:25:00 23.7 C 10.69 g/m*3 23.7 C 8.1 km/h
1963 20-05-2020 19:30:00 23.5 C 10.79 g/m*3 23.5 C 11.3 km/h
1964 20-05-2020 19:35:00 23.3 C 10.66 g/m*3 23.3 C 11.3 km/h
1965 20-05-2020 19:40:00 23.2 C 10.81 g/m*3 23.2 C 8.1 km/h
1966 20-05-2020 19:45:00 23 C 10.89 g/m*3 23 C 9.7 km/h
1967 20-05-2020 19:50:00 22.9 C 10.83 g/m*3 22.9 C 9.7 km/h
1968 20-05-2020 19:55:00 22.8 C 10.77 g/m*3 22.8 C 6.4 km/h
1969 20-05-2020 20:00:00 22.8 C 10.77 g/m*3 22.8 C 6.4 km/h
1970 20-05-2020 20:05:00 22.7 C 10.71 g/m*3 22.7 C 6.4 km/h
1971 20-05-2020 20:10:00 22.4 C 10.72 g/m*3 22.4 C 4.8 km/h
1972 20-05-2020 20:15:00 22.3 C 10.86 g/m*3 22.3 C 6.4 km/h
1973 20-05-2020 20:20:00 22.2 C 10.8 g/m*3 22.2 C 6.4 km/h
1974 20-05-2020 20:25:00 22 C 10.67 g/m*3 22 C 3.2 km/h
1975 20-05-2020 20:30:00 21.9 C 10.61 g/m*3 21.9 C 4.8 km/h
Sensor: Nr:Datum:Temp:Abs-Feuchte:Windchill:Wind:
Aussen-T/F 1976 20-05-2020 20:35:00 21.7 C 10.68 g/m*3 21.7 C 4.8 km/h
1977 20-05-2020 20:40:00 21.6 C 10.62 g/m*3 21.6 C 4.8 km/h
1978 20-05-2020 20:45:00 21.4 C 10.87 g/m*3 21.4 C 3.2 km/h
1979 20-05-2020 20:50:00 21.2 C 10.93 g/m*3 21.2 C 4.8 km/h
1980 20-05-2020 20:55:00 21 C 10.99 g/m*3 21 C 1.6 km/h
1981 20-05-2020 21:00:00 20.6 C 10.74 g/m*3 20.6 C 6.4 km/h
1982 20-05-2020 21:05:00 20.3 C 10.73 g/m*3 20.3 C 6.4 km/h
1983 20-05-2020 21:10:00 20.1 C 10.6 g/m*3 20.1 C 8.1 km/h
1984 20-05-2020 21:15:00 20 C 10.54 g/m*3 20 C 4.8 km/h
1985 20-05-2020 21:20:00 20 C 10.71 g/m*3 20 C 6.4 km/h
1986 20-05-2020 21:25:00 19.9 C 11 g/m*3 19.9 C 3.2 km/h
1987 20-05-2020 21:30:00 19.6 C 10.97 g/m*3 19.6 C 4.8 km/h
1988 20-05-2020 21:35:00 19.1 C 10.82 g/m*3 19.1 C 1.6 km/h
1989 20-05-2020 21:40:00 18.6 C 10.66 g/m*3 18.6 C 3.2 km/h
1990 20-05-2020 21:45:00 18.2 C 10.57 g/m*3 18.2 C 3.2 km/h
1991 20-05-2020 21:50:00 17.8 C 10.62 g/m*3 17.8 C 4.8 km/h
1992 20-05-2020 21:55:00 17.5 C 10.59 g/m*3 17.5 C 0 km/h
1993 20-05-2020 22:00:00 17.3 C 10.61 g/m*3 17.3 C 1.6 km/h
1994 20-05-2020 22:05:00 17.1 C 10.48 g/m*3 17.1 C 4.8 km/h
1995 20-05-2020 22:10:00 16.9 C 10.5 g/m*3 16.9 C 3.2 km/h
1996 20-05-2020 22:15:00 16.8 C 10.58 g/m*3 16.8 C 4.8 km/h
1997 20-05-2020 22:20:00 16.6 C 10.45 g/m*3 16.6 C 4.8 km/h
1998 20-05-2020 22:25:00 16.4 C 10.47 g/m*3 16.4 C 4.8 km/h
1999 20-05-2020 22:30:00 16.3 C 10.54 g/m*3 16.3 C 1.6 km/h
2000 20-05-2020 22:35:00 16.2 C 10.48 g/m*3 16.2 C 3.2 km/h
Sensor: Nr:Datum:Temp:Abs-Feuchte:Windchill:Wind:
Aussen-T/F 2001 20-05-2020 22:40:00 16.2 C 10.48 g/m*3 16.2 C 3.2 km/h
2002 20-05-2020 22:45:00 16.1 C 10.42 g/m*3 16.1 C 1.6 km/h
2003 20-05-2020 22:50:00 16.1 C 10.55 g/m*3 16.1 C 0 km/h
2004 20-05-2020 22:55:00 15.9 C 10.43 g/m*3 15.9 C 1.6 km/h
2005 20-05-2020 23:00:00 15.8 C 10.36 g/m*3 15.8 C 1.6 km/h
2006 20-05-2020 23:05:00 15.8 C 10.36 g/m*3 15.8 C 3.2 km/h
2007 20-05-2020 23:10:00 15.7 C 10.3 g/m*3 15.7 C 0 km/h
2008 20-05-2020 23:15:00 15.6 C 10.37 g/m*3 15.6 C 0 km/h
2009 20-05-2020 23:20:00 15.5 C 10.31 g/m*3 15.5 C 0 km/h
2010 20-05-2020 23:25:00 15.4 C 10.25 g/m*3 15.4 C 0 km/h
2011 20-05-2020 23:30:00 15.3 C 10.19 g/m*3 15.3 C 0 km/h
2012 20-05-2020 23:35:00 15.2 C 10.25 g/m*3 15.2 C 0 km/h
2013 20-05-2020 23:40:00 15.1 C 10.19 g/m*3 15.1 C 4.8 km/h
2014 20-05-2020 23:45:00 15 C 10.13 g/m*3 15 C 1.6 km/h
2015 20-05-2020 23:50:00 14.9 C 10.07 g/m*3 14.9 C 0 km/h
2016 20-05-2020 23:55:00 14.9 C 10.2 g/m*3 14.9 C 0 km/h

Legende:
   Min
   Max


Maximal/Minimal-Werte vom 14.05.2020 - 20.05.2020

Sensor Min Max Avg
Temp
(Aussen-T/F)
2.1 °C
15-05-2020  06:05:00
26.2 °C
18-05-2020  16:40:00
13.5 °C
Abs-Feuchte
(Aussen-T/F)
4.89 g/m*3
15-05-2020  19:30:00
11.85 g/m*3
20-05-2020  15:00:00
7.41 g/m*3
Windchill
(Aussen-T/F)
2.1 C
15-05-2020  06:05:00
26.2 C
18-05-2020  16:40:00
13.42 C

Die Daten stammen von einer Davis Vantage Pro 2 Wetter-Station und werden unter Linux mit der Software wview2wettercgi und aufbereitet. Alle Angaben erfolgen ohne Gewähr für ihre Vollständigkeit oder Richtigkeit.
Kontakt: Rainer Krienke krienke@uni-koblenz.de . Meine Webseiten an der Uni Koblenz oder privat.
Version: $Revision: 0.78 $